[[{"header":{"parameterUnit":"m.s-1","parameterCategory":1,"la1":30.6,"la2":29.2853,"lo1":-89.7004,"lo2":-87.6739,"dy":0.0162,"dx":0.0183,"nx":112,"ny":82,"refTime":"2023-03-09T06:00:00:Z","depth":0,"parameterNumber":2,"parameterNumberName":"U-component_of_WINDS"},"data":[0.0,0.0,0.0,0.0,0.0,0.0,0.0,0.0,0.0,0.0,0.0,0.0,0.0,0.0,0.0,0.0,0.0,0.0,0.0,0.0,0.0,0.0,0.0,0.0,0.0,0.0,0.0,0.0,0.0,0.0,0.0,0.0,0.0,0.0,0.0,0.0,0.0,0.0,0.0,0.0,0.0,0.0,0.0,0.0,0.0,0.0,0.0,0.0,0.0,0.0,0.0,0.0,0.0,0.0,0.0,0.0,0.0,0.0,0.0,0.0,0.0,0.0,0.0,0.0,0.0,0.0,0.0,0.0,0.0,0.0,0.0,0.0,0.0,0.0,0.0,0.0,0.0,0.0,0.0,0.0,0.0,0.0,0.0,0.0,0.0,0.0,0.0,0.0,0.0,0.0,0.0,7.7169,7.7304,7.7304,7.7304,7.7304,7.7304,7.7304,0.0,0.0,0.0,0.0,0.0,0.0,0.0,0.0,0.0,0.0,0.0,0.0,0.0,0.0,0.0,0.0,0.0,0.0,0.0,0.0,0.0,0.0,0.0,0.0,0.0,0.0,0.0,0.0,0.0,0.0,0.0,0.0,0.0,0.0,0.0,0.0,0.0,0.0,0.0,0.0,0.0,0.0,0.0,0.0,0.0,0.0,0.0,0.0,0.0,0.0,0.0,0.0,0.0,0.0,0.0,0.0,0.0,0.0,0.0,0.0,0.0,0.0,0.0,0.0,0.0,0.0,0.0,0.0,0.0,0.0,0.0,0.0,0.0,0.0,0.0,0.0,0.0,0.0,0.0,0.0,0.0,0.0,0.0,0.0,0.0,0.0,0.0,0.0,0.0,0.0,0.0,0.0,0.0,0.0,0.0,0.0,0.0,0.0,0.0,0.0,0.0,0.0,0.0,0.0,7.7096,7.7304,7.7304,7.7304,7.7304,7.7304,7.7304,7.7304,0.0,0.0,0.0,0.0,0.0,0.0,0.0,0.0,0.0,0.0,0.0,0.0,0.0,0.0,0.0,0.0,0.0,0.0,0.0,0.0,0.0,0.0,0.0,0.0,0.0,0.0,0.0,0.0,0.0,0.0,0.0,0.0,0.0,0.0,0.0,0.0,0.0,0.0,0.0,0.0,0.0,0.0,0.0,0.0,0.0,0.0,0.0,0.0,0.0,0.0,0.0,0.0,0.0,0.0,0.0,0.0,0.0,0.0,0.0,0.0,0.0,0.0,0.0,0.0,0.0,0.0,0.0,0.0,0.0,0.0,0.0,0.0,0.0,0.0,0.0,0.0,0.0,0.0,0.0,0.0,0.0,0.0,0.0,0.0,0.0,0.0,0.0,0.0,0.0,0.0,0.0,0.0,0.0,0.0,0.0,0.0,0.0,0.0,0.0,0.0,0.0,0.0,0.0,7.6596,7.7059,7.6521,7.6986,7.7304,7.7304,7.7304,7.7488,7.799,7.7561,0.0,0.0,0.0,0.0,0.0,0.0,0.0,0.0,0.0,0.0,0.0,0.0,0.0,0.0,0.0,0.0,0.0,0.0,0.0,0.0,0.0,0.0,0.0,0.0,0.0,0.0,0.0,0.0,0.0,0.0,0.0,0.0,0.0,0.0,0.0,0.0,0.0,0.0,0.0,0.0,0.0,0.0,0.0,0.0,0.0,0.0,0.0,0.0,0.0,0.0,0.0,0.0,0.0,0.0,0.0,0.0,0.0,0.0,0.0,0.0,0.0,0.0,0.0,0.0,0.0,0.0,0.0,0.0,0.0,0.0,0.0,0.0,0.0,0.0,0.0,0.0,0.0,0.0,0.0,0.0,0.0,0.0,0.0,0.0,0.0,0.0,0.0,0.0,0.0,0.0,0.0,0.0,0.0,0.0,0.0,0.0,0.0,0.0,0.0,0.0,0.0,0.0,7.6032,7.6729,7.6141,7.6986,7.7561,7.7524,7.7524,7.7806,7.8456,7.7866,0.0,0.0,0.0,0.0,0.0,0.0,0.0,0.0,0.0,0.0,0.0,0.0,0.0,0.0,0.0,0.0,0.0,0.0,0.0,0.0,0.0,0.0,0.0,0.0,0.0,0.0,0.0,0.0,0.0,0.0,0.0,0.0,0.0,0.0,0.0,0.0,0.0,0.0,0.0,0.0,0.0,0.0,0.0,0.0,0.0,0.0,0.0,0.0,0.0,0.0,0.0,0.0,0.0,0.0,0.0,0.0,0.0,0.0,0.0,0.0,0.0,0.0,0.0,0.0,0.0,0.0,0.0,0.0,0.0,0.0,0.0,0.0,0.0,0.0,0.0,0.0,0.0,0.0,0.0,0.0,0.0,0.0,0.0,0.0,0.0,0.0,0.0,0.0,0.0,0.0,0.0,0.0,0.0,0.0,0.0,0.0,0.0,0.0,0.0,0.0,0.0,0.0,7.5797,7.6187,7.682,7.788,7.8419,7.8137,7.8137,7.8137,7.821,7.8153,0.0,0.0,0.0,0.0,0.0,0.0,0.0,0.0,0.0,0.0,0.0,0.0,0.0,0.0,0.0,0.0,0.0,0.0,0.0,0.0,0.0,0.0,0.0,0.0,0.0,0.0,0.0,0.0,0.0,0.0,0.0,0.0,0.0,0.0,0.0,0.0,0.0,0.0,0.0,0.0,0.0,0.0,0.0,0.0,0.0,0.0,0.0,0.0,0.0,0.0,0.0,0.0,0.0,0.0,0.0,0.0,0.0,0.0,0.0,0.0,0.0,0.0,0.0,0.0,0.0,0.0,0.0,0.0,0.0,0.0,0.0,0.0,0.0,0.0,0.0,0.0,0.0,0.0,0.0,0.0,0.0,0.0,0.0,0.0,0.0,0.0,0.0,0.0,0.0,0.0,0.0,0.0,0.0,0.0,0.0,0.0,0.0,0.0,0.0,0.0,0.0,0.0,7.5585,7.5567,0.0,7.6664,7.7258,7.7148,7.7148,7.7333,7.7955,0.0,0.0,0.0,0.0,0.0,0.0,0.0,0.0,0.0,0.0,0.0,0.0,0.0,0.0,0.0,0.0,0.0,0.0,0.0,0.0,0.0,0.0,0.0,0.0,0.0,0.0,0.0,0.0,0.0,0.0,0.0,0.0,0.0,0.0,0.0,0.0,0.0,0.0,0.0,0.0,0.0,0.0,0.0,0.0,0.0,0.0,0.0,0.0,0.0,0.0,0.0,0.0,0.0,0.0,0.0,0.0,0.0,0.0,0.0,0.0,0.0,0.0,0.0,0.0,0.0,0.0,0.0,0.0,0.0,0.0,0.0,0.0,0.0,0.0,0.0,0.0,0.0,0.0,0.0,0.0,0.0,0.0,0.0,0.0,0.0,0.0,0.0,0.0,0.0,0.0,0.0,0.0,0.0,0.0,0.0,0.0,0.0,0.0,0.0,0.0,0.0,0.0,7.5724,7.5493,7.5327,0.0,7.6333,7.6902,7.672,7.6694,7.6979,7.7611,0.0,0.0,0.0,0.0,0.0,0.0,0.0,0.0,0.0,0.0,0.0,0.0,0.0,0.0,0.0,0.0,0.0,0.0,0.0,0.0,0.0,0.0,0.0,0.0,0.0,0.0,0.0,0.0,0.0,0.0,0.0,0.0,0.0,0.0,0.0,0.0,0.0,0.0,0.0,0.0,0.0,0.0,0.0,0.0,0.0,0.0,0.0,0.0,0.0,0.0,0.0,0.0,0.0,0.0,0.0,0.0,0.0,0.0,0.0,0.0,0.0,0.0,0.0,0.0,0.0,0.0,0.0,0.0,0.0,0.0,0.0,0.0,0.0,0.0,0.0,0.0,0.0,0.0,0.0,0.0,0.0,0.0,0.0,0.0,0.0,0.0,0.0,0.0,0.0,0.0,0.0,0.0,0.0,0.0,0.0,0.0,0.0,0.0,0.0,0.0,0.0,0.0,7.633,7.5705,7.531,7.6109,7.7176,7.7645,7.7278,7.7278,7.7278,0.0,0.0,0.0,0.0,0.0,0.0,0.0,0.0,0.0,0.0,0.0,0.0,0.0,0.0,0.0,0.0,0.0,0.0,0.0,0.0,0.0,0.0,0.0,0.0,0.0,0.0,0.0,0.0,0.0,0.0,0.0,0.0,0.0,0.0,0.0,0.0,0.0,0.0,0.0,0.0,0.0,0.0,0.0,0.0,0.0,0.0,0.0,0.0,0.0,0.0,0.0,0.0,0.0,0.0,0.0,0.0,0.0,0.0,0.0,0.0,0.0,0.0,0.0,0.0,0.0,0.0,0.0,0.0,0.0,0.0,0.0,0.0,0.0,0.0,0.0,0.0,0.0,0.0,0.0,0.0,0.0,0.0,0.0,0.0,0.0,0.0,0.0,0.0,0.0,0.0,0.0,0.0,0.0,0.0,0.0,0.0,0.0,0.0,0.0,0.0,0.0,0.0,0.0,7.6131,7.5398,7.4978,7.5743,7.6109,7.634,7.6143,7.6143,7.6143,7.6143,0.0,0.0,0.0,0.0,0.0,0.0,0.0,0.0,0.0,0.0,0.0,0.0,0.0,0.0,0.0,0.0,0.0,0.0,0.0,0.0,0.0,0.0,0.0,0.0,0.0,0.0,0.0,0.0,0.0,0.0,0.0,0.0,0.0,0.0,0.0,0.0,0.0,0.0,0.0,0.0,0.0,0.0,0.0,0.0,0.0,0.0,0.0,0.0,0.0,0.0,0.0,0.0,0.0,0.0,0.0,0.0,0.0,0.0,0.0,0.0,0.0,0.0,0.0,0.0,0.0,0.0,0.0,0.0,0.0,0.0,0.0,0.0,0.0,0.0,0.0,0.0,0.0,0.0,0.0,0.0,0.0,0.0,0.0,0.0,0.0,0.0,0.0,0.0,0.0,0.0,0.0,0.0,0.0,0.0,0.0,0.0,0.0,0.0,0.0,0.0,0.0,0.0,7.642,7.5676,7.5242,7.5676,7.5709,7.5709,7.5709,7.5709,7.5709,7.5709,0.0,0.0,0.0,0.0,0.0,0.0,0.0,0.0,0.0,0.0,0.0,0.0,0.0,0.0,0.0,0.0,0.0,0.0,0.0,0.0,0.0,0.0,0.0,0.0,0.0,0.0,0.0,0.0,0.0,0.0,0.0,0.0,0.0,0.0,0.0,0.0,0.0,0.0,0.0,0.0,0.0,0.0,0.0,0.0,0.0,0.0,0.0,0.0,0.0,0.0,0.0,0.0,0.0,0.0,0.0,0.0,0.0,0.0,0.0,0.0,0.0,0.0,0.0,0.0,0.0,0.0,0.0,0.0,0.0,0.0,0.0,0.0,0.0,0.0,0.0,0.0,0.0,0.0,0.0,0.0,0.0,0.0,0.0,0.0,0.0,0.0,0.0,0.0,0.0,0.0,0.0,0.0,0.0,0.0,0.0,0.0,0.0,0.0,0.0,0.0,0.0,0.0,7.6911,7.634,7.5709,7.5709,7.5709,7.5709,7.5709,7.5709,7.5709,7.5709,0.0,0.0,0.0,0.0,0.0,0.0,0.0,0.0,0.0,0.0,0.0,0.0,0.0,0.0,0.0,0.0,0.0,0.0,0.0,0.0,0.0,0.0,0.0,0.0,0.0,0.0,0.0,0.0,0.0,0.0,0.0,0.0,0.0,0.0,0.0,0.0,0.0,0.0,0.0,0.0,0.0,0.0,0.0,0.0,0.0,0.0,0.0,0.0,0.0,0.0,0.0,0.0,0.0,0.0,0.0,0.0,0.0,0.0,0.0,0.0,7.1191,0.0,0.0,0.0,0.0,0.0,0.0,0.0,0.0,0.0,0.0,0.0,0.0,0.0,0.0,0.0,0.0,0.0,0.0,0.0,0.0,0.0,0.0,0.0,0.0,0.0,0.0,0.0,0.0,0.0,0.0,0.0,0.0,0.0,0.0,0.0,0.0,0.0,0.0,0.0,0.0,0.0,7.6008,7.5811,7.5709,7.5709,7.5709,7.5709,7.5709,7.5709,7.5709,7.5709,0.0,0.0,0.0,0.0,0.0,0.0,0.0,0.0,0.0,0.0,0.0,0.0,0.0,0.0,0.0,0.0,0.0,0.0,0.0,0.0,0.0,0.0,0.0,0.0,0.0,0.0,0.0,0.0,0.0,0.0,0.0,0.0,0.0,0.0,0.0,0.0,0.0,0.0,0.0,0.0,0.0,0.0,0.0,0.0,0.0,0.0,0.0,0.0,0.0,0.0,0.0,0.0,0.0,0.0,0.0,0.0,0.0,0.0,0.0,0.0,0.0,7.2181,0.0,0.0,0.0,0.0,0.0,0.0,0.0,0.0,0.0,0.0,0.0,0.0,0.0,0.0,0.0,0.0,0.0,0.0,0.0,0.0,0.0,0.0,0.0,0.0,0.0,0.0,0.0,0.0,0.0,0.0,0.0,0.0,0.0,0.0,0.0,0.0,0.0,0.0,0.0,0.0,7.5709,7.6042,7.634,7.634,7.6544,7.6809,7.6809,7.6809,7.6809,7.6809,7.6809,0.0,0.0,0.0,0.0,0.0,0.0,0.0,0.0,0.0,0.0,0.0,0.0,0.0,0.0,0.0,0.0,0.0,0.0,0.0,0.0,0.0,0.0,0.0,0.0,0.0,0.0,0.0,0.0,0.0,0.0,0.0,0.0,0.0,0.0,0.0,0.0,0.0,0.0,0.0,0.0,0.0,0.0,0.0,0.0,0.0,0.0,0.0,0.0,0.0,0.0,0.0,0.0,0.0,0.0,7.5125,7.5092,7.5409,7.5519,7.558,7.5698,7.5022,7.3912,0.0,0.0,0.0,0.0,0.0,0.0,0.0,0.0,0.0,0.0,0.0,0.0,0.0,0.0,0.0,0.0,0.0,0.0,0.0,0.0,0.0,0.0,0.0,0.0,0.0,7.4314,7.3939,0.0,0.0,0.0,0.0,0.0,0.0,0.0,0.0,0.0,0.0,0.0,0.0,7.6076,7.6707,7.708,7.712,7.7624,7.7992,7.7992,7.7992,7.7924,7.7624,7.7624,7.6888,0.0,0.0,0.0,0.0,0.0,0.0,0.0,0.0,0.0,0.0,0.0,0.0,0.0,0.0,0.0,0.0,0.0,0.0,0.0,0.0,0.0,0.0,0.0,0.0,0.0,0.0,0.0,0.0,0.0,0.0,0.0,0.0,7.0301,6.9846,0.0,0.0,0.0,0.0,0.0,0.0,0.0,0.0,0.0,0.0,0.0,0.0,0.0,0.0,7.4397,7.4641,7.4751,7.4751,7.5605,7.5935,7.5983,7.7451,7.81,7.8137,7.8811,0.0,7.4677,7.4022,0.0,0.0,0.0,0.0,0.0,0.0,0.0,0.0,0.0,0.0,0.0,0.0,0.0,0.0,0.0,0.0,0.0,0.0,0.0,0.0,0.0,0.0,7.2189,7.4141,7.4573,7.4708,0.0,7.4472,7.3676,7.4337,0.0,0.0,0.0,0.0,0.0,0.0,0.0,0.0,7.7611,7.7748,7.7861,7.7816,7.795,7.8018,7.8018,7.8018,7.738,7.6107,7.604,7.5306,7.3641,7.3781,0.0,0.0,0.0,0.0,0.0,0.0,0.0,0.0,0.0,0.0,0.0,0.0,0.0,0.0,0.0,0.0,0.0,0.0,0.0,0.0,0.0,0.0,0.0,0.0,0.0,0.0,0.0,0.0,0.0,7.0403,7.0856,7.0608,7.0968,7.0937,0.0,0.0,0.0,0.0,0.0,0.0,0.0,0.0,0.0,7.3823,7.4932,7.5799,7.6265,7.6766,7.7169,7.7635,7.8027,7.8174,7.8174,7.8958,7.9301,7.927,7.9627,7.8976,7.7605,7.6754,7.6184,7.5674,0.0,0.0,0.0,0.0,0.0,7.625,7.625,0.0,0.0,0.0,0.0,0.0,0.0,0.0,0.0,0.0,0.0,0.0,0.0,0.0,0.0,7.5012,7.5242,7.531,7.5642,7.5208,7.4843,0.0,7.5242,7.531,7.5642,0.0,0.0,0.0,0.0,0.0,7.7911,7.8314,7.8653,7.859,7.8994,7.8927,7.8085,7.7917,7.7313,7.5705,7.5617,7.4934,7.3336,7.4158,7.3907,0.0,0.0,0.0,0.0,0.0,0.0,0.0,0.0,0.0,0.0,0.0,0.0,0.0,0.0,0.0,0.0,0.0,0.0,0.0,0.0,0.0,0.0,0.0,0.0,0.0,0.0,0.0,0.0,7.1004,7.1569,7.1406,7.205,7.2108,0.0,0.0,0.0,0.0,0.0,0.0,7.4022,7.4963,7.5492,7.5482,7.6484,7.7341,7.7953,7.8614,7.9202,7.9779,7.9779,7.9779,7.9816,7.9963,8.0094,8.0093,8.0341,8.0414,8.0304,7.9113,7.8235,7.7607,7.7422,7.7459,7.7584,7.7635,7.773,7.7976,7.7976,7.7976,7.7767,7.7009,0.0,7.6156,7.5011,0.0,0.0,0.0,0.0,7.4377,7.4071,0.0,7.5709,7.5709,7.5811,7.6042,7.6042,7.6143,7.6177,0.0,7.6042,7.6076,7.6211,0.0,0.0,0.0,0.0,7.8321,7.8556,7.8691,7.8758,7.8758,7.896,7.8556,7.7413,7.7351,7.6594,7.5082,7.5051,7.4371,7.2781,7.3807,7.3525,7.1848,0.0,0.0,0.0,0.0,0.0,0.0,0.0,0.0,0.0,0.0,0.0,0.0,0.0,0.0,0.0,0.0,0.0,0.0,0.0,0.0,0.0,0.0,0.0,0.0,0.0,0.0,0.0,0.0,0.0,7.2541,7.3127,0.0,0.0,0.0,0.0,7.4638,7.4748,7.4853,7.486,7.6301,7.7194,7.7169,7.875,7.9646,7.9682,7.9737,7.9763,7.98,7.98,7.98,7.98,8.0626,8.0919,8.0992,8.1717,8.2076,8.1929,7.958,7.8573,7.8464,7.7604,7.7814,7.8537,7.8537,7.904,7.969,7.969,7.969,7.969,7.9617,7.8918,7.7853,7.6684,7.6302,0.0,0.0,7.4885,7.4923,7.4661,7.4579,7.4877,7.5574,7.634,7.6843,7.6843,7.7346,7.7679,0.0,7.6843,7.7108,7.7713,0.0,7.8196,7.8859,7.8994,7.9331,8.004,7.8893,7.7917,7.7917,7.6676,7.5839,7.5672,7.5719,7.504,7.3547,7.3442,7.275,7.1138,7.1138,7.1138,7.0949,7.0949,0.0,0.0,0.0,0.0,0.0,0.0,0.0,0.0,0.0,0.0,0.0,0.0,0.0,0.0,0.0,0.0,0.0,0.0,0.0,0.0,0.0,0.0,0.0,0.0,0.0,0.0,0.0,0.0,7.4555,7.5014,0.0,0.0,7.4478,7.4799,7.5616,7.6153,7.6704,7.7268,7.8345,7.8908,7.8913,7.949,8.003,8.0571,8.0552,8.0846,8.1387,8.1387,8.1387,8.1387,8.1644,8.1754,8.1754,8.2076,8.2508,8.2876,8.2039,8.1387,8.0919,8.0561,8.0634,8.0919,8.0919,8.1102,8.1387,8.1387,8.1387,8.1102,7.9763,7.8867,7.8081,7.6476,7.6394,7.6548,7.568,7.5782,7.6216,7.6103,7.6442,7.6843,7.7142,7.7346,7.7652,7.7641,7.7813,7.808,7.8249,7.788,7.7711,7.7914,7.845,7.8822,7.9095,7.8657,7.8455,7.8657,7.7783,7.708,7.6997,7.6864,7.6426,7.5434,7.5275,7.4714,7.3153,7.3092,7.2811,7.2189,7.1818,7.1538,7.1538,7.1168,7.0829,0.0,0.0,0.0,0.0,0.0,0.0,0.0,0.0,0.0,0.0,0.0,0.0,0.0,0.0,0.0,0.0,0.0,0.0,0.0,0.0,0.0,0.0,0.0,0.0,0.0,0.0,7.4771,7.5434,7.608,7.6295,7.5757,7.6019,7.6484,7.7304,7.7866,7.8416,7.8993,7.9753,8.0167,8.0231,8.0487,8.0882,8.1424,8.1424,8.1644,8.2186,8.2508,8.2619,8.2619,8.2876,8.3051,8.3051,8.3051,8.3309,8.3815,8.3831,8.3478,8.3038,8.3023,8.3051,8.3051,8.3051,8.3051,8.3051,8.3051,8.3051,8.2655,8.0487,7.9665,7.9057,7.7029,7.683,7.7164,7.6598,7.6864,7.7266,7.7266,7.7634,7.8002,7.8002,7.8138,7.8409,7.8321,7.859,7.8927,7.9398,7.8893,7.8489,7.8691,7.8691,7.896,7.9736,7.8489,7.7707,7.8563,7.7115,7.6123,7.6047,7.5927,7.5521,7.4516,7.4456,7.3949,7.292,7.289,7.289,7.289,7.2517,7.2188,7.2219,7.0949,7.0301,7.0301,0.0,0.0,0.0,0.0,0.0,0.0,0.0,0.0,0.0,0.0,0.0,0.0,0.0,0.0,0.0,0.0,0.0,0.0,0.0,0.0,0.0,0.0,0.0,7.3823,7.5115,7.5873,7.5128,7.6448,7.7378,7.7414,7.8137,7.8995,7.9793,7.9847,7.9873,7.9873,8.0597,8.1029,8.1029,8.1791,8.2223,8.2223,8.226,8.226,8.226,8.3088,8.3419,8.3456,8.422,8.4617,8.4617,8.4617,8.4617,8.4653,8.462,8.4666,8.463,8.4632,8.4617,8.4617,8.4617,8.4617,8.4617,8.4617,8.4617,8.422,8.1974,8.1327,8.0885,7.8656,7.8085,7.8119,7.8119,7.8119,7.8119,7.8119,7.8119,7.8119,7.8119,7.8623,7.9095,7.9095,7.9736,8.0209,8.0209,7.9668,7.9331,8.0073,7.8927,7.8691,8.0851,7.8522,0.0,7.9605,7.7061,7.5216,7.5202,7.3861,7.2915,7.2915,7.2915,7.2915,7.2915,7.2915,7.2915,7.2915,7.2915,7.2924,7.2741,7.036,6.8998,6.9086,0.0,0.0,0.0,0.0,0.0,0.0,0.0,0.0,0.0,0.0,0.0,0.0,0.0,0.0,0.0,0.0,0.0,0.0,0.0,0.0,0.0,0.0,7.7059,7.6447,7.6717,7.7341,7.8345,7.8885,7.9092,7.9096,7.9316,7.9783,8.0645,8.0662,8.0919,8.1534,8.1717,8.1827,8.1827,8.2655,8.3088,8.3088,8.3668,8.3926,8.3926,8.4175,8.4235,8.4259,8.451,8.4584,8.4584,8.4584,8.4945,8.5458,8.5463,8.583,8.6229,8.506,8.4584,8.4584,8.4584,8.4584,8.4584,8.4584,8.4584,8.4222,8.2012,8.1697,8.166,7.9499,7.9129,7.9634,7.9634,7.9634,7.9634,7.9634,7.9634,7.9634,7.9634,7.977,7.9871,7.9871,8.0107,8.031,8.0919,7.9871,7.9028,7.9263,7.8927,7.863,7.8491,7.6798,0.0,7.6396,7.5143,7.4316,7.4206,7.4266,7.4403,7.4403,7.4403,7.4403,7.4403,7.4403,7.4403,7.4403,7.3861,7.2786,7.0825,6.8654,6.752,0.0,0.0,0.0,0.0,0.0,0.0,0.0,0.0,0.0,0.0,0.0,0.0,0.0,0.0,0.0,0.0,0.0,0.0,0.0,0.0,0.0,0.0,7.7609,7.8673,7.882,7.8537,7.8746,7.9653,8.0084,8.0277,8.0304,8.0597,8.0992,8.1497,8.1497,8.1827,8.2655,8.2692,8.2839,8.3198,8.3668,8.3897,8.3881,8.4352,8.4639,8.4639,8.4933,8.5123,8.5138,8.5431,8.5577,0.0,8.5577,8.5866,8.6339,8.6339,8.6559,0.0,0.0,0.0,0.0,0.0,8.5577,8.5577,8.5577,8.5577,8.5321,8.3578,8.2974,8.258,8.0851,8.0242,8.0209,8.0209,8.0209,8.0209,8.0209,8.0209,8.0242,8.058,8.0648,8.0716,8.1054,8.1088,8.1054,8.075,0.0,0.0,7.7916,7.7487,7.7461,7.7934,7.6089,7.4967,7.5987,7.5096,7.4266,7.4266,7.4612,7.4869,7.4869,7.4869,0.0,0.0,0.0,7.4869,7.4869,7.3771,0.0,0.0,0.0,6.6137,6.616,0.0,0.0,0.0,6.2673,6.1608,0.0,0.0,0.0,0.0,0.0,0.0,0.0,0.0,0.0,0.0,0.0,0.0,0.0,0.0,0.0,0.0,7.8719,7.9479,8.0955,8.0524,8.0056,8.0056,8.067,8.1139,8.1139,8.1754,8.2223,8.2296,8.2333,8.2692,8.3456,0.0,0.0,0.0,0.0,8.4749,8.4739,8.4813,8.4849,8.4886,8.5577,8.594,8.594,8.6742,8.7142,8.7142,8.7215,8.7252,8.7252,8.7252,8.7252,8.7215,8.7068,8.7068,8.7142,8.7142,8.7178,0.0,0.0,0.0,0.0,8.5756,8.4574,8.3444,8.234,8.1291,8.0479,8.0479,8.0479,8.0479,8.0479,8.0479,8.0614,8.1291,8.1393,8.1563,8.2276,8.2276,8.1766,8.0378,7.9841,7.8823,7.6751,7.579,7.591,7.7882,7.582,7.4779,7.6804,7.582,7.4869,7.4869,0.0,0.0,7.4869,7.4869,7.4869,7.4869,7.4869,7.4809,7.4552,7.2601,7.145,7.123,6.69,6.4802,6.4802,6.2534,6.1432,6.1382,6.245,6.1865,0.0,0.0,0.0,0.0,0.0,0.0,0.0,0.0,0.0,0.0,0.0,0.0,0.0,0.0,0.0,7.8537,8.0166,8.1607,8.1929,8.1791,8.1717,8.1717,8.1827,8.2003,8.2003,8.2113,8.2508,8.3125,8.3198,8.3492,8.4322,8.4321,0.0,8.4589,8.5207,8.5605,8.5541,8.6159,8.6522,8.6522,0.0,0.0,8.6779,8.7615,8.7945,8.8051,8.8672,8.8929,8.8929,8.8929,8.8929,8.8819,8.7541,8.7431,8.7945,8.7945,8.8382,8.8929,8.8929,8.8309,8.7288,8.6123,8.4973,8.3804,8.2638,8.2173,0.0,8.1936,8.1936,8.1936,8.1936,8.1936,8.197,8.2173,8.2171,8.2225,8.2326,8.1375,8.056,8.0867,7.8794,7.6967,7.7107,7.6516,7.588,7.5593,7.5125,7.4869,7.5245,7.5125,7.4869,7.4869,7.4869,7.4869,7.4869,7.4869,7.4869,7.4869,7.4869,7.4176,7.2542,7.0604,6.8698,6.7011,6.4536,6.3162,6.3162,6.2797,6.2295,6.1907,6.1647,6.1351,0.0,0.0,0.0,0.0,0.0,0.0,0.0,0.0,0.0,0.0,0.0,7.8507,0.0,0.0,8.0493,7.9901,8.1139,8.2186,8.2186,8.2582,8.2655,8.2223,8.2582,8.2802,8.2802,8.3162,8.3594,8.3962,8.4015,8.4389,8.5153,8.517,8.5394,8.5793,8.6159,8.6412,8.6412,8.7178,8.7615,8.7615,8.8051,8.8198,8.8235,8.8635,8.8753,8.8833,8.9271,8.9417,8.9417,8.9417,8.9417,8.9344,8.8468,8.8463,8.8819,8.8793,8.9016,8.9417,8.9417,8.8649,8.7523,8.6894,8.5534,8.3997,8.3463,8.285,8.2408,8.2408,8.2408,8.2408,8.2408,8.2408,8.2475,8.285,8.233,8.1839,8.2214,8.1023,7.9749,7.9276,7.7817,7.6576,7.6168,7.582,7.5442,7.4929,7.4869,7.4869,7.4869,7.4869,7.4869,7.4869,7.4869,7.4869,7.4869,7.4869,7.4493,7.3486,7.3456,7.2512,7.0438,6.844,6.6853,6.5866,6.3741,6.2822,6.2822,6.2822,6.2609,6.232,6.2189,6.171,0.0,0.0,0.0,0.0,0.0,0.0,0.0,0.0,8.1255,8.0787,8.0997,8.096,7.9989,8.0997,8.1807,8.1277,8.2039,8.2692,8.2692,8.3235,8.3419,8.2708,8.3206,8.3603,8.3647,8.4228,8.4661,8.4809,8.4835,8.5211,8.5976,8.6013,8.6412,8.7178,8.7215,8.7288,8.7504,8.8125,8.8456,8.846,8.9117,8.9375,8.9375,8.9592,8.9601,8.9679,8.9825,8.9862,8.9862,8.9862,8.9862,8.9862,8.9862,8.9823,8.9886,8.9678,8.9569,8.9496,8.9496,8.8582,8.7398,8.7384,8.5943,8.4229,8.4229,8.3543,8.2864,8.2864,8.2864,8.2864,8.2864,8.2864,8.2932,8.3134,8.2248,8.1383,8.1645,8.0504,7.8946,7.7508,7.7122,7.6455,7.5155,7.4869,7.4869,7.4869,7.4869,7.4869,7.4869,7.4869,7.4869,7.4869,7.4869,7.4869,7.4869,7.4869,7.4087,7.1973,7.1954,7.0792,6.8372,6.6655,6.5651,6.5144,6.3665,6.2822,6.2822,6.2822,6.2822,6.2822,6.2822,6.232,8.1228,8.1656,8.2419,8.2342,8.2901,8.3272,0.0,0.0,8.1489,8.0947,8.0406,7.9975,7.9828,8.1094,8.2141,8.2076,8.3345,8.4359,8.4359,8.4396,8.4412,8.4369,8.4419,8.4485,8.4479,8.4589,8.4882,8.5573,8.5683,8.6013,8.6848,8.6885,8.7215,8.8051,8.8088,8.8382,8.9113,8.9256,8.9268,8.9276,8.9349,8.9386,8.9422,9.0117,9.0447,9.0521,9.1217,9.1546,9.1546,9.1546,9.1546,9.1546,9.1546,9.1546,9.1436,9.0777,9.0301,9.0008,8.9935,8.8399,8.6521,8.6528,8.5599,8.4573,8.4573,8.4398,8.4331,8.4331,8.4331,8.4331,8.4331,8.4331,8.3954,8.2657,8.2214,8.1757,8.0354,7.875,7.7466,7.732,7.6168,7.5125,7.4899,7.4869,7.4869,7.4869,7.4869,7.4869,7.4869,7.4869,7.4869,7.4869,7.4869,7.4869,7.4869,7.4869,7.4087,7.1973,7.1962,7.0125,6.6259,6.5874,6.4879,6.3137,6.2873,6.2822,6.2822,6.2822,6.2822,6.2822,6.2822,6.2797,8.3247,8.3208,0.0,0.0,8.4099,8.417,8.3555,8.3561,8.354,8.2966,8.3051,8.3088,8.2692,8.3162,8.3574,0.0,8.4144,8.4578,8.4578,8.5013,8.5343,8.5284,8.571,8.5783,8.5321,8.5756,8.6123,8.6485,8.6485,8.6885,8.7651,8.7688,8.8088,8.8856,8.8904,8.9089,8.9383,8.9858,9.008,9.0081,9.0557,9.0777,9.0777,9.1143,9.129,9.129,9.1657,9.1803,9.1803,9.1803,9.1803,9.1803,9.1803,9.1803,9.1767,9.14,9.074,9.0005,9.0018,8.8438,8.6452,8.644,8.5565,8.464,8.464,8.464,8.464,8.464,8.464,8.464,8.464,8.464,8.4196,8.259,8.1541,8.0333,7.8654,7.7122,7.588,7.588,7.5412,7.4869,7.4869,7.4869,7.4869,7.4869,7.4869,7.4869,7.4869,7.4869,7.4869,7.4869,7.4869,7.4869,7.4869,7.3831,7.2287,7.0322,6.8952,6.7116,6.422,6.4006,6.3665,6.2847,6.2822,6.2822,6.2822,6.2822,6.2822,6.2822,6.2822,6.2822,8.4304,0.0,0.0,8.5093,8.556,8.5824,8.533,8.5522,8.5666,8.5108,8.5337,8.5397,8.4706,8.4779,0.0,8.4918,8.5138,8.5284,8.5284,8.5793,8.6123,8.6123,8.6815,8.7109,8.6526,8.6779,8.7105,8.7292,8.7325,8.7688,8.8456,8.8533,8.89,8.9706,8.975,8.9862,9.0045,9.0631,9.096,9.096,9.1546,9.1803,9.1803,9.1803,9.1803,9.1803,9.1803,9.1803,9.1803,9.1803,9.1803,9.1803,9.1803,9.162,9.129,9.129,9.0557,8.9524,8.91,8.7697,8.5977,8.5943,8.5255,8.464,8.464,8.464,8.464,8.464,8.464,8.464,8.464,8.4263,8.351,8.1873,8.0309,7.8643,7.6955,7.576,7.4869,7.4869,7.4869,7.4869,7.4869,7.4869,7.4869,7.4869,7.4869,7.4869,7.4869,7.4869,7.4869,7.4869,7.4433,7.4117,7.4117,7.2228,7.0205,6.8109,6.6578,6.4853,6.2873,6.2822,6.2822,6.2822,6.2822,6.2822,6.2822,6.2822,6.2822,6.2822,6.2822,6.2822,0.0,0.0,8.6017,8.6055,8.7319,8.8584,8.8546,8.8084,8.7401,8.6691,8.6025,8.5394,8.4703,8.5248,8.5756,8.5793,8.6412,8.6958,8.6958,8.6958,8.6958,8.6958,8.7659,8.8173,0.0,8.7439,8.7292,8.8102,8.8133,8.8492,8.933,8.9346,8.9752,9.0521,9.0557,9.096,9.173,9.1767,9.1767,9.1767,9.1803,9.1803,9.1803,9.1803,9.1803,9.1803,9.1803,9.1803,9.1803,9.1803,9.1803,9.1803,9.1803,9.107,9.0045,9.0045,8.9313,8.8132,8.6968,8.5667,8.4674,8.4674,8.464,8.464,8.464,8.464,8.464,8.464,8.464,8.464,8.464,8.3442,8.1839,8.0242,7.8581,7.6895,7.5245,7.4899,7.4869,7.4869,7.4869,7.4869,7.4869,7.4869,7.4869,7.4869,7.4869,7.4869,7.4869,7.4869,7.4869,7.4869,7.3171,7.1973,7.1973,7.0097,6.8165,6.6068,6.584,6.4853,6.2873,6.2822,6.2822,6.2822,6.2822,6.2822,6.2822,6.2822,6.2822,6.2822,6.2822,6.2822,0.0,0.0,8.7094,8.7675,8.8291,8.8675,8.8675,8.8944,8.8806,8.7657,8.7279,8.6752,8.5631,8.5642,8.5793,8.5788,8.6481,8.6995,8.6995,8.7472,8.7802,8.7802,8.8536,0.0,0.0,0.0,0.0,8.8979,8.8981,8.9383,9.0152,9.0154,9.0557,9.1327,9.1363,9.1546,9.1803,9.1803,9.1803,9.1803,9.1803,9.1803,9.1803,9.1803,9.1803,9.1803,9.1803,9.1803,9.1803,9.1803,9.1803,9.173,9.096,9.0374,8.9822,8.8188,8.7431,8.7004,8.6541,8.5599,8.464,8.464,8.464,8.464,8.464,8.464,8.464,8.464,8.464,8.4331,8.3308,8.2623,8.1514,7.8748,7.7763,7.6864,7.5215,7.4869,7.4869,7.4869,7.4869,7.4869,7.4869,7.4869,7.4869,7.4869,7.4869,7.4869,7.4869,7.4869,7.4433,7.3112,7.2287,7.1306,7.0032,6.8063,6.6554,6.584,6.4536,6.3451,6.2847,6.2822,6.2822,6.2822,6.2822,6.2822,6.2822,6.2822,6.2822,6.2822,6.2822,6.2007,0.0,8.7671,8.844,8.8986,8.9332,8.9563,8.9563,8.9983,9.0033,8.8872,8.8208,8.7628,8.6804,8.5905,8.5532,8.6114,8.6407,8.6775,8.7362,8.7876,8.8316,8.861,8.9344,0.0,0.0,0.0,0.0,8.9858,8.986,9.0191,9.0997,9.1033,9.1253,9.1767,9.1803,9.1803,9.1803,9.1803,9.1803,9.1803,9.1803,9.1803,9.1803,9.1803,9.1803,9.1803,9.1803,9.1803,9.1767,9.129,9.1143,9.107,8.9825,8.9066,8.8556,8.6952,8.6113,8.5701,8.5701,8.5221,8.464,8.464,8.464,8.464,8.464,8.464,8.4432,8.3886,8.3751,8.3375,8.1772,8.0926,7.9886,7.7826,7.6864,7.6168,7.5155,7.4869,7.4869,7.4869,7.4869,7.4869,7.4869,7.4869,7.4612,7.3891,7.3831,7.4117,7.4809,7.4236,7.329,7.2002,7.065,6.9219,6.7924,6.5943,6.4776,6.4776,6.3451,6.2822,6.2822,6.2822,6.2822,6.2822,6.2822,6.2822,6.2822,6.2822,6.2822,6.2822,6.1982,6.0695,8.8294,8.9332,8.9983,8.9983,9.0559,9.121,9.121,9.121,9.0982,9.0255,8.896,8.7958,0.0,0.0,8.5227,8.6738,8.6444,8.6518,8.8059,8.8316,8.861,0.0,0.0,0.0,0.0,0.0,0.0,9.0739,0.0,9.1031,9.1767,9.1803,9.1803,9.1803,9.1803,9.1803,9.1803,9.1803,9.1803,9.1803,9.1803,9.1803,9.1803,9.1803,9.1803,9.1803,9.1803,9.1767,9.162,9.0484,8.9972,8.9786,8.8579,8.7373,8.6389,8.6355,8.5565,8.464,8.464,8.464,8.464,8.464,8.464,8.464,8.464,8.4573,8.4196,8.2623,8.21,8.1717,8.0119,7.8459,7.7244,7.7213,7.594,7.4869,7.4869,7.4869,7.4869,7.4869,7.4869,7.4869,7.4869,7.4809,7.4147,7.2198,7.1757,7.2444,7.4296,7.2915,7.1748,7.1619,6.8154,6.5728,6.5677,6.393,6.2822,6.2822,6.2822,6.2822,6.2822,6.2822,6.2822,6.2822,6.2822,6.2822,6.2822,6.2822,6.2822,6.2797,6.0384,5.9201,8.9483,9.0213,9.0902,9.0902,9.1056,9.121,9.121,9.121,9.0989,9.0245,8.8947,8.7727,0.0,0.0,0.0,8.6921,8.7839,0.0,8.905,8.9601,0.0,0.0,0.0,9.1473,9.1473,9.1693,0.0,0.0,9.1473,9.1583,9.1767,9.1803,9.1803,9.1803,9.1803,9.1803,9.1803,9.1803,9.1803,9.1803,9.1803,9.1803,9.1803,9.1803,9.1803,9.1803,9.1803,9.129,9.0447,9.0118,8.9461,8.8572,8.7304,8.6678,8.6321,8.5429,8.4809,8.464,8.464,8.464,8.464,8.464,8.464,8.464,8.464,8.3785,8.269,8.2281,8.1369,8.004,7.833,7.7683,7.6955,7.582,7.5185,7.4869,7.4869,7.4869,7.4869,7.4869,7.4869,7.4869,7.4869,7.3605,7.2512,7.1944,7.0649,6.9896,7.0344,7.001,6.8996,6.7518,6.6364,6.5144,6.3691,6.3111,6.2822,6.2822,6.2822,6.2822,6.2822,6.2822,6.2822,6.2822,6.2822,6.2822,6.2822,6.2822,6.2822,6.2797,6.0384,5.8395,9.0367,9.0825,9.121,9.121,9.121,9.121,9.121,9.121,9.0991,9.025,8.8895,0.0,0.0,0.0,0.0,0.0,0.0,0.0,8.9858,9.0335,9.0739,0.0,9.1546,0.0,9.1803,9.1803,9.1803,0.0,9.1803,9.1803,9.1803,9.1803,9.1803,9.1803,9.1803,9.1803,9.1803,9.1803,9.1803,9.1803,9.1803,9.1803,9.1803,9.1803,9.1546,9.1033,0.0,9.0337,8.9166,8.8637,8.8016,8.7283,8.6045,8.5599,8.5531,8.4809,8.464,8.464,8.464,8.464,8.464,8.464,8.464,8.4432,8.3785,8.2932,8.1918,8.0516,7.9412,7.8293,7.6606,7.6228,7.6077,7.5125,7.4869,7.4869,7.4869,7.4869,7.4869,7.4869,7.4869,7.4582,7.3801,7.2601,7.1348,6.942,6.8298,6.7163,6.6345,6.697,6.7116,6.5874,6.517,6.4485,6.335,6.3401,6.364,6.364,6.364,6.364,6.364,6.3376,6.3162,6.3162,6.2873,6.2822,6.2822,6.2822,6.2295,6.1194,5.882,5.6656,9.1018,9.121,9.121,9.121,9.1287,9.1325,9.1248,9.1287,9.1144,9.0295,0.0,8.8054,8.8093,0.0,8.6591,8.8133,0.0,8.905,9.0555,9.0776,9.1033,9.173,9.1803,9.1803,9.1803,9.1803,9.1803,9.1803,9.1803,9.1803,9.1803,9.1803,9.1803,9.1803,9.1803,9.1803,9.1803,9.1803,9.1803,9.1803,9.1803,9.1803,9.1803,9.1657,9.0997,9.0008,0.0,0.0,8.7884,8.683,8.6355,8.6045,8.5052,8.464,8.464,8.464,8.464,8.464,8.464,8.4398,8.4263,8.4263,8.4263,8.3954,8.2315,8.1709,8.1,7.8142,7.7183,7.6606,7.5215,7.4869,7.4869,7.4869,7.4869,7.4869,7.4869,7.4869,7.4869,7.4869,7.4749,7.392,7.2228,7.14,6.9838,6.6255,6.5625,6.4802,6.3137,6.4297,6.5411,6.5436,6.4485,6.3766,6.3805,6.4171,6.4463,6.4463,6.4463,6.4463,6.4463,6.4095,6.3754,6.3741,6.335,6.3061,6.2873,6.2584,6.1432,5.9292,5.6607,5.4406,9.1171,9.121,9.121,9.121,9.1748,9.2095,9.1364,9.1748,0.0,0.0,0.0,8.8726,8.819,8.7932,0.0,8.905,0.0,0.0,0.0,0.0,9.1657,0.0,0.0,0.0,0.0,0.0,0.0,0.0,0.0,0.0,9.1803,9.1803,9.1803,9.1803,9.1803,9.1803,9.1803,9.1803,9.1803,9.1803,9.1803,9.1803,9.1767,9.074,9.0155,8.9935,0.0,0.0,8.6711,8.6469,8.5841,8.4843,8.4674,8.464,8.464,8.464,8.464,8.464,8.464,8.3751,8.2623,8.2623,8.2623,8.2281,8.0682,7.928,7.8041,7.7426,7.6288,7.5215,7.4929,7.4869,7.4869,7.4869,7.4869,7.4869,7.4869,7.4869,7.4869,7.4869,7.3545,7.2287,7.1944,6.9021,6.658,6.584,6.4322,6.3401,6.3451,6.3401,6.3451,6.3981,6.393,6.3867,6.4279,6.4428,6.4428,6.4428,6.4428,6.4428,6.4428,6.4403,6.4387,6.4322,6.4246,6.3981,6.3451,6.1531,6.0147,5.9177,5.5005,5.2715,9.121,9.121,9.1325,9.1787,9.221,9.2402,9.1979,0.0,0.0,0.0,0.0,8.833,8.7683,0.0,0.0,0.0,0.0,0.0,0.0,0.0,0.0,0.0,0.0,0.0,0.0,0.0,0.0,0.0,0.0,0.0,9.1803,9.1803,9.1803,9.1803,9.1803,9.1803,9.1803,9.1803,9.1803,9.1803,9.1143,9.0887,9.0777,8.9569,8.8722,8.8058,8.7503,0.0,8.5497,8.5497,8.5119,8.464,8.464,8.464,8.464,8.464,8.4128,8.3375,8.3375,8.2281,8.0792,7.986,8.0219,8.0598,7.9022,7.7921,7.7153,7.6258,7.5502,7.4869,7.4869,7.4869,7.4869,7.4869,7.4869,7.4869,7.4869,7.4117,7.329,7.329,7.166,7.0012,6.8938,6.7136,6.5411,6.4485,6.3401,6.3086,6.3665,6.351,6.3519,6.4082,6.441,6.4662,6.4875,6.5221,6.5271,6.5271,6.5271,6.5271,6.5271,6.4999,6.4993,6.4874,6.458,6.4312,6.4044,6.1713,5.9619,5.7869,5.4284,5.1862,9.1171,9.1325,9.1633,9.2326,9.2787,9.2905,9.2372,9.1983,0.0,0.0,8.8446,8.7898,8.7132,0.0,0.0,0.0,0.0,0.0,0.0,0.0,0.0,0.0,0.0,0.0,0.0,0.0,0.0,0.0,0.0,0.0,9.1803,9.1803,9.1803,9.1803,9.1803,9.1803,9.1803,9.1803,9.1693,9.14,9.0484,8.9893,8.9589,8.8338,8.7301,8.6389,8.6113,0.0,0.0,8.464,8.464,8.464,8.464,8.464,8.4606,8.4229,8.3341,8.2174,8.1856,8.0621,7.9069,7.7702,7.8202,7.8964,7.7244,7.6834,7.6516,7.5215,7.4869,7.4869,7.4869,7.4869,7.4869,7.4869,7.4869,7.4809,7.4403,7.2975,7.1815,7.1335,6.9565,6.7709,6.6125,6.5411,6.4562,6.3086,6.2873,6.3162,6.3741,6.3925,6.4279,6.4843,6.5107,6.5296,6.5517,6.5839,6.6112,6.6112,6.6112,6.6112,6.6112,6.5764,6.5517,6.5517,6.4999,6.4432,6.3841,6.1349,5.8795,5.605,5.357,5.1105,9.0979,9.1787,9.2402,9.2479,9.3633,9.4177,9.2011,0.0,0.0,8.8783,8.8167,8.7898,8.7132,0.0,0.0,0.0,0.0,0.0,0.0,0.0,0.0,0.0,0.0,0.0,0.0,0.0,0.0,0.0,0.0,0.0,0.0,9.1803,9.1803,9.1803,9.1803,9.1803,9.1803,9.1803,9.1253,9.0301,9.0045,8.9402,8.833,8.7091,8.6505,8.6355,0.0,0.0,0.0,8.464,8.464,8.464,8.464,8.464,8.4398,8.2965,8.2281,8.2043,8.0554,7.8997,7.7496,7.7289,7.7472,7.7213,7.5563,7.5155,7.5125,7.4899,7.4869,7.4869,7.4869,7.4869,7.4869,7.4869,7.4869,7.4433,7.2571,7.1973,7.1306,6.9552,6.7559,6.6042,6.584,6.4271,6.3086,6.2847,6.335,6.3741,6.4297,6.4806,6.5417,6.586,6.5467,6.5517,6.6061,6.6112,6.6112,6.6112,6.6112,6.6112,6.6112,6.6086,6.6086,6.6086,6.6061,6.4653,6.1858,5.9483,5.6844,5.3782,5.1584,5.0086,9.1595,9.2249,9.2749,9.3749,9.4095,9.3754,9.1892,0.0,9.0561,8.7898,8.7439,8.7328,8.7064,0.0,0.0,0.0,0.0,0.0,0.0,0.0,0.0,0.0,0.0,0.0,0.0,0.0,0.0,0.0,0.0,0.0,0.0,9.1803,9.1803,9.1803,9.1803,9.14,9.0704,9.0704,9.0081,8.8947,8.8184,8.7611,8.704,8.5909,8.5255,8.5255,0.0,0.0,0.0,8.464,8.464,8.4539,8.351,8.3134,8.2965,8.1364,8.0068,7.9164,7.8451,7.7213,7.585,7.585,7.585,7.579,7.5125,7.4869,7.4869,7.4869,7.4869,7.4869,7.4869,7.4869,7.4869,7.4869,7.392,7.2886,7.2002,6.9955,6.799,6.718,6.5385,6.3981,6.3981,6.3376,6.2822,6.2822,6.3376,6.388,6.4387,6.4993,6.5517,6.6086,6.5864,6.5839,6.6112,6.6112,6.6112,6.6112,6.6112,6.6112,6.6112,6.6112,6.6112,6.6112,6.4678,6.3277,6.2127,5.8142,5.5577,5.4066,5.1745,5.0391,9.1598,9.2479,9.321,9.4634,9.4369,9.3291,0.0,0.0,8.9123,8.6994,8.6619,8.6738,8.6958,8.6995,0.0,0.0,0.0,8.7949,8.8169,8.8683,8.9344,0.0,0.0,0.0,0.0,0.0,0.0,0.0,0.0,0.0,0.0,9.1803,9.1803,9.1803,9.14,9.0887,9.0008,8.9633,8.8875,8.7658,8.68,8.6147,8.5875,8.5018,8.464,8.464,0.0,0.0,0.0,8.4128,8.3886,8.3751,8.2147,8.1437,8.1262,7.969,7.8312,7.7213,7.6804,7.585,7.4869,7.4869,7.4869,7.4869,7.4869,7.4869,7.4869,7.4869,7.4869,7.4869,7.4869,7.4869,7.4779,7.4176,7.2915,7.151,7.0335,6.7828,6.5651,6.5068,6.3716,6.2822,6.2822,6.2822,6.2822,6.2822,6.3426,6.4158,6.4406,6.5196,6.5592,6.6086,6.6112,6.6112,6.6112,6.6112,6.6112,6.6112,6.6112,6.6112,6.6112,6.6112,6.5789,6.4999,6.3301,6.1796,6.0303,5.6842,5.4597,5.3536,5.1718,5.0687,9.0603,9.2402,9.3903,9.4788,9.4441,9.3305,0.0,0.0,8.7663,8.6096,8.5783,8.604,8.6848,8.6995,0.0,0.0,0.0,0.0,8.8096,0.0,0.0,0.0,0.0,0.0,0.0,0.0,0.0,0.0,0.0,0.0,0.0,9.1803,9.1803,9.1803,9.0631,9.0008,9.0008,8.8836,8.7595,8.6462,8.6389,8.5701,8.464,8.464,8.464,0.0,0.0,0.0,0.0,8.2932,8.2214,8.2113,8.0482,7.9795,7.9575,7.7988,7.738,7.7122,7.5502,7.4869,7.4869,7.4869,7.4869,7.4869,7.4869,7.4869,7.4869,7.4869,7.4869,7.4869,7.4869,7.4869,7.4433,7.2346,7.1914,7.0848,6.6687,6.5892,6.5144,6.3162,6.2822,6.2822,6.2822,6.2822,6.2822,6.2822,6.3716,6.45,6.443,6.5492,6.6112,6.6112,6.6112,6.6112,6.6112,6.6112,6.6112,6.6112,6.6112,6.6112,6.6112,6.6112,6.4974,6.264,6.2444,6.0014,5.5108,5.5129,5.3811,5.1445,5.1426,5.1173,8.8955,9.0028,9.052,9.0936,9.0428,8.9415,8.7585,0.0,8.599,8.4477,8.5013,8.5857,8.6114,8.6628,0.0,0.0,0.0,0.0,0.0,0.0,0.0,0.0,0.0,0.0,0.0,0.0,0.0,0.0,0.0,0.0,0.0,9.0984,9.0559,9.0559,9.0187,8.9189,8.7549,8.7211,8.6389,8.5153,8.5153,8.5018,8.464,8.464,0.0,0.0,0.0,0.0,0.0,8.2455,8.1525,8.0396,7.8688,7.8088,7.7882,7.6228,7.5593,7.5563,7.5125,7.4869,7.4869,7.4869,7.4869,7.4869,7.4869,7.4869,7.4869,7.4869,7.4869,7.4869,7.4869,7.3861,7.2631,7.2002,6.9748,6.7448,6.6062,6.4776,6.364,6.2873,6.2822,6.2822,6.2822,6.2822,6.2898,6.3376,6.4006,6.4551,6.4972,6.5592,6.6112,6.6112,6.6112,6.6112,6.6112,6.6112,6.6112,6.6112,6.6112,6.6112,6.6112,6.4432,6.3252,6.2444,5.9227,5.6696,5.5129,5.3301,5.2205,5.1426,5.1426,5.1406,0.0,8.8499,8.8653,8.9062,8.8376,0.0,0.0,0.0,8.4484,8.3603,8.4205,8.4976,8.527,0.0,0.0,0.0,0.0,0.0,0.0,0.0,0.0,0.0,0.0,0.0,0.0,0.0,0.0,0.0,0.0,0.0,0.0,0.0,8.9558,8.8667,8.8637,8.7968,8.638,8.5923,8.5289,8.464,8.464,8.464,8.464,8.464,0.0,0.0,0.0,0.0,0.0,8.0836,7.97,7.8643,7.7092,7.6455,7.6228,7.5245,7.4869,7.4869,7.4869,7.4869,7.4869,7.4869,7.4869,7.4869,7.4869,7.4869,7.4869,7.4869,7.4869,7.4779,7.392,7.2856,7.151,6.9955,6.7625,6.5651,6.4827,6.3691,6.2822,6.2822,6.2822,6.2822,6.2822,6.2822,6.3086,6.3665,6.4133,6.463,6.5318,6.5814,6.6112,6.6112,6.6112,6.6112,6.6112,6.6112,6.6112,6.6112,6.6112,6.5764,6.4703,6.3277,6.1669,5.9746,5.6696,5.4617,5.377,5.2205,5.1426,5.1426,5.1426,5.1426,0.0,0.0,0.0,0.0,0.0,0.0,0.0,0.0,0.0,0.0,0.0,0.0,0.0,0.0,0.0,0.0,0.0,0.0,0.0,0.0,0.0,0.0,0.0,0.0,0.0,0.0,0.0,0.0,0.0,0.0,0.0,0.0,8.8754,8.6512,8.6297,8.6288,8.6249,8.5171,8.464,8.464,8.464,8.464,8.464,8.464,0.0,0.0,0.0,0.0,0.0,7.8584,7.7213,7.6925,7.5502,7.4869,7.4869,7.4869,7.4869,7.4869,7.4869,7.4869,7.4869,7.4869,7.4869,7.4869,7.4869,7.4869,7.4869,7.4779,7.4749,7.4206,7.2228,7.1531,7.0564,6.6687,6.5677,6.5093,6.3162,6.2822,6.2822,6.2822,6.2822,6.2822,6.2822,6.2822,6.3086,6.3665,6.4144,6.4678,6.5246,6.5814,6.6112,6.6112,6.6112,6.6112,6.6112,6.6112,6.6112,6.6112,6.6112,6.4974,6.264,6.2268,5.9972,5.5088,5.4894,5.377,5.1426,5.1426,5.1426,5.1426,5.1426,5.1426,8.347,0.0,8.4255,8.3928,8.3582,8.3245,0.0,0.0,0.0,0.0,0.0,0.0,0.0,0.0,0.0,0.0,0.0,0.0,0.0,0.0,0.0,0.0,0.0,0.0,0.0,0.0,0.0,0.0,0.0,0.0,0.0,0.0,8.6961,8.6414,8.5548,8.507,8.5002,8.4788,8.464,8.464,8.464,8.464,8.464,8.464,0.0,0.0,0.0,0.0,7.8418,7.7575,7.6546,7.5472,7.5096,7.4869,7.4869,7.4869,7.4869,7.4869,7.4869,7.4869,7.4869,7.4869,7.4869,7.4869,7.4869,7.4869,7.4552,7.2975,7.2601,7.2198,7.0097,6.8364,6.7031,6.6114,6.4562,6.3401,6.2873,6.2822,6.2822,6.2822,6.2822,6.2822,6.2822,6.2822,6.3086,6.3665,6.4144,6.4678,6.5246,6.5814,6.6112,6.6112,6.6112,6.6112,6.6112,6.6112,6.6112,6.6112,6.6112,6.4974,6.264,6.0662,5.8166,5.5129,5.3261,5.1971,5.1426,5.1426,5.1426,5.1426,5.1426,5.1426,8.2203,8.2732,8.2647,8.2279,8.2186,8.2186,8.2186,0.0,0.0,0.0,0.0,0.0,0.0,0.0,0.0,0.0,0.0,0.0,0.0,0.0,0.0,0.0,0.0,0.0,0.0,0.0,0.0,0.0,0.0,0.0,0.0,0.0,8.6152,8.5617,8.4995,8.464,8.464,8.464,8.464,8.464,8.464,8.464,8.4533,8.3843,0.0,0.0,0.0,0.0,7.7213,7.6516,7.576,7.4869,7.4869,7.4869,7.4869,7.4869,7.4869,7.4869,7.4869,7.4869,7.4869,7.4869,7.4869,7.4779,7.3831,7.3516,7.326,7.2228,7.1194,7.0091,6.802,6.6708,6.5625,6.4587,6.364,6.2822,6.2822,6.2822,6.2822,6.2822,6.2822,6.2822,6.2822,6.2822,6.3086,6.3665,6.4143,6.4687,6.5171,6.5814,6.6112,6.6112,6.6112,6.6112,6.6112,6.6112,6.5567,6.4432,6.4407,6.291,5.9335,5.7875,5.5939,5.3516,5.1991,5.1426,5.1426,5.1426,5.1426,5.1426,5.1426,5.1426,8.1746,8.237,8.2517,8.226,8.2186,8.2186,8.2186,0.0,0.0,0.0,0.0,0.0,0.0,0.0,0.0,0.0,0.0,0.0,0.0,0.0,0.0,0.0,0.0,0.0,0.0,0.0,0.0,0.0,0.0,0.0,0.0,0.0,0.0,8.4606,8.464,8.464,8.464,8.464,8.464,8.464,8.4312,8.427,8.4195,8.2518,8.1695,0.0,0.0,0.0,7.6834,7.5472,7.4869,7.4869,7.4869,7.4869,7.4869,7.4869,7.4869,7.4869,7.4869,7.4869,7.4869,7.4869,7.4749,7.4147,7.2483,7.14,7.0931,7.0931,6.9661,6.7998,6.5943,6.5385,6.4853,6.3162,6.2822,6.2822,6.2822,6.2822,6.2822,6.2822,6.2822,6.2822,6.2822,6.2822,6.2898,6.3451,6.4031,6.4716,6.5193,6.5789,6.6112,6.6112,6.6112,6.6112,6.6112,6.6112,6.4949,6.2127,6.2312,6.0288,5.5269,5.4779,5.3536,5.1445,5.1426,5.1426,5.1426,5.1426,5.1426,5.1426,5.1426,5.1426,8.1746,8.3177,8.3911,8.2553,8.2186,8.2186,8.2186,0.0,0.0,0.0,0.0,0.0,0.0,0.0,0.0,0.0,0.0,0.0,0.0,0.0,0.0,0.0,0.0,0.0,0.0,0.0,0.0,0.0,0.0,0.0,0.0,0.0,0.0,8.464,8.464,8.464,8.464,8.464,8.464,8.464,8.3186,8.252,8.2487,8.0867,7.9353,0.0,0.0,7.6505,7.5215,7.4929,7.4869,7.4869,7.4869,7.4869,7.4869,7.4869,7.4869,7.4869,7.4869,7.4869,7.4869,7.4869,7.3801,7.2287,7.1973,6.9448,6.6687,6.6687,6.6547,6.5728,6.3741,6.3187,6.3162,6.2847,6.2822,6.2822,6.2822,6.2822,6.2822,6.2822,6.2822,6.2822,6.2822,6.2822,6.2847,6.2873,6.3905,6.45,6.4651,6.5517,6.6112,6.6112,6.6112,6.6112,6.6112,6.6112,6.4137,5.9648,6.1281,6.0181,5.5237,5.3174,5.1718,5.1426,5.1426,5.1426,5.1426,5.1426,5.1426,5.1426,5.1426,5.1426,8.1232,8.2406,8.3324,8.3471,8.4168,8.4792,8.4792,0.0,0.0,0.0,0.0,0.0,0.0,0.0,0.0,0.0,0.0,0.0,0.0,0.0,0.0,0.0,0.0,0.0,0.0,0.0,0.0,0.0,0.0,0.0,0.0,0.0,0.0,0.0,8.464,8.464,8.464,8.3784,8.3265,8.3241,8.2595,8.1723,8.0861,7.9194,7.8009,7.732,0.0,7.554,7.4869,7.4869,7.4869,7.4869,7.4869,7.4869,7.4869,7.4869,7.4869,7.4869,7.4869,7.4869,7.4779,7.3575,7.2601,7.1539,6.9235,6.7344,6.5625,6.4511,6.422,6.3981,6.3086,6.2822,6.2822,6.2822,6.2822,6.2822,6.2822,6.2822,6.2822,6.2822,6.2822,6.2822,6.2822,6.2822,6.2822,6.2822,6.3451,6.4183,6.443,6.5221,6.5814,6.6112,6.6112,6.6112,6.6112,6.4925,6.2569,5.8948,5.7292,5.5426,5.3261,5.1971,5.1426,5.1426,5.1426,5.1426,5.1426,5.1426,5.1426,5.1426,5.1426,5.1426,8.0791,8.1856,8.3067,8.4278,8.5233,8.6077,8.6848,0.0,0.0,0.0,0.0,0.0,0.0,0.0,0.0,0.0,0.0,0.0,0.0,0.0,0.0,0.0,0.0,0.0,0.0,0.0,0.0,0.0,0.0,0.0,0.0,0.0,0.0,0.0,8.464,8.4392,8.4035,8.2784,8.2198,8.2131,8.1375,8.0459,7.9201,7.7437,7.6763,7.6606,7.5472,7.4869,7.4869,7.4869,7.4869,7.4869,7.4869,7.4869,7.4869,7.4869,7.4869,7.4761,7.4416,7.4179,7.3861,7.1885,7.0865,6.9838,6.6687,6.5436,6.4802,6.3162,6.2822,6.2822,6.2822,6.2822,6.2822,6.2822,6.2822,6.2822,6.2822,6.2822,6.2822,6.2822,6.2822,6.2822,6.2822,6.2822,6.2822,6.2822,6.3376,6.3791,6.4274,6.4922,6.5517,6.5839,6.6086,6.5839,6.5271,6.3016,6.0615,5.817,5.3811,5.1426,5.1426,5.1426,5.1426,5.1426,5.1426,5.1426,5.1426,5.1426,5.1426,5.1426,5.1426,5.1426,8.0791,8.27,8.4462,8.4572,8.3544,0.0,8.6334,8.5857,0.0,0.0,0.0,0.0,0.0,0.0,0.0,0.0,0.0,0.0,0.0,0.0,0.0,0.0,0.0,0.0,0.0,0.0,0.0,0.0,0.0,0.0,0.0,0.0,0.0,0.0,0.0,8.3893,8.2345,8.2297,8.2181,8.2116,7.9097,7.7574,7.7408,7.5789,7.5036,7.5125,7.4899,7.4869,7.4869,7.4869,7.4869,7.4869,7.4869,7.4869,7.4869,7.4869,7.4869,7.4575,7.2715,7.2057,7.1855,6.9757,6.7838,6.6172,6.584,6.4511,6.3061,6.2847,6.2822,6.2822,6.2822,6.2822,6.2822,6.2822,6.2822,6.2822,6.2822,6.2822,6.2822,6.2822,6.2822,6.2822,6.2822,6.2822,6.2822,6.2822,6.3376,6.3741,6.3678,6.4612,6.5271,6.5296,6.5814,6.5221,6.2958,6.0429,5.8042,5.5426,5.2772,5.1426,5.1426,5.1426,5.1426,5.1426,5.1426,5.1426,5.1426,5.1426,5.1426,5.1426,5.1426,5.1426,8.0167,8.237,8.4609,8.4609,8.4132,0.0,0.0,8.8023,0.0,0.0,0.0,0.0,0.0,0.0,0.0,0.0,0.0,0.0,0.0,0.0,0.0,0.0,0.0,0.0,0.0,0.0,0.0,0.0,0.0,0.0,0.0,0.0,0.0,0.0,8.3674,8.283,8.223,8.0142,7.916,7.9157,7.7841,7.6843,7.5863,7.5112,7.4869,7.4869,7.4869,7.4869,7.4869,7.4869,7.4869,7.4869,7.4869,7.4869,7.4869,7.4869,7.4869,7.4654,7.2576,7.1869,7.1311,6.7973,6.6398,6.5625,6.4271,6.3401,6.2822,6.2822,6.2822,6.2822,6.2822,6.2822,6.2822,6.2822,6.2822,6.2822,6.2822,6.2822,6.2822,6.2822,6.2822,6.2822,6.2822,6.2822,6.2822,6.2822,6.3061,6.335,6.3665,6.4107,6.458,6.5146,6.4407,6.2934,6.0448,5.7951,5.5406,5.2987,5.1952,5.1426,5.1426,5.1426,5.1426,5.1426,5.1426,5.1426,5.1426,5.1426,5.1426,5.1426,5.1426,5.1426,7.9396,8.1415,8.3581,0.0,0.0,0.0,8.8683,8.9014,8.894,0.0,0.0,0.0,0.0,0.0,0.0,0.0,0.0,0.0,0.0,0.0,0.0,0.0,0.0,0.0,0.0,0.0,0.0,0.0,0.0,0.0,0.0,0.0,0.0,0.0,8.2345,8.1239,8.0615,7.8408,7.7061,7.6568,7.6561,7.591,7.4869,7.4869,7.4869,7.4869,7.4869,7.4869,7.4869,7.4869,7.4869,7.4869,7.4869,7.4869,7.4869,7.412,7.3951,7.3533,7.0922,7.0016,6.9401,6.6003,6.4827,6.4562,6.3162,6.2822,6.2822,6.2822,6.2822,6.2822,6.2822,6.2822,6.2822,6.2822,6.2822,6.2822,6.2822,6.2822,6.2822,6.2822,6.2822,6.2822,6.2822,6.2822,6.2822,6.2822,6.2822,6.2898,6.3376,6.364,6.3726,6.4135,6.2958,6.0892,5.7872,5.6081,5.4066,5.1465,5.1426,5.1426,5.1426,5.1426,5.1426,5.1426,5.1426,5.1426,5.1426,5.1426,5.1426,5.1426,5.1426,5.1406,7.8589,0.0,0.0,0.0,0.0,0.0,0.0,8.8169,8.7949,0.0,0.0,0.0,0.0,0.0,0.0,0.0,0.0,0.0,0.0,0.0,0.0,0.0,0.0,0.0,0.0,0.0,0.0,0.0,0.0,0.0,0.0,0.0,0.0,0.0,8.0647,7.8941,7.729,7.729,7.6436,7.4869,7.4869,7.4869,7.4869,7.4869,7.4869,7.4869,7.4869,7.4869,7.4869,7.4869,7.4869,7.4869,7.4869,7.4869,7.4564,7.2599,7.1856,7.125,6.7188,6.5788,6.5421,6.3483,6.2822,6.2822,6.2822,6.2822,6.2822,6.2822,6.2822,6.2822,6.2822,6.2822,6.2822,6.2822,6.2822,6.2822,6.2822,6.2822,6.2822,6.2822,6.2822,6.2822,6.2822,6.2822,6.2822,6.2822,6.2822,6.2822,6.2822,6.335,6.3119,6.1641,6.1566,5.9847,5.5545,5.5108,5.4046,5.1465,5.1426,5.1426,5.1426,5.1426,5.1426,5.1426,5.1426,5.1426,5.1426,5.1426,5.1426,5.1426,5.1426,5.1173,7.9433,0.0,0.0,0.0,0.0,0.0,0.0,8.905,0.0,0.0,0.0,0.0,0.0,0.0,0.0,0.0,0.0,0.0,0.0,0.0,0.0,0.0,0.0,0.0,0.0,0.0,0.0,0.0,0.0,0.0,0.0,0.0,0.0,0.0,7.8909,7.7804,7.729,7.6202,7.5354,7.4869,7.4869,7.4869,7.4869,7.4869,7.4869,7.4869,7.4869,7.4869,7.4869,7.4869,7.4869,7.4731,7.3363,7.277,7.2599,7.0521,6.9783,6.9337,6.6752,6.5781,6.5402,6.3491,6.2822,6.2822,6.2822,6.2822,6.2822,6.2822,6.2822,6.2822,6.2822,6.2822,6.2822,6.2822,6.2822,6.2822,6.2822,6.2822,6.2822,6.2822,6.2822,6.2822,6.2822,6.2822,6.2822,6.2822,6.2822,6.2245,6.0621,6.0908,6.0392,5.8332,5.6933,5.5641,5.4771,5.3027,5.1932,5.1445,5.1426,5.1426,5.1426,5.1426,5.1426,5.1426,5.1426,5.1426,5.1426,5.1426,5.1192,5.094,5.094,5.0687,0.0,0.0,0.0,0.0,0.0,0.0,0.0,0.0,0.0,0.0,0.0,0.0,0.0,0.0,0.0,0.0,0.0,0.0,0.0,0.0,0.0,0.0,0.0,0.0,0.0,0.0,0.0,0.0,0.0,0.0,0.0,0.0,0.0,0.0,7.7191,7.6335,7.6335,7.5354,7.4869,7.4869,7.4869,7.4869,7.4869,7.4869,7.4869,7.4869,7.4869,7.4869,7.4869,7.4869,7.4426,7.3672,7.2314,7.1423,7.0521,6.8435,6.7675,6.7368,6.524,6.4559,6.4482,6.3245,6.2822,6.2822,6.2822,6.2822,6.2822,6.2822,6.2822,6.2822,6.2822,6.2822,6.2822,6.2822,6.2822,6.2822,6.2822,6.2822,6.2822,6.2822,6.2822,6.2822,6.2822,6.2822,6.2822,6.2822,6.2007,6.0908,5.9552,5.8709,5.7699,5.5423,5.4217,5.3263,5.2741,5.1326,5.0668,5.092,5.092,5.092,5.092,5.1192,5.1426,5.1426,5.1426,5.1406,5.1173,5.1173,5.094,5.0629,5.0492,5.0391,0.0,0.0,0.0,0.0,0.0,0.0,0.0,0.0,0.0,0.0,0.0,0.0,0.0,0.0,0.0,0.0,0.0,0.0,0.0,0.0,0.0,0.0,0.0,0.0,0.0,0.0,0.0,0.0,0.0,0.0,0.0,0.0,0.0,0.0,7.5594,7.4869,7.4869,7.4869,7.4869,0.0,7.4869,7.4869,7.4869,7.4869,7.4869,7.4869,7.4869,7.4869,7.4869,7.4869,7.3672,7.1856,7.1712,7.0374,6.8435,6.6312,6.5556,6.524,6.3423,6.2822,6.2822,6.2822,6.2822,6.2822,6.2822,6.2822,6.2822,6.2822,6.2822,6.2822,6.2822,6.2822,6.2822,6.2822,6.2822,6.2822,6.2822,6.2822,6.2822,6.2822,6.2822,6.2822,6.2822,6.2822,6.2797,6.2534,6.067,5.9177,5.8663,5.6907,5.4705,5.2847,5.2621,5.1862,5.031,5.0064,5.0166,5.0185,5.0185,5.0185,5.0185,5.0862,5.1212,5.1212,5.1212,5.1173,5.0687,5.0765,5.0455,5.0146,5.0102,4.9842,0.0,0.0,0.0,0.0,0.0,0.0,0.0,0.0,0.0,0.0,0.0,0.0,0.0,0.0,0.0,0.0,0.0,0.0,0.0,0.0,0.0,0.0,0.0,0.0,0.0,0.0,0.0,0.0,0.0,0.0,0.0,0.0,0.0,7.5489,7.5142,7.4869,7.4869,7.4869,7.4869,0.0,7.4869,7.4869,7.4869,7.4869,7.4869,7.4869,7.4869,7.4869,7.4869,7.4869,7.3672,7.1712,7.0227,6.8284,6.6156,6.4177,6.3423,6.3423,6.2985,6.2822,6.2822,6.2822,6.2822,6.2822,6.2822,6.2822,6.2822,6.2822,6.2822,6.2822,6.2822,6.2822,6.2822,6.2822,6.2822,6.2822,6.2822,6.2822,6.2822,6.2822,6.2822,6.2822,6.2822,6.2822,6.2245,6.036,5.9601,5.8045,5.4402,5.3373,5.2333,5.0066,4.9822,4.9802,4.9598,4.9669,4.9885,5.0151,5.0171,5.0171,5.0171,5.0433,5.0416,5.0416,5.0416,5.0416,5.0377,5.0326,5.0131,4.964,4.9736,4.9354,0.0,0.0,0.0,0.0,0.0,0.0,0.0,0.0,0.0,0.0,0.0,0.0,0.0,0.0,0.0,0.0,0.0,0.0,0.0,0.0,0.0,0.0,0.0,0.0,0.0,0.0,0.0,0.0,0.0,0.0,0.0,7.6568,7.5728,7.4869,7.4869,7.4869,7.4869,7.4869,7.4869,7.4869,7.4869,7.4869,7.4869,7.4869,7.4869,7.4869,7.4869,7.4426,7.3503,7.3503,7.1712,6.886,6.7827,6.6156,6.4177,6.3123,6.2822,6.2822,6.2822,6.2822,6.2822,6.2822,6.2822,6.2822,6.2822,6.2822,6.2822,6.2822,6.2822,6.2822,6.2822,6.2822,6.2822,6.2822,6.2822,6.2822,6.2822,6.2822,6.2822,6.2822,6.2822,6.2822,6.2822,6.2822,6.232,6.117,6.0026,5.8105,5.4429,5.3114,5.1555,4.911,4.8867,4.9071,4.911,4.913,4.9334,4.9578,4.9578,4.9578,4.9578,4.95,4.9718,5.0195,5.0195,5.0176,4.9928,4.9807,4.9598,4.913,4.913,4.9091,0.0,0.0,0.0,0.0,0.0,0.0,0.0,0.0,0.0,0.0,0.0,0.0,0.0,0.0,0.0,0.0,0.0,0.0,0.0,0.0,0.0,0.0,0.0,0.0,0.0,0.0,0.0,0.0,0.0,0.0,7.6931,7.5594,7.4869,7.4869,7.4869,7.4869,7.4869,7.4869,7.4869,7.4869,7.4869,7.4869,7.4869,7.4869,7.4731,7.4426,7.4426,7.3222,7.1423,7.1423,6.916,6.5844,6.5844,6.4631,6.2822,6.2822,6.2822,6.2822,6.2822,6.2822,6.2822,6.2822,6.2822,6.2822,6.2822,6.2822,6.2822,6.2822,6.2822,6.2822,6.2822,6.2822,6.2822,6.2822,6.2822,6.2822,6.2822,6.2822,6.2822,6.2822,6.2822,6.2822,6.2822,6.2822,6.2559,6.1744,5.9923,5.7782,5.4913,5.2944,5.1085,4.9091,4.8867,4.8867,4.8867,4.8867,4.8867,4.8867,4.8867,4.8867,4.8867,4.8867,4.9315,5.0046,5.0046,4.9822,4.9354,4.9354,4.9315,4.8867,4.8867,4.8867,0.0,0.0,0.0,0.0,0.0,0.0,0.0,0.0,0.0,0.0,0.0,0.0,0.0,0.0,0.0,0.0,0.0,0.0,0.0,0.0,0.0,0.0,0.0,0.0,0.0,0.0,0.0,0.0,0.0,0.0,7.5218,7.5006,7.4869,7.4869,7.4869,7.4869,7.4869,7.4869,7.4869,7.4869,7.4869,7.4869,7.4869,7.4869,7.3951,7.2314,7.2314,7.1133,6.9337,6.9337,6.798,6.5844,6.5844,6.4631,6.2822,6.2822,6.2822,6.2822,6.2822,6.2822,6.2822,6.2822,6.2822,6.2822,6.2822,6.2822,6.2822,6.2822,6.2822,6.2822,6.2822,6.2822,6.2822,6.2822,6.2822,6.2822,6.2822,6.2822,6.2822,6.2822,6.2822,6.2822,6.2822,6.2822,6.1457,5.7452,5.6513,5.4819,5.0429,4.9481,4.9315,4.8867,4.8867,4.8867,4.8867,4.8867,4.8867,4.8867,4.8867,4.8867,4.8867,4.8867,4.8867,4.9091,4.9091,4.9071,4.9071,4.9071,4.8867,4.8867,4.8867,4.8867,0.0,0.0,0.0,0.0,0.0,0.0,0.0,0.0,0.0,0.0,0.0,0.0,0.0,0.0,0.0,0.0,0.0,0.0,0.0,0.0,0.0,0.0,0.0,0.0,0.0,0.0,0.0,0.0,0.0,7.5594,7.5006,7.4869,7.4869,7.4869,7.4869,7.4869,7.4869,7.4869,7.4869,7.4869,7.4869,7.4869,7.4869,7.3672,7.277,7.1856,7.1856,7.0051,6.7215,6.7215,6.6,6.4203,6.4203,6.3584,6.2822,6.2822,6.2822,6.2822,6.2822,6.2822,6.2822,6.2822,6.2822,6.2822,6.2822,6.2822,6.2822,6.2822,6.2822,6.2822,6.2822,6.2822,6.2822,6.2822,6.2822,6.2822,6.2822,6.2822,6.2822,6.2822,6.2822,6.232,6.1145,6.0883,5.9788,5.642,5.5904,5.4697,5.1387,5.078,5.033,4.9071,4.8867,4.8867,4.8867,4.8867,4.8867,4.8867,4.8867,4.8867,4.8867,4.8867,4.8867,4.8867,4.8867,4.8867,4.8867,4.8867,4.8867,4.8867,4.8867,4.8867,0.0,0.0,0.0,0.0,0.0,0.0,0.0,0.0,0.0,0.0,0.0,0.0,0.0,0.0,0.0,0.0,0.0,0.0,0.0,0.0,0.0,0.0,0.0,0.0,0.0,0.0,0.0,0.0,0.0,7.4869,7.4869,7.4869,7.4869,7.4869,7.4869,7.4869,7.4869,7.4869,7.4869,7.4869,7.4426,7.412,7.412,7.1999,7.0813,7.0346,7.0346,6.8408,6.5082,6.5082,6.4177,6.2822,6.2822,6.2822,6.2822,6.2822,6.2822,6.2822,6.2822,6.2822,6.2822,6.2822,6.2822,6.2822,6.2822,6.2822,6.2822,6.2822,6.2822,6.2822,6.2822,6.2822,6.2822,6.2822,6.2822,6.2822,6.2822,6.2822,6.2822,6.2822,6.2822,6.227,6.0433,5.9618,5.8564,5.623,5.5445,5.4166,5.1842,5.1575,5.084,4.9091,4.8867,4.8867,4.8867,4.8867,4.8867,4.8867,4.8867,4.8867,4.8867,4.8867,4.8867,4.8867,4.8867,4.8867,4.8867,4.8867,4.8867,4.8867,4.8867,4.8867,0.0,0.0,0.0,0.0,0.0,0.0,0.0,0.0,0.0,0.0,0.0,0.0,0.0,0.0,0.0,0.0,0.0,0.0,0.0,0.0,0.0,0.0,0.0,0.0,0.0,0.0,0.0,0.0,0.0,7.4869,7.4869,7.4869,7.4869,7.4869,7.4869,7.4869,7.4869,7.4869,7.4869,7.4869,7.2911,7.1999,7.1999,6.9931,6.798,6.6156,6.6156,6.4949,6.2985,6.2985,6.2822,6.2822,6.2822,6.2822,6.2822,6.2822,6.2822,6.2822,6.2822,6.2822,6.2822,6.2822,6.2822,6.2822,6.2822,6.2822,6.2822,6.2822,6.2822,6.2822,6.2822,6.2822,6.2822,6.2822,6.2822,6.2822,6.2822,6.2822,6.2822,6.2822,6.2822,6.2822,6.2609,6.0813,5.8586,5.6208,5.4019,5.1821,4.9354,4.9091,4.9071,4.8867,4.8867,4.8867,4.8867,4.8867,4.8867,4.8867,4.8867,4.8867,4.8867,4.8867,4.8867,4.8867,4.8867,4.8867,4.8867,4.8867,4.8867,4.8867,4.8867,4.8867,8.1699,0.0,0.0,0.0,0.0,0.0,0.0,0.0,0.0,0.0,0.0,0.0,0.0,0.0,0.0,0.0,0.0,0.0,0.0,0.0,0.0,0.0,0.0,0.0,0.0,0.0,0.0,0.0,0.0,0.0,7.4869,7.4869,7.4869,7.4869,7.4869,7.4869,7.4869,7.4869,7.4869,7.4869,7.2911,7.1856,7.1856,6.8408,6.6441,6.5687,6.4497,6.3423,6.2822,6.2822,6.2822,6.2822,6.2822,6.2822,6.2822,6.2822,6.2822,6.2822,6.2822,6.2822,6.2822,6.2822,6.2822,6.2822,6.2822,6.2822,6.2822,6.2822,6.2822,6.2822,6.2822,6.2822,6.2822,6.2822,6.2822,6.2822,6.2822,6.2822,6.2822,6.2822,6.1506,6.0098,5.8536,5.6359,5.4084,5.1719,5.0615,4.9842,4.9071,4.8867,4.8867,4.8867,4.8867,4.8867,4.8867,4.8867,4.8867,4.8867,4.8867,4.8867,4.8867,4.8867,4.8867,4.8867,4.8867,4.8867,4.8867,4.8867,4.8867,4.8867,4.8867,4.8867,8.0501,7.9702,0.0,0.0,0.0,0.0,0.0,0.0,0.0,0.0,0.0,0.0,0.0,0.0,0.0,0.0,0.0,0.0,0.0,0.0,0.0,0.0,0.0,0.0,0.0,0.0,0.0,0.0,0.0,0.0,7.4869,7.4869,7.4869,7.4869,7.4869,7.4869,7.4869,7.4869,7.4564,7.3812,7.1856,7.0521,6.9755,6.6286,6.479,6.479,6.3423,6.2822,6.2822,6.2822,6.2822,6.2822,6.2822,6.2822,6.2822,6.2822,6.2822,6.2822,6.2822,6.2822,6.2822,6.2822,6.2822,6.2822,6.2822,6.2822,6.2822,6.2822,6.2822,6.2822,6.2822,6.2822,6.2822,6.2822,6.2822,6.2584,6.1769,6.227,6.2559,6.1769,6.0384,5.8543,5.6244,5.3957,5.1936,5.0214,4.9354,4.8867,4.8867,4.8867,4.8867,4.8867,4.8867,4.8867,4.8867,4.8867,4.8867,4.8867,4.8867,4.8867,4.8867,4.8867,4.8867,4.8867,4.8867,4.8867,4.8867,4.8867,4.8867,4.8867,4.8867,4.8867,0.0,0.0,0.0,0.0,0.0,0.0,0.0,0.0,0.0,0.0,0.0,0.0,0.0,0.0,0.0,0.0,0.0,0.0,0.0,0.0,0.0,0.0,0.0,0.0,0.0,0.0,0.0,0.0,0.0,7.4869,7.4869,7.4869,7.4869,7.4869,7.4869,7.4869,7.4869,7.4869,7.3812,7.1856,6.9783,6.7827,6.5687,6.3746,6.2822,6.2822,6.2822,6.2822,6.2822,6.2822,6.2822,6.2822,6.2822,6.2822,6.2822,6.2822,6.2822,6.2822,6.2822,6.2822,6.2822,6.2822,6.2822,6.2822,6.2822,6.2822,6.2822,6.2822,6.2822,6.2822,6.2822,6.2822,6.2822,6.2822,6.2797,6.2032,5.9813,6.1055,6.1918,5.9625,5.9152,5.8422,5.6108,5.3877,5.2333,5.2333,5.033,4.8867,4.8867,4.8867,4.8867,4.8867,4.8867,4.8867,4.8867,4.8867,4.8867,4.8867,4.8867,4.8867,4.8867,4.8867,4.8867,4.8867,4.8867,4.8867,4.8867,4.8867,4.8867,4.8867,4.8867,4.8867,7.7822,0.0,0.0,0.0,0.0,0.0,0.0,0.0,0.0,0.0,0.0,0.0,0.0,0.0,0.0,0.0,0.0,0.0,0.0,0.0,0.0,0.0,0.0,0.0,0.0,0.0,0.0,0.0,7.4869,7.4869,7.4869,7.4869,7.4869,7.4869,7.4869,7.4869,7.4869,7.4869,7.3812,7.1856,6.9783,6.7827,6.5687,6.3746,6.2822,6.2822,6.2822,6.2822,6.2822,6.2822,6.2822,6.2822,6.2822,6.2822,6.2822,6.2822,6.2822,6.2822,6.2822,6.2822,6.2822,6.2822,6.2822,6.2822,6.2822,6.2822,6.2822,6.2822,6.2822,6.2822,6.2822,6.2822,6.2822,6.2822,6.1481,6.0098,5.9364,5.8446,5.7679,5.6913,5.5401,5.4101,5.3462,5.135,4.9842,4.9842,4.9334,4.8867,4.8867,4.8867,4.8867,4.8867,4.8867,4.8867,4.8867,4.8867,4.8867,4.8867,4.8867,4.8867,4.8867,4.8867,4.8867,4.8867,4.8867,4.8867,4.8867,4.8867,4.8867,4.8867,4.8867,4.8867,7.6747,7.6207,7.5709,0.0,0.0,0.0,0.0,7.9566,0.0,0.0,0.0,0.0,0.0,0.0,0.0,0.0,0.0,0.0,0.0,0.0,0.0,0.0,0.0,0.0,0.0,0.0,0.0,7.4869,7.4869,7.4869,7.4869,7.4869,7.4869,7.4869,7.4869,7.4869,7.4869,7.412,7.2628,7.0667,6.8586,6.6468,6.4497,6.3286,6.2822,6.2822,6.2822,6.2822,6.2822,6.2822,6.2822,6.2822,6.2822,6.2822,6.2822,6.2822,6.2822,6.2822,6.2822,6.2822,6.2822,6.2822,6.2822,6.2822,6.2822,6.2822,6.2822,6.2822,6.2822,6.2822,6.2822,6.2822,6.247,6.1598,6.0252,5.88,5.6764,5.5402,5.4454,5.4476,5.3272,5.2087,5.1085,4.9822,4.8867,4.8867,4.8867,4.8867,4.8867,4.8867,4.8867,4.8867,4.8867,4.8867,4.8867,4.8867,4.8867,4.8867,4.8867,4.8867,4.8867,4.8867,4.8867,4.8867,4.8867,4.8867,4.8867,4.8867,4.8867,4.8867,4.8867,4.8867,7.5994,7.5709,7.5709,0.0,0.0,0.0,7.9092,7.9701,8.0479,0.0,0.0,0.0,0.0,0.0,0.0,0.0,0.0,0.0,0.0,0.0,0.0,0.0,0.0,0.0,0.0,7.4869,7.4869,7.4869,7.4869,7.4869,7.4869,7.4869,7.4869,7.4869,7.4869,7.4869,7.4869,7.2911,7.0813,6.8888,6.6752,6.479,6.2822,6.2822,6.2822,6.2822,6.2822,6.2822,6.2822,6.2822,6.2822,6.2822,6.2822,6.2822,6.2822,6.2822,6.2822,6.2822,6.2822,6.2822,6.2822,6.2822,6.2822,6.2822,6.2822,6.2822,6.2822,6.2822,6.2822,6.2659,6.247,6.2331,6.1787,5.9427,5.8783,5.7355,5.3256,5.2132,5.2067,5.2067,5.2067,5.133,4.9315,4.8867,4.8867,4.8867,4.8867,4.8867,4.8867,4.8867,4.8867,4.8867,4.8867,4.8867,4.8867,4.8867,4.8867,4.8867,4.8867,4.8867,4.8867,4.8867,4.8867,4.8867,4.8867,4.8867,4.8867,4.8867,4.8867,4.8867,4.8867,4.8867,0.0,0.0,0.0,0.0,0.0,0.0,7.6454,7.6589,7.7096,0.0,0.0,0.0,0.0,0.0,0.0,0.0,0.0,0.0,0.0,0.0,0.0,0.0,0.0,0.0,0.0,7.4869,7.4869,7.4869,7.4869,7.4869,7.4869,7.4869,7.4869,7.4869,7.4869,7.4869,7.4869,7.2911,7.0813,6.8888,6.6752,6.479,6.2822,6.2822,6.2822,6.2822,6.2822,6.2822,6.2822,6.2822,6.2822,6.2822,6.2822,6.2822,6.2822,6.2822,6.2822,6.2822,6.2822,6.2822,6.2822,6.2822,6.2822,6.2822,6.2822,6.2822,6.2822,6.2822,6.2822,6.2306,6.0528,6.0003,5.9473,5.7098,5.5202,5.3539,5.2673,5.0843,4.9578,4.9578,4.9578,4.9354,4.9071,4.8867,4.8867,4.8867,4.8867,4.8867,4.8867,4.8867,4.8867,4.8867,4.8867,4.8867,4.8867,4.8867,4.8867,4.8867,4.8867,4.8867,4.8867,4.8867,4.8867,4.8867,4.8867,4.8867,4.8867,4.8867,4.8867,4.8867,4.8867,4.8867,0.0,0.0,0.0,7.5709,0.0,0.0,0.0,7.6826,7.7266,0.0,0.0,0.0,0.0,0.0,0.0,0.0,0.0,0.0,0.0,0.0,0.0,0.0,0.0,0.0,0.0,7.4869,7.4869,7.4869,7.4869,7.4869,7.4869,7.4869,7.4869,7.4869,7.4869,7.4426,7.3363,7.1423,6.9337,6.7368,6.524,6.372,6.2822,6.2822,6.2822,6.2822,6.2822,6.2822,6.2822,6.2822,6.2822,6.2822,6.2822,6.2822,6.2822,6.2822,6.2822,6.2822,6.2822,6.2822,6.2822,6.2822,6.2822,6.2822,6.2822,6.2822,6.2495,6.1408,6.1076,6.0553,5.8119,5.7527,5.6987,5.4696,5.3244,5.2132,5.0883,4.9802,4.8867,4.8867,4.8867,4.8867,4.8867,4.8867,4.8867,4.8867,4.8867,4.8867,4.8867,4.8867,4.8867,4.8867,4.8867,4.8867,4.8867,4.8867,4.8867,4.8867,4.8867,4.8867,4.8867,4.8867,4.8867,4.8867,4.8867,4.8867,4.8867,4.8867,4.8867,4.8867,4.8867,4.8867,0.0,0.0,0.0,0.0,0.0,7.6014,0.0,0.0,0.0,0.0,0.0,0.0,0.0,0.0,0.0,0.0,0.0,0.0,0.0,0.0,0.0,0.0,0.0,0.0,0.0,7.448,7.4599,7.4869,7.4629,7.4599,7.4869,7.4869,7.4869,7.4869,7.4564,7.3503,7.1856,6.9486,6.7522,6.5844,6.372,6.2822,6.2822,6.2822,6.2822,6.2822,6.2822,6.2822,6.2822,6.2822,6.2822,6.2822,6.2822,6.2822,6.2822,6.2822,6.2822,6.2822,6.2822,6.2822,6.2822,6.2822,6.2822,6.2659,6.2306,6.2117,6.1598,5.933,5.863,5.8096,5.5879,5.5158,5.4588,5.2366,5.1768,5.1162,4.9262,4.8867,4.8867,4.8867,4.8867,4.8867,4.8867,4.8867,4.8867,4.8867,4.8867,4.8867,4.8867,4.8867,4.8867,4.8867,4.8867,4.8867,4.8867,4.8867,4.8867,4.8867,4.8867,4.8867,4.8867,4.8867,4.8867,4.8867,4.8867,4.8867,4.8867,4.8867,4.8867,4.8867,4.8867,4.8867,0.0,0.0,0.0,0.0,7.5709,0.0,0.0,0.0,0.0,0.0,0.0,0.0,0.0,0.0,0.0,0.0,0.0,0.0,0.0,0.0,0.0,0.0,0.0,0.0,0.0,0.0,7.3612,7.4779,7.3791,7.3642,7.4809,7.4869,7.4869,7.4869,7.3222,7.2142,7.1856,6.8105,6.6,6.5844,6.372,6.2822,6.2822,6.2822,6.2822,6.2822,6.2822,6.2822,6.2822,6.2822,6.2822,6.2822,6.2822,6.2822,6.2822,6.2822,6.2822,6.2822,6.2822,6.2822,6.2822,6.2822,6.2822,6.247,6.0362,5.9667,5.9138,5.6919,5.6226,5.5705,5.3437,5.2733,5.2292,4.9871,4.9341,4.9301,4.9032,4.8867,4.8867,4.8867,4.8867,4.8867,4.8867,4.8867,4.8867,4.8867,4.8867,4.8867,4.8867,4.8867,4.8867,4.8867,4.8867,4.8867,4.8867,4.8867,4.8867,4.8867,4.8867,4.8867,4.8867,4.8867,4.8867,4.8867,4.8867,4.8867,4.8867,4.8867,4.8867,4.8867,4.8867,4.8867,0.0,0.0,0.0,0.0,0.0,0.0,7.5912,0.0,7.5709,0.0,0.0,0.0,0.0,0.0,0.0,0.0,0.0,0.0,0.0,0.0,0.0,0.0,0.0,0.0,0.0,0.0,0.0,0.0,0.0,7.3492,7.4809,7.4869,7.4869,7.4869,7.2911,7.1423,7.0227,6.7215,6.524,6.4042,6.3123,6.2822,6.2822,6.2822,6.2822,6.2822,6.2822,6.2822,6.2822,6.2822,6.2822,6.2822,6.2822,6.2822,6.2822,6.2822,6.2822,6.2822,6.2822,6.2822,6.2822,6.2822,6.2822,6.2306,6.0003,5.9307,5.8606,5.4807,5.3948,5.3259,5.0964,5.0378,5.0156,4.9197,4.8867,4.8867,4.8867,4.8867,4.8867,4.8867,4.8867,4.8867,4.8867,4.8867,4.8867,4.8867,4.8867,4.8867,4.8867,4.8867,4.8867,4.8867,4.8867,4.8867,4.8867,4.8867,4.8867,4.8867,4.8867,4.8867,4.8867,4.8867,4.8867,4.8867,4.8867,4.8867,4.8867,4.8867,4.8867,4.8867,4.8867,4.8867,7.686,0.0,0.0,0.0,0.0,0.0,0.0,0.0,0.0,0.0,0.0,0.0,0.0,0.0,0.0,0.0,0.0,0.0,0.0,0.0,0.0,0.0,0.0,0.0,0.0,0.0,0.0,7.421,7.3103,7.3103,7.4779,7.4869,7.4869,7.4869,7.2456,7.0374,6.8888,6.6312,6.4177,6.2822,6.2822,6.2822,6.2822,6.2822,6.2822,6.2822,6.2822,6.2822,6.2822,6.2822,6.2822,6.2822,6.2822,6.2822,6.2822,6.2822,6.2822,6.2822,6.2822,6.2822,6.2659,6.2117,6.1787,6.1242,5.8266,5.7412,5.6528,5.2545,5.1507,5.0964,4.94,4.8867,4.8867,4.8867,4.8867,4.8867,4.8867,4.8867,4.8867,4.8867,4.8867,4.8867,4.8867,4.8867,4.8867,4.8867,4.8867,4.8867,4.8867,4.8867,4.8867,4.8867,4.8867,4.8867,4.8867,4.8867,4.8867,4.8867,4.8867,4.8867,4.8867,4.8867,4.8867,4.8867,4.8867,4.8867,4.8867,4.8867,4.8867,4.8867,4.8867,4.8867,0.0,0.0,0.0,7.6082,0.0,0.0,0.0,0.0,7.5258,0.0,0.0,0.0,0.0,0.0,6.9317,6.9201,0.0,0.0,0.0,0.0,0.0,0.0,0.0,0.0,0.0,0.0,0.0,7.2774,7.1727,7.2116,7.4749,7.4869,7.4869,7.4869,7.1133,6.8888,6.8888,6.4949,6.2822,6.2822,6.2822,6.2822,6.2822,6.2822,6.2822,6.2822,6.2822,6.2822,6.2822,6.2822,6.2822,6.2822,6.2822,6.2822,6.2822,6.2822,6.2822,6.2822,6.2822,6.2822,6.247,6.0194,5.9475,5.8606,5.3926,5.2545,5.2207,4.9748,4.9032,4.9032,4.8867,4.8867,4.8867,4.8867,4.8867,4.8867,4.8867,4.8867,4.8867,4.8867,4.8867,4.8867,4.8867,4.8867,4.8867,4.8867,4.8867,4.8867,4.8867,4.8867,4.8867,4.8867,4.8867,4.8867,4.8867,4.8867,4.8867,4.8867,4.8867,4.8867,4.8867,4.8867,4.8867,4.8867,4.8867,4.8867,4.8867,4.8867,4.8867,4.8867,4.8867,4.8867,0.0,0.0,7.7069,7.4766,0.0,0.0,0.0,0.0,0.0,0.0,0.0,0.0,0.0,0.0,6.7759,6.7759,6.7335,6.6999,0.0,0.0,0.0,0.0,0.0,0.0,0.0,0.0,0.0,7.2774,7.2505,7.3013,0.0,7.4869,7.4869,7.4869,7.0988,6.8888,6.8888,6.479,6.2822,6.2822,6.2822,6.2822,6.2822,6.2822,6.2822,6.2822,6.2822,6.2822,6.2822,6.2822,6.2822,6.2822,6.2822,6.2822,6.2822,6.2822,6.2822,6.2822,6.2822,6.2822,6.2659,6.1928,6.0553,5.8799,5.5705,5.3615,5.1847,4.9564,4.8867,4.8867,4.8867,4.8867,4.8867,4.8867,4.8867,4.8867,4.8867,4.8867,4.8867,4.8867,4.8867,4.8867,4.8867,4.8867,4.8867,4.8867,4.8867,4.8867,4.8867,4.8867,4.8867,4.8867,4.8867,4.8867,4.8867,4.8867,4.8867,4.8867,4.8867,4.8867,4.8867,4.8867,4.8867,4.8867,4.8867,4.8867,4.8867,4.8867,4.8867,4.8867,4.8867,4.8867,7.7996,7.7571,0.0,7.455,7.4793,0.0,7.2668,0.0,0.0,0.0,0.0,0.0,0.0,0.0,6.6999,6.6999,6.6999,6.6999,0.0,6.6999,0.0,0.0,0.0,0.0,0.0,0.0,7.026,7.2056,7.2206,7.2774,0.0,0.0,7.4564,7.3812,7.0696,6.8586,6.7827,6.4497,6.2822,6.2822,6.2822,6.2822,6.2822,6.2822,6.2822,6.2822,6.2822,6.2822,6.2822,6.2822,6.2822,6.2822,6.2822,6.2822,6.2822,6.2822,6.2822,6.2822,6.2822,6.2822,6.2495,6.091,5.933,5.7583,5.4301,5.2366,5.0803,4.94,4.8867,4.8867,4.8867,4.8867,4.8867,4.8867,4.8867,4.8867,4.8867,4.8867,4.8867,4.8867,4.8867,4.8867,4.8867,4.8867,4.8867,4.8867,4.8867,4.8867,4.8867,4.8867,4.8867,4.8867,4.8867,4.8867,4.8867,4.8867,4.8867,4.8867,4.8867,4.8867,4.8867,4.8867,4.8867,4.8867,4.8867,4.8867,4.8867,4.8867,4.8867,4.8867,4.8867,4.8867]},{"header":{"parameterUnit":"m.s-1","parameterCategory":1,"la1":30.6,"la2":29.2853,"lo1":-89.7004,"lo2":-87.6739,"dy":0.0162,"dx":0.0183,"nx":112,"ny":82,"refTime":"2023-03-09T06:00:00:Z","depth":0,"parameterNumber":3,"parameterNumberName":"V-component_of_WINDS"},"data":[0.0,0.0,0.0,0.0,0.0,0.0,0.0,0.0,0.0,0.0,0.0,0.0,0.0,0.0,0.0,0.0,0.0,0.0,0.0,0.0,0.0,0.0,0.0,0.0,0.0,0.0,0.0,0.0,0.0,0.0,0.0,0.0,0.0,0.0,0.0,0.0,0.0,0.0,0.0,0.0,0.0,0.0,0.0,0.0,0.0,0.0,0.0,0.0,0.0,0.0,0.0,0.0,0.0,0.0,0.0,0.0,0.0,0.0,0.0,0.0,0.0,0.0,0.0,0.0,0.0,0.0,0.0,0.0,0.0,0.0,0.0,0.0,0.0,0.0,0.0,0.0,0.0,0.0,0.0,0.0,0.0,0.0,0.0,0.0,0.0,0.0,0.0,0.0,0.0,0.0,0.0,-2.8278,-2.8136,-2.8136,-2.8136,-2.8136,-2.8136,-2.8136,0.0,0.0,0.0,0.0,0.0,0.0,0.0,0.0,0.0,0.0,0.0,0.0,0.0,0.0,0.0,0.0,0.0,0.0,0.0,0.0,0.0,0.0,0.0,0.0,0.0,0.0,0.0,0.0,0.0,0.0,0.0,0.0,0.0,0.0,0.0,0.0,0.0,0.0,0.0,0.0,0.0,0.0,0.0,0.0,0.0,0.0,0.0,0.0,0.0,0.0,0.0,0.0,0.0,0.0,0.0,0.0,0.0,0.0,0.0,0.0,0.0,0.0,0.0,0.0,0.0,0.0,0.0,0.0,0.0,0.0,0.0,0.0,0.0,0.0,0.0,0.0,0.0,0.0,0.0,0.0,0.0,0.0,0.0,0.0,0.0,0.0,0.0,0.0,0.0,0.0,0.0,0.0,0.0,0.0,0.0,0.0,0.0,0.0,0.0,0.0,0.0,0.0,0.0,0.0,-2.8251,-2.8136,-2.8136,-2.8136,-2.8136,-2.8136,-2.8136,-2.8136,0.0,0.0,0.0,0.0,0.0,0.0,0.0,0.0,0.0,0.0,0.0,0.0,0.0,0.0,0.0,0.0,0.0,0.0,0.0,0.0,0.0,0.0,0.0,0.0,0.0,0.0,0.0,0.0,0.0,0.0,0.0,0.0,0.0,0.0,0.0,0.0,0.0,0.0,0.0,0.0,0.0,0.0,0.0,0.0,0.0,0.0,0.0,0.0,0.0,0.0,0.0,0.0,0.0,0.0,0.0,0.0,0.0,0.0,0.0,0.0,0.0,0.0,0.0,0.0,0.0,0.0,0.0,0.0,0.0,0.0,0.0,0.0,0.0,0.0,0.0,0.0,0.0,0.0,0.0,0.0,0.0,0.0,0.0,0.0,0.0,0.0,0.0,0.0,0.0,0.0,0.0,0.0,0.0,0.0,0.0,0.0,0.0,0.0,0.0,0.0,0.0,0.0,0.0,-3.0753,-2.8238,-2.823,-2.8211,-2.8136,-2.8136,-2.8136,-2.8203,-2.8193,-2.823,0.0,0.0,0.0,0.0,0.0,0.0,0.0,0.0,0.0,0.0,0.0,0.0,0.0,0.0,0.0,0.0,0.0,0.0,0.0,0.0,0.0,0.0,0.0,0.0,0.0,0.0,0.0,0.0,0.0,0.0,0.0,0.0,0.0,0.0,0.0,0.0,0.0,0.0,0.0,0.0,0.0,0.0,0.0,0.0,0.0,0.0,0.0,0.0,0.0,0.0,0.0,0.0,0.0,0.0,0.0,0.0,0.0,0.0,0.0,0.0,0.0,0.0,0.0,0.0,0.0,0.0,0.0,0.0,0.0,0.0,0.0,0.0,0.0,0.0,0.0,0.0,0.0,0.0,0.0,0.0,0.0,0.0,0.0,0.0,0.0,0.0,0.0,0.0,0.0,0.0,0.0,0.0,0.0,0.0,0.0,0.0,0.0,0.0,0.0,0.0,0.0,0.0,-2.995,-3.0418,-2.8468,-2.8211,-2.823,-2.8217,-2.8217,-2.8127,-2.8168,-2.8534,0.0,0.0,0.0,0.0,0.0,0.0,0.0,0.0,0.0,0.0,0.0,0.0,0.0,0.0,0.0,0.0,0.0,0.0,0.0,0.0,0.0,0.0,0.0,0.0,0.0,0.0,0.0,0.0,0.0,0.0,0.0,0.0,0.0,0.0,0.0,0.0,0.0,0.0,0.0,0.0,0.0,0.0,0.0,0.0,0.0,0.0,0.0,0.0,0.0,0.0,0.0,0.0,0.0,0.0,0.0,0.0,0.0,0.0,0.0,0.0,0.0,0.0,0.0,0.0,0.0,0.0,0.0,0.0,0.0,0.0,0.0,0.0,0.0,0.0,0.0,0.0,0.0,0.0,0.0,0.0,0.0,0.0,0.0,0.0,0.0,0.0,0.0,0.0,0.0,0.0,0.0,0.0,0.0,0.0,0.0,0.0,0.0,0.0,0.0,0.0,0.0,0.0,-3.5345,-3.7159,-2.9104,-2.8154,-2.8155,-2.8247,-2.8247,-2.8247,-2.8273,-2.922,0.0,0.0,0.0,0.0,0.0,0.0,0.0,0.0,0.0,0.0,0.0,0.0,0.0,0.0,0.0,0.0,0.0,0.0,0.0,0.0,0.0,0.0,0.0,0.0,0.0,0.0,0.0,0.0,0.0,0.0,0.0,0.0,0.0,0.0,0.0,0.0,0.0,0.0,0.0,0.0,0.0,0.0,0.0,0.0,0.0,0.0,0.0,0.0,0.0,0.0,0.0,0.0,0.0,0.0,0.0,0.0,0.0,0.0,0.0,0.0,0.0,0.0,0.0,0.0,0.0,0.0,0.0,0.0,0.0,0.0,0.0,0.0,0.0,0.0,0.0,0.0,0.0,0.0,0.0,0.0,0.0,0.0,0.0,0.0,0.0,0.0,0.0,0.0,0.0,0.0,0.0,0.0,0.0,0.0,0.0,0.0,0.0,0.0,0.0,0.0,0.0,0.0,-3.9138,-3.7883,0.0,-2.8854,-2.927,-2.9229,-3.455,-3.7927,-3.7811,0.0,0.0,0.0,0.0,0.0,0.0,0.0,0.0,0.0,0.0,0.0,0.0,0.0,0.0,0.0,0.0,0.0,0.0,0.0,0.0,0.0,0.0,0.0,0.0,0.0,0.0,0.0,0.0,0.0,0.0,0.0,0.0,0.0,0.0,0.0,0.0,0.0,0.0,0.0,0.0,0.0,0.0,0.0,0.0,0.0,0.0,0.0,0.0,0.0,0.0,0.0,0.0,0.0,0.0,0.0,0.0,0.0,0.0,0.0,0.0,0.0,0.0,0.0,0.0,0.0,0.0,0.0,0.0,0.0,0.0,0.0,0.0,0.0,0.0,0.0,0.0,0.0,0.0,0.0,0.0,0.0,0.0,0.0,0.0,0.0,0.0,0.0,0.0,0.0,0.0,0.0,0.0,0.0,0.0,0.0,0.0,0.0,0.0,0.0,0.0,0.0,0.0,-4.0052,-4.1631,-3.9632,0.0,-3.3786,-3.4239,-3.4359,-4.0137,-4.3774,-4.3687,0.0,0.0,0.0,0.0,0.0,0.0,0.0,0.0,0.0,0.0,0.0,0.0,0.0,0.0,0.0,0.0,0.0,0.0,0.0,0.0,0.0,0.0,0.0,0.0,0.0,0.0,0.0,0.0,0.0,0.0,0.0,0.0,0.0,0.0,0.0,0.0,0.0,0.0,0.0,0.0,0.0,0.0,0.0,0.0,0.0,0.0,0.0,0.0,0.0,0.0,0.0,0.0,0.0,0.0,0.0,0.0,0.0,0.0,0.0,0.0,0.0,0.0,0.0,0.0,0.0,0.0,0.0,0.0,0.0,0.0,0.0,0.0,0.0,0.0,0.0,0.0,0.0,0.0,0.0,0.0,0.0,0.0,0.0,0.0,0.0,0.0,0.0,0.0,0.0,0.0,0.0,0.0,0.0,0.0,0.0,0.0,0.0,0.0,0.0,0.0,0.0,0.0,-4.0159,-4.2614,-4.3699,-4.3721,-4.3664,-4.3706,-4.3722,-4.3722,-4.3722,0.0,0.0,0.0,0.0,0.0,0.0,0.0,0.0,0.0,0.0,0.0,0.0,0.0,0.0,0.0,0.0,0.0,0.0,0.0,0.0,0.0,0.0,0.0,0.0,0.0,0.0,0.0,0.0,0.0,0.0,0.0,0.0,0.0,0.0,0.0,0.0,0.0,0.0,0.0,0.0,0.0,0.0,0.0,0.0,0.0,0.0,0.0,0.0,0.0,0.0,0.0,0.0,0.0,0.0,0.0,0.0,0.0,0.0,0.0,0.0,0.0,0.0,0.0,0.0,0.0,0.0,0.0,0.0,0.0,0.0,0.0,0.0,0.0,0.0,0.0,0.0,0.0,0.0,0.0,0.0,0.0,0.0,0.0,0.0,0.0,0.0,0.0,0.0,0.0,0.0,0.0,0.0,0.0,0.0,0.0,0.0,0.0,0.0,0.0,0.0,0.0,0.0,0.0,-4.1767,-4.3312,-4.3726,-4.373,-4.3721,-4.3632,-4.374,-4.374,-4.374,-4.374,0.0,0.0,0.0,0.0,0.0,0.0,0.0,0.0,0.0,0.0,0.0,0.0,0.0,0.0,0.0,0.0,0.0,0.0,0.0,0.0,0.0,0.0,0.0,0.0,0.0,0.0,0.0,0.0,0.0,0.0,0.0,0.0,0.0,0.0,0.0,0.0,0.0,0.0,0.0,0.0,0.0,0.0,0.0,0.0,0.0,0.0,0.0,0.0,0.0,0.0,0.0,0.0,0.0,0.0,0.0,0.0,0.0,0.0,0.0,0.0,0.0,0.0,0.0,0.0,0.0,0.0,0.0,0.0,0.0,0.0,0.0,0.0,0.0,0.0,0.0,0.0,0.0,0.0,0.0,0.0,0.0,0.0,0.0,0.0,0.0,0.0,0.0,0.0,0.0,0.0,0.0,0.0,0.0,0.0,0.0,0.0,0.0,0.0,0.0,0.0,0.0,0.0,-4.3017,-4.3691,-4.366,-4.3691,-4.3711,-4.3711,-4.3711,-4.3711,-4.3711,-4.3711,0.0,0.0,0.0,0.0,0.0,0.0,0.0,0.0,0.0,0.0,0.0,0.0,0.0,0.0,0.0,0.0,0.0,0.0,0.0,0.0,0.0,0.0,0.0,0.0,0.0,0.0,0.0,0.0,0.0,0.0,0.0,0.0,0.0,0.0,0.0,0.0,0.0,0.0,0.0,0.0,0.0,0.0,0.0,0.0,0.0,0.0,0.0,0.0,0.0,0.0,0.0,0.0,0.0,0.0,0.0,0.0,0.0,0.0,0.0,0.0,0.0,0.0,0.0,0.0,0.0,0.0,0.0,0.0,0.0,0.0,0.0,0.0,0.0,0.0,0.0,0.0,0.0,0.0,0.0,0.0,0.0,0.0,0.0,0.0,0.0,0.0,0.0,0.0,0.0,0.0,0.0,0.0,0.0,0.0,0.0,0.0,0.0,0.0,0.0,0.0,0.0,0.0,-4.3736,-4.3632,-4.3711,-4.3711,-4.3711,-4.3711,-4.3711,-4.3711,-4.3711,-4.3711,0.0,0.0,0.0,0.0,0.0,0.0,0.0,0.0,0.0,0.0,0.0,0.0,0.0,0.0,0.0,0.0,0.0,0.0,0.0,0.0,0.0,0.0,0.0,0.0,0.0,0.0,0.0,0.0,0.0,0.0,0.0,0.0,0.0,0.0,0.0,0.0,0.0,0.0,0.0,0.0,0.0,0.0,0.0,0.0,0.0,0.0,0.0,0.0,0.0,0.0,0.0,0.0,0.0,0.0,0.0,0.0,0.0,0.0,0.0,0.0,-2.6087,0.0,0.0,0.0,0.0,0.0,0.0,0.0,0.0,0.0,0.0,0.0,0.0,0.0,0.0,0.0,0.0,0.0,0.0,0.0,0.0,0.0,0.0,0.0,0.0,0.0,0.0,0.0,0.0,0.0,0.0,0.0,0.0,0.0,0.0,0.0,0.0,0.0,0.0,0.0,0.0,0.0,-4.3662,-4.3769,-4.3711,-4.3711,-4.3711,-4.3711,-4.3711,-4.3711,-4.3711,-4.3711,0.0,0.0,0.0,0.0,0.0,0.0,0.0,0.0,0.0,0.0,0.0,0.0,0.0,0.0,0.0,0.0,0.0,0.0,0.0,0.0,0.0,0.0,0.0,0.0,0.0,0.0,0.0,0.0,0.0,0.0,0.0,0.0,0.0,0.0,0.0,0.0,0.0,0.0,0.0,0.0,0.0,0.0,0.0,0.0,0.0,0.0,0.0,0.0,0.0,0.0,0.0,0.0,0.0,0.0,0.0,0.0,0.0,0.0,0.0,0.0,0.0,-2.645,0.0,0.0,0.0,0.0,0.0,0.0,0.0,0.0,0.0,0.0,0.0,0.0,0.0,0.0,0.0,0.0,0.0,0.0,0.0,0.0,0.0,0.0,0.0,0.0,0.0,0.0,0.0,0.0,0.0,0.0,0.0,0.0,0.0,0.0,0.0,0.0,0.0,0.0,0.0,0.0,-4.3711,-4.3682,-4.3632,-4.3632,-4.3748,-4.3678,-4.3678,-4.3678,-4.3678,-4.3678,-4.3678,0.0,0.0,0.0,0.0,0.0,0.0,0.0,0.0,0.0,0.0,0.0,0.0,0.0,0.0,0.0,0.0,0.0,0.0,0.0,0.0,0.0,0.0,0.0,0.0,0.0,0.0,0.0,0.0,0.0,0.0,0.0,0.0,0.0,0.0,0.0,0.0,0.0,0.0,0.0,0.0,0.0,0.0,0.0,0.0,0.0,0.0,0.0,0.0,0.0,0.0,0.0,0.0,0.0,0.0,-2.7158,-2.8262,-2.8194,-2.8235,-2.8071,-2.7178,-2.6751,-2.6719,0.0,0.0,0.0,0.0,0.0,0.0,0.0,0.0,0.0,0.0,0.0,0.0,0.0,0.0,0.0,0.0,0.0,0.0,0.0,0.0,0.0,0.0,0.0,0.0,0.0,-4.2689,-4.3336,0.0,0.0,0.0,0.0,0.0,0.0,0.0,0.0,0.0,0.0,0.0,0.0,-4.3701,-4.362,-4.3832,-4.4078,-4.4141,-4.4126,-4.4126,-4.4126,-4.4087,-4.4141,-4.4141,-4.4168,0.0,0.0,0.0,0.0,0.0,0.0,0.0,0.0,0.0,0.0,0.0,0.0,0.0,0.0,0.0,0.0,0.0,0.0,0.0,0.0,0.0,0.0,0.0,0.0,0.0,0.0,0.0,0.0,0.0,0.0,0.0,0.0,-2.0824,-1.4846,0.0,0.0,0.0,0.0,0.0,0.0,0.0,0.0,0.0,0.0,0.0,0.0,0.0,0.0,-2.8001,-2.7907,-2.7948,-2.7948,-2.7892,-2.8014,-2.822,-2.819,-2.8233,-2.8247,-2.8102,0.0,-2.7921,-2.6759,0.0,0.0,0.0,0.0,0.0,0.0,0.0,0.0,0.0,0.0,0.0,0.0,0.0,0.0,0.0,0.0,0.0,0.0,0.0,0.0,0.0,0.0,-4.3376,-4.3455,-4.349,-4.3568,0.0,-4.3431,-4.3398,-4.3352,0.0,0.0,0.0,0.0,0.0,0.0,0.0,0.0,-4.3687,-4.3764,-4.4276,-4.5837,-4.5916,-4.5956,-4.5956,-4.5956,-4.6036,-4.5956,-4.5916,-4.5922,-4.6016,-5.336,0.0,0.0,0.0,0.0,0.0,0.0,0.0,0.0,0.0,0.0,0.0,0.0,0.0,0.0,0.0,0.0,0.0,0.0,0.0,0.0,0.0,0.0,0.0,0.0,0.0,0.0,0.0,0.0,0.0,-2.5625,-2.4225,-2.0748,-2.3402,-2.5644,0.0,0.0,0.0,0.0,0.0,0.0,0.0,0.0,0.0,-2.7418,-2.7458,-2.7589,-2.8135,-2.813,-2.8278,-2.8257,-2.8207,-2.826,-2.826,-2.8155,-2.8472,-2.9244,-2.9179,-2.9136,-2.9015,-2.7936,-2.6978,-2.6427,0.0,0.0,0.0,0.0,0.0,-2.7376,-2.7376,0.0,0.0,0.0,0.0,0.0,0.0,0.0,0.0,0.0,0.0,0.0,0.0,0.0,0.0,-4.3746,-4.366,-4.3699,-4.3672,-4.3641,-4.3647,0.0,-4.366,-4.3699,-4.3672,0.0,0.0,0.0,0.0,0.0,-4.5209,-4.5215,-4.541,-4.6293,-4.6299,-4.626,-4.6226,-4.6356,-4.6225,-4.6392,-5.1004,-5.3697,-5.3772,-5.7419,-5.7742,0.0,0.0,0.0,0.0,0.0,0.0,0.0,0.0,0.0,0.0,0.0,0.0,0.0,0.0,0.0,0.0,0.0,0.0,0.0,0.0,0.0,0.0,0.0,0.0,0.0,0.0,0.0,0.0,-2.4275,-2.3947,-2.652,-2.6581,-2.6423,0.0,0.0,0.0,0.0,0.0,0.0,-2.6759,-2.6914,-2.729,-2.8222,-2.8217,-2.815,-2.818,-2.8419,-2.8632,-2.8644,-2.8644,-2.8644,-2.8657,-2.871,-2.9152,-2.9945,-2.9839,-2.9866,-2.9825,-2.899,-2.8089,-2.7292,-2.7227,-2.724,-2.7474,-2.8257,-2.8676,-2.8574,-2.8574,-2.8574,-2.869,-2.8601,0.0,-3.213,-3.2227,0.0,0.0,0.0,0.0,-4.1228,-4.1694,0.0,-4.3711,-4.3711,-4.3769,-4.3682,-4.3682,-4.374,-4.376,0.0,-4.3682,-4.3701,-4.3779,0.0,0.0,0.0,0.0,-4.6365,-4.6273,-4.6352,-4.6392,-4.6392,-4.6279,-4.6273,-4.6285,-4.8334,-4.9741,-4.9696,-5.5789,-5.9423,-5.9464,-5.9502,-5.9539,-5.9491,0.0,0.0,0.0,0.0,0.0,0.0,0.0,0.0,0.0,0.0,0.0,0.0,0.0,0.0,0.0,0.0,0.0,0.0,0.0,0.0,0.0,0.0,0.0,0.0,0.0,0.0,0.0,0.0,0.0,-2.6942,-2.7159,0.0,0.0,0.0,0.0,-2.6431,-2.647,-2.6875,-2.7989,-2.8149,-2.8096,-2.8278,-2.8274,-2.8204,-2.8217,-2.9219,-2.9822,-2.9836,-2.9836,-2.9836,-2.9836,-2.9744,-2.9853,-2.988,-2.9945,-2.9873,-2.982,-2.9754,-2.9769,-2.9727,-2.9789,-2.9676,-2.9755,-2.9755,-2.9749,-2.9795,-2.9795,-2.9795,-2.9795,-2.9768,-3.5757,-4.2933,-4.2945,-4.1861,0.0,0.0,-4.0871,-4.1531,-4.3105,-4.3712,-4.3667,-4.3633,-4.3632,-4.3697,-4.3697,-4.376,-4.3725,0.0,-4.3697,-4.3626,-4.3745,0.0,-4.4241,-4.5989,-4.6299,-4.6264,-4.6211,-4.624,-4.6356,-4.6356,-4.6299,-4.6247,-4.6372,-5.401,-5.8892,-5.8764,-5.9207,-5.944,-5.9428,-5.9428,-5.9428,-5.9533,-5.9533,0.0,0.0,0.0,0.0,0.0,0.0,0.0,0.0,0.0,0.0,0.0,0.0,0.0,0.0,0.0,0.0,0.0,0.0,0.0,0.0,0.0,0.0,0.0,0.0,0.0,0.0,0.0,0.0,-2.769,-2.7118,0.0,0.0,-2.7108,-2.7595,-2.7522,-2.7529,-2.7729,-2.8123,-2.8129,-2.8525,-2.9308,-2.9325,-2.9326,-2.9325,-2.9717,-2.9825,-2.9824,-2.9824,-2.9824,-2.9824,-2.9918,-2.9958,-2.9958,-2.9873,-2.9827,-2.996,-2.986,-2.9824,-2.9853,-2.992,-2.9947,-2.9853,-2.9853,-2.992,-2.9824,-2.9824,-2.9824,-2.992,-2.9822,-3.615,-4.3728,-4.371,-4.3222,-4.2869,-4.2818,-4.2875,-4.2902,-4.3496,-4.369,-4.3697,-4.3645,-4.376,-4.3933,-4.5052,-4.5379,-4.5307,-4.5405,-4.5418,-4.532,-4.5438,-4.5293,-4.5508,-4.6127,-4.6333,-4.6214,-4.6333,-4.6276,-4.8399,-5.4165,-5.4826,-5.4766,-5.4806,-5.7761,-5.9431,-5.9503,-5.9453,-5.9489,-5.9508,-5.9466,-5.9498,-5.9498,-5.9453,-5.9433,0.0,0.0,0.0,0.0,0.0,0.0,0.0,0.0,0.0,0.0,0.0,0.0,0.0,0.0,0.0,0.0,0.0,0.0,0.0,0.0,0.0,0.0,0.0,0.0,0.0,0.0,-2.7215,-2.8016,-2.7503,-2.7017,-2.7013,-2.7669,-2.8217,-2.8136,-2.8534,-2.8735,-2.8751,-2.8831,-2.9179,-2.9798,-2.9893,-2.9839,-2.9837,-2.9837,-2.9918,-2.9913,-2.9827,-2.9867,-2.9867,-2.996,-2.9818,-2.9818,-2.9818,-2.9911,-2.9886,-3.0305,-3.059,-3.0429,-3.0013,-2.9818,-2.9818,-2.9818,-2.9818,-2.9818,-2.9818,-2.9818,-2.988,-2.9893,-3.6096,-4.3822,-4.4473,-4.4582,-4.4551,-4.467,-4.4601,-4.4609,-4.4609,-4.4596,-4.4582,-4.4582,-4.4659,-4.4814,-4.6134,-4.6293,-4.626,-4.6304,-4.624,-4.6233,-4.6352,-4.6352,-4.6279,-4.6268,-4.6233,-4.7386,-5.0291,-5.08,-5.3302,-5.995,-6.0666,-6.0612,-6.0612,-6.0562,-6.0688,-6.0647,-6.0622,-6.0622,-6.0622,-6.058,-6.0305,-5.9533,-5.9533,-5.9514,-5.9514,0.0,0.0,0.0,0.0,0.0,0.0,0.0,0.0,0.0,0.0,0.0,0.0,0.0,0.0,0.0,0.0,0.0,0.0,0.0,0.0,0.0,0.0,0.0,-2.6505,-2.7525,-2.8179,-2.8276,-2.8203,-2.8163,-2.8177,-2.8247,-2.8168,-2.8256,-2.9259,-2.9863,-2.9863,-2.9934,-2.9893,-2.9893,-2.9972,-2.9927,-2.9927,-2.994,-2.994,-2.994,-2.9832,-2.995,-2.9964,-3.0031,-2.9964,-2.9964,-2.9964,-2.9964,-2.9977,-3.1218,-3.1655,-3.1642,-3.0386,-2.9964,-2.9964,-2.9964,-2.9964,-2.9964,-2.9964,-2.9964,-3.0031,-3.0039,-3.6209,-4.4146,-4.5871,-4.6226,-4.6245,-4.6245,-4.6245,-4.6245,-4.6245,-4.6245,-4.6245,-4.6245,-4.6313,-4.6358,-4.6358,-4.6268,-4.6308,-4.6308,-4.6228,-4.6264,-4.623,-4.626,-4.6352,-4.668,-4.6484,0.0,-5.8369,-5.9667,-6.0367,-6.2545,-6.2805,-6.2828,-6.2828,-6.2828,-6.2828,-6.2828,-6.2828,-6.2828,-6.2828,-6.2828,-6.1735,-5.9697,-5.9564,-5.9715,-5.9792,0.0,0.0,0.0,0.0,0.0,0.0,0.0,0.0,0.0,0.0,0.0,0.0,0.0,0.0,0.0,0.0,0.0,0.0,0.0,0.0,0.0,0.0,-2.7667,-2.7636,-2.7923,-2.815,-2.8129,-2.8128,-2.8592,-2.9376,-2.9458,-2.9433,-2.9352,-2.9758,-2.9853,-2.9878,-2.9945,-2.9985,-2.9985,-2.988,-2.9832,-2.9832,-2.9834,-2.9926,-2.9926,-2.9808,-3.0451,-3.1294,-3.1178,-3.1205,-3.1205,-3.1205,-3.1127,-3.1316,-3.1529,-3.1664,-3.1598,-3.138,-3.1205,-3.1205,-3.1205,-3.1205,-3.1205,-3.1205,-3.1205,-3.128,-3.1276,-3.7663,-4.5732,-4.613,-4.6378,-4.6209,-4.6209,-4.6209,-4.6209,-4.6209,-4.6209,-4.6209,-4.6209,-4.6287,-4.6346,-4.6346,-4.625,-4.6367,-4.6249,-4.6346,-4.6319,-4.6225,-4.626,-4.8421,-5.496,-5.1558,0.0,-6.0768,-6.1943,-6.2083,-6.282,-6.2871,-6.2709,-6.2709,-6.2709,-6.2709,-6.2709,-6.2709,-6.2709,-6.2709,-6.2805,-6.244,-6.1839,-6.1816,-6.3794,0.0,0.0,0.0,0.0,0.0,0.0,0.0,0.0,0.0,0.0,0.0,0.0,0.0,0.0,0.0,0.0,0.0,0.0,0.0,0.0,0.0,0.0,-2.8439,-2.8829,-2.8883,-2.8974,-2.8856,-2.8991,-2.895,-2.9219,-2.9825,-2.9934,-2.988,-2.9864,-2.9864,-2.9985,-2.988,-2.9893,-2.9946,-2.9871,-2.9834,-3.0122,-3.0738,-3.0702,-3.0597,-3.0597,-3.0703,-3.0982,-3.162,-3.1729,-3.1783,0.0,-3.1783,-3.1678,-3.1638,-3.1638,-3.1719,0.0,0.0,0.0,0.0,0.0,-3.1783,-3.1783,-3.1783,-3.1783,-3.1688,-3.1665,-3.8252,-4.6247,-4.621,-4.6328,-4.6308,-4.6308,-4.6308,-4.6308,-4.6308,-4.6308,-4.6328,-4.6289,-4.6328,-4.6367,-4.6326,-4.6346,-4.6326,-4.6386,0.0,0.0,-5.2555,-5.3255,-5.4998,-6.0071,-5.7337,-5.6748,-6.2084,-6.2734,-6.2871,-6.2871,-6.2885,-6.2822,-6.2822,-6.2822,0.0,0.0,0.0,-6.2822,-6.2822,-6.2729,0.0,0.0,0.0,-6.939,-7.2518,0.0,0.0,0.0,-6.9301,-7.0872,0.0,0.0,0.0,0.0,0.0,0.0,0.0,0.0,0.0,0.0,0.0,0.0,0.0,0.0,0.0,0.0,-2.9824,-2.9914,-2.9866,-2.9907,-2.9932,-2.9932,-2.9961,-2.9934,-2.9934,-2.9958,-2.9927,-2.9953,-2.9967,-2.9893,-2.9964,0.0,0.0,0.0,0.0,-3.0637,-3.1683,-3.171,-3.1724,-3.1737,-3.1783,-3.1705,-3.1705,-3.1786,-3.1717,-3.1717,-3.1744,-3.1757,-3.1757,-3.1757,-3.1757,-3.1744,-3.169,-3.169,-3.1717,-3.1717,-3.173,0.0,0.0,0.0,0.0,-3.1637,-3.7655,-4.4836,-4.5877,-4.6227,-4.6231,-4.6231,-4.6231,-4.6231,-4.6231,-4.6231,-4.6309,-4.6227,-4.652,-4.6617,-4.6549,-4.6549,-4.6497,-4.664,-4.8688,-5.3167,-6.1325,-6.2754,-6.2854,-6.2787,-6.2779,-6.2747,-6.2751,-6.2779,-6.2822,-6.2822,0.0,0.0,-6.2822,-6.2822,-6.2822,-6.2822,-6.2822,-6.2772,-6.2834,-6.2834,-6.6628,-7.4734,-7.4955,-7.4875,-7.4875,-7.4856,-7.4855,-7.4795,-7.2158,-7.0855,0.0,0.0,0.0,0.0,0.0,0.0,0.0,0.0,0.0,0.0,0.0,0.0,0.0,0.0,0.0,-2.9755,-2.9973,-2.9904,-2.982,-2.9972,-2.9945,-2.9945,-2.9985,-2.9847,-2.9847,-2.9887,-2.9827,-2.9845,-2.9871,-2.9977,-2.986,-3.0899,0.0,-3.1416,-3.1434,-3.1369,-3.177,-3.1786,-3.1705,-3.1705,0.0,0.0,-3.1799,-3.1673,-3.1792,-3.1614,-3.1618,-3.171,-3.171,-3.171,-3.171,-3.1671,-3.1646,-3.1606,-3.1792,-3.1792,-3.1732,-3.171,-3.171,-3.1706,-3.177,-3.1772,-3.3044,-3.6005,-4.394,-4.6255,0.0,-4.6357,-4.6357,-4.6357,-4.6357,-4.6357,-4.6376,-4.6255,-4.7441,-4.8434,-4.8494,-4.8413,-4.8405,-4.835,-5.4662,-6.0676,-6.244,-6.2795,-6.2829,-6.287,-6.2759,-6.2822,-6.2859,-6.2759,-6.2822,-6.2822,-6.2822,-6.2822,-6.2822,-6.2822,-6.2822,-6.2822,-6.2822,-6.2795,-6.2782,-6.2741,-6.6631,-7.4751,-7.4898,-7.4941,-7.4941,-7.4839,-7.4902,-7.4767,-7.2179,-7.0888,0.0,0.0,0.0,0.0,0.0,0.0,0.0,0.0,0.0,0.0,0.0,-2.6841,0.0,0.0,-2.8504,-2.9675,-2.9934,-2.9913,-2.9913,-2.9853,-2.988,-2.9927,-2.9853,-2.9933,-2.9933,-2.9858,-2.9808,-2.9939,-3.0371,-3.0715,-3.0783,-3.1421,-3.1715,-3.1651,-3.1786,-3.1665,-3.1665,-3.173,-3.1673,-3.1673,-3.1614,-3.1666,-3.168,-3.1605,-3.2085,-3.2552,-3.2492,-3.2545,-3.2545,-3.2545,-3.2545,-3.2519,-3.2638,-3.2198,-3.1671,-3.2318,-3.2619,-3.2545,-3.2545,-3.2485,-3.3378,-3.8688,-4.0341,-4.1195,-4.6026,-4.7593,-4.7578,-4.7578,-4.7578,-4.7578,-4.7578,-4.7578,-4.7617,-4.7593,-4.8255,-4.8931,-4.8912,-4.8924,-5.0318,-5.4996,-5.9711,-6.2844,-6.2788,-6.2779,-6.2745,-6.2873,-6.2822,-6.2822,-6.2822,-6.2822,-6.2822,-6.2822,-6.2822,-6.2822,-6.2822,-6.2822,-6.2784,-6.2763,-6.2738,-6.2757,-6.2868,-6.6672,-7.0757,-7.4776,-7.4962,-7.4869,-7.4869,-7.4869,-7.4946,-7.4932,-7.3461,-7.2894,0.0,0.0,0.0,0.0,0.0,0.0,0.0,0.0,-2.8574,-2.8608,-2.8484,-2.8471,-2.8522,-2.8484,-2.8769,-2.9783,-2.986,-2.9893,-2.9893,-2.9884,-2.995,-3.0308,-3.0079,-3.0016,-3.0239,-3.0241,-3.0188,-3.0241,-3.1087,-3.1647,-3.1718,-3.1732,-3.1665,-3.173,-3.1744,-3.177,-3.1633,-3.164,-3.1759,-3.1978,-3.1996,-3.2089,-3.2089,-3.1946,-3.2612,-3.3307,-3.3361,-3.3375,-3.3375,-3.3375,-3.3375,-3.3375,-3.3375,-3.2915,-3.2051,-3.3084,-3.3489,-3.3461,-3.3461,-3.334,-3.509,-4.5489,-4.8872,-4.8875,-4.8875,-4.8966,-4.8811,-4.8811,-4.8811,-4.8811,-4.8811,-4.8811,-4.885,-4.8969,-4.8932,-4.9385,-5.1266,-5.1534,-5.3752,-6.1377,-6.2732,-6.2745,-6.2784,-6.2822,-6.2822,-6.2822,-6.2822,-6.2822,-6.2822,-6.2822,-6.2822,-6.2822,-6.2822,-6.2822,-6.2822,-6.2822,-6.2719,-6.2841,-6.4221,-6.5154,-6.5166,-7.1478,-7.4861,-7.494,-7.4873,-7.4869,-7.4869,-7.4869,-7.4869,-7.4869,-7.4869,-7.4932,-1.4871,-1.5134,-1.509,-1.5075,-1.4618,-1.4309,0.0,0.0,-2.9659,-2.9662,-2.9663,-2.9703,-2.9648,-2.9716,-2.9694,-2.9873,-2.9924,-2.9873,-2.9873,-2.9886,-3.0307,-3.1335,-3.0517,-3.0333,-3.1375,-3.1416,-3.1525,-3.157,-3.161,-3.1732,-3.161,-3.1623,-3.1744,-3.1614,-3.1627,-3.1732,-3.1776,-3.1607,-3.227,-3.3157,-3.3184,-3.3198,-3.3211,-3.3246,-3.3368,-3.3395,-3.3426,-3.332,-3.332,-3.332,-3.332,-3.332,-3.332,-3.332,-3.328,-3.3264,-3.3314,-3.3429,-3.3402,-3.3491,-3.5176,-4.5525,-4.8924,-4.8828,-4.8828,-4.8973,-4.8934,-4.8934,-4.8934,-4.8934,-4.8934,-4.8934,-4.896,-4.8932,-4.8912,-5.1087,-5.9459,-6.125,-6.1619,-6.2612,-6.2788,-6.2759,-6.2847,-6.2822,-6.2822,-6.2822,-6.2822,-6.2822,-6.2822,-6.2822,-6.2822,-6.2822,-6.2822,-6.2822,-6.2822,-6.2822,-6.2719,-6.2841,-6.9493,-7.3575,-7.3589,-7.4457,-7.4964,-7.4911,-7.4929,-7.4869,-7.4869,-7.4869,-7.4869,-7.4869,-7.4869,-7.4839,-1.4679,-1.4672,0.0,0.0,-1.5018,-1.4841,-1.4733,-1.8143,-2.2971,-2.877,-2.9818,-2.9832,-2.9893,-2.9858,-3.0212,0.0,-3.1042,-3.0993,-3.0993,-3.0942,-3.1062,-3.1675,-3.1196,-3.1223,-3.1688,-3.1637,-3.1772,-3.1692,-3.1692,-3.1623,-3.1686,-3.1699,-3.1627,-3.1684,-3.2358,-3.2646,-3.2754,-3.2706,-3.3009,-3.3456,-3.3408,-3.3489,-3.3489,-3.3399,-3.3453,-3.3453,-3.336,-3.3414,-3.3414,-3.3414,-3.3414,-3.3414,-3.3414,-3.3414,-3.34,-3.3493,-3.3476,-3.4325,-4.0314,-4.242,-4.3103,-4.7422,-4.8904,-4.8867,-4.8867,-4.8867,-4.8867,-4.8867,-4.8867,-4.8867,-4.8867,-4.8867,-4.8856,-4.8892,-5.2953,-5.8098,-6.2006,-6.2732,-6.2829,-6.2829,-6.272,-6.2822,-6.2822,-6.2822,-6.2822,-6.2822,-6.2822,-6.2822,-6.2822,-6.2822,-6.2822,-6.2822,-6.2822,-6.2822,-6.2822,-6.278,-6.2838,-6.2764,-7.0472,-7.4867,-7.4861,-7.4941,-7.4873,-7.4899,-7.4869,-7.4869,-7.4869,-7.4869,-7.4869,-7.4869,-7.4869,-7.4869,-1.4297,0.0,0.0,-1.5004,-1.5279,-1.5133,-1.5238,-1.5272,-1.7234,-2.4605,-2.8346,-3.0451,-3.0412,-3.0439,0.0,-3.1539,-3.162,-3.1675,-3.1675,-3.1651,-3.1772,-3.1772,-3.1813,-3.192,-3.1921,-3.1799,-3.1704,-3.1988,-3.1784,-3.1699,-3.1759,-3.2005,-3.2138,-3.2208,-3.2888,-3.3375,-3.3443,-3.3435,-3.3332,-3.3332,-3.332,-3.3414,-3.3414,-3.3414,-3.3414,-3.3414,-3.3414,-3.3414,-3.3414,-3.3414,-3.3414,-3.3414,-3.3414,-3.3347,-3.3453,-3.3453,-3.3408,-3.4814,-4.5399,-4.8862,-4.8891,-4.8872,-4.8974,-4.8867,-4.8867,-4.8867,-4.8867,-4.8867,-4.8867,-4.8867,-4.8867,-4.8895,-4.8946,-4.8951,-5.5973,-6.2836,-6.2875,-6.273,-6.2822,-6.2822,-6.2822,-6.2822,-6.2822,-6.2822,-6.2822,-6.2822,-6.2822,-6.2822,-6.2822,-6.2822,-6.2822,-6.2822,-6.2734,-6.2745,-6.2745,-6.2787,-6.377,-6.606,-7.1709,-7.4934,-7.4929,-7.4869,-7.4869,-7.4869,-7.4869,-7.4869,-7.4869,-7.4869,-7.4869,-7.4869,-7.4869,-7.4869,0.0,0.0,-1.5167,-1.5174,-1.52,-1.5222,-1.5215,-1.5136,-1.5411,-1.6263,-2.4667,-3.1715,-3.1669,-3.1661,-3.1637,-3.1651,-3.1665,-3.165,-3.165,-3.165,-3.165,-3.165,-3.2122,-3.231,0.0,-3.2041,-3.1988,-3.2502,-3.2078,-3.1772,-3.1633,-3.274,-3.3334,-3.3395,-3.3408,-3.3332,-3.3387,-3.34,-3.34,-3.34,-3.3414,-3.3414,-3.3414,-3.3414,-3.3414,-3.3414,-3.3414,-3.3414,-3.3414,-3.3414,-3.3414,-3.3414,-3.3414,-3.3372,-3.3443,-3.3443,-3.3393,-3.4938,-4.5273,-4.8962,-4.8887,-4.8887,-4.8867,-4.8867,-4.8867,-4.8867,-4.8867,-4.8867,-4.8867,-4.8867,-4.8867,-4.8906,-4.8931,-4.8932,-5.6051,-6.2826,-6.2859,-6.2847,-6.2822,-6.2822,-6.2822,-6.2822,-6.2822,-6.2822,-6.2822,-6.2822,-6.2822,-6.2822,-6.2822,-6.2822,-6.2822,-6.2822,-6.277,-6.2841,-6.2841,-6.2839,-6.6114,-7.4023,-7.4747,-7.4934,-7.4929,-7.4869,-7.4869,-7.4869,-7.4869,-7.4869,-7.4869,-7.4869,-7.4869,-7.4869,-7.4869,-7.4869,0.0,0.0,-1.5357,-1.5657,-1.5767,-1.5835,-1.5835,-1.5883,-1.7866,-2.4928,-2.8569,-3.0721,-3.0956,-3.1383,-3.1651,-3.1437,-3.1476,-3.1664,-3.1664,-3.1837,-3.1957,-3.1957,-3.2225,0.0,0.0,0.0,0.0,-3.2606,-3.2827,-3.2754,-3.2812,-3.326,-3.3408,-3.3466,-3.3479,-3.332,-3.3414,-3.3414,-3.3414,-3.3414,-3.3414,-3.3414,-3.3414,-3.3414,-3.3414,-3.3414,-3.3414,-3.3414,-3.3414,-3.3414,-3.3414,-3.3387,-3.3332,-3.3341,-3.4255,-4.1123,-4.3591,-4.4092,-4.7724,-4.8924,-4.8867,-4.8867,-4.8867,-4.8867,-4.8867,-4.8867,-4.8867,-4.8867,-4.8867,-4.8934,-4.8827,-4.8912,-5.0442,-5.669,-6.0483,-6.2801,-6.2834,-6.2822,-6.2822,-6.2822,-6.2822,-6.2822,-6.2822,-6.2822,-6.2822,-6.2822,-6.2822,-6.2822,-6.2822,-6.2822,-6.2734,-6.272,-6.2838,-6.5055,-7.0339,-7.079,-7.1998,-7.4747,-7.4898,-7.4952,-7.4899,-7.4869,-7.4869,-7.4869,-7.4869,-7.4869,-7.4869,-7.4869,-7.4869,-7.4869,-7.4869,-7.4887,0.0,-1.5459,-1.5594,-1.6091,-1.6154,-1.6196,-1.6196,-1.6069,-1.7909,-2.4646,-2.8236,-2.9746,-2.9255,-3.0421,-3.1342,-3.1343,-3.145,-3.1583,-3.1797,-3.1984,-3.2144,-3.2251,-3.2519,0.0,0.0,0.0,0.0,-3.2706,-3.2928,-3.3273,-3.3345,-3.3359,-3.3439,-3.34,-3.3414,-3.3414,-3.3414,-3.3414,-3.3414,-3.3414,-3.3414,-3.3414,-3.3414,-3.3414,-3.3414,-3.3414,-3.3414,-3.3414,-3.34,-3.3453,-3.3399,-3.3372,-3.3361,-3.5759,-3.9659,-4.6477,-4.8969,-4.8982,-4.8982,-4.8955,-4.8867,-4.8867,-4.8867,-4.8867,-4.8867,-4.8867,-4.8993,-4.8921,-4.8842,-4.8867,-4.8891,-5.1308,-5.5419,-6.1353,-6.2801,-6.2788,-6.2784,-6.2822,-6.2822,-6.2822,-6.2822,-6.2822,-6.2822,-6.2822,-6.2885,-6.283,-6.278,-6.2745,-6.2772,-6.2846,-6.2872,-6.2867,-6.5308,-6.9219,-7.4452,-7.4864,-7.4846,-7.4846,-7.4952,-7.4869,-7.4869,-7.4869,-7.4869,-7.4869,-7.4869,-7.4869,-7.4869,-7.4869,-7.4869,-7.4869,-7.4857,-7.4952,-1.5966,-1.6154,-1.6069,-1.6069,-1.6172,-1.6083,-1.6083,-1.6083,-1.6247,-1.6321,-2.3421,-2.9004,0.0,0.0,-3.081,-3.157,-3.1463,-3.149,-3.2051,-3.2144,-3.2251,0.0,0.0,0.0,0.0,0.0,0.0,-3.3026,0.0,-3.2908,-3.34,-3.3414,-3.3414,-3.3414,-3.3414,-3.3414,-3.3414,-3.3414,-3.3414,-3.3414,-3.3414,-3.3414,-3.3414,-3.3414,-3.3414,-3.3414,-3.3414,-3.34,-3.3347,-3.3381,-3.3639,-3.4241,-3.4224,-4.028,-4.8877,-4.8858,-4.8904,-4.8867,-4.8867,-4.8867,-4.8867,-4.8867,-4.8867,-4.8867,-4.8867,-4.8828,-4.8856,-4.8912,-4.9331,-4.9587,-4.9579,-5.6223,-6.283,-6.2806,-6.2879,-6.2822,-6.2822,-6.2822,-6.2822,-6.2822,-6.2822,-6.2822,-6.2822,-6.2772,-6.277,-6.2761,-6.3206,-6.3252,-6.2896,-6.2828,-6.2921,-6.3363,-7.0268,-7.4949,-7.489,-7.4852,-7.4869,-7.4869,-7.4869,-7.4869,-7.4869,-7.4869,-7.4869,-7.4869,-7.4869,-7.4869,-7.4869,-7.4869,-7.4869,-7.4839,-7.4902,-7.5096,-1.598,-1.611,-1.6029,-1.6029,-1.6056,-1.6083,-1.6083,-1.6083,-1.6864,-1.9388,-2.3625,-2.703,0.0,0.0,0.0,-3.1637,-3.1971,0.0,-3.2412,-3.2612,0.0,0.0,0.0,-3.3293,-3.3293,-3.3374,0.0,0.0,-3.3293,-3.3334,-3.34,-3.3414,-3.3414,-3.3414,-3.3414,-3.3414,-3.3414,-3.3414,-3.3414,-3.3414,-3.3414,-3.3414,-3.3414,-3.3414,-3.3414,-3.3414,-3.3414,-3.3453,-3.3368,-3.347,-3.7974,-4.4887,-4.4965,-4.6574,-4.8838,-4.8827,-4.8965,-4.8867,-4.8867,-4.8867,-4.8867,-4.8867,-4.8867,-4.8867,-4.8867,-4.8862,-4.8952,-4.8952,-5.3857,-5.9227,-5.9295,-6.0966,-6.2875,-6.2779,-6.2809,-6.2822,-6.2822,-6.2822,-6.2822,-6.2822,-6.2822,-6.2822,-6.2822,-6.2864,-6.2757,-6.2816,-6.7928,-6.9591,-6.3616,-6.2761,-6.5189,-7.1149,-7.3705,-7.494,-7.4902,-7.4881,-7.4869,-7.4869,-7.4869,-7.4869,-7.4869,-7.4869,-7.4869,-7.4869,-7.4869,-7.4869,-7.4869,-7.4869,-7.4869,-7.4839,-7.4902,-7.7492,-1.6138,-1.6015,-1.6083,-1.6083,-1.6083,-1.6083,-1.6083,-1.6083,-1.707,-2.0629,-2.3819,0.0,0.0,0.0,0.0,0.0,0.0,0.0,-3.2706,-3.2879,-3.3026,0.0,-3.332,0.0,-3.3414,-3.3414,-3.3414,0.0,-3.3414,-3.3414,-3.3414,-3.3414,-3.3414,-3.3414,-3.3414,-3.3414,-3.3414,-3.3414,-3.3414,-3.3414,-3.3414,-3.3414,-3.3414,-3.3414,-3.332,-3.3359,0.0,-3.3327,-3.3782,-3.8311,-4.3643,-4.8881,-4.893,-4.8924,-4.8885,-4.8965,-4.8867,-4.8867,-4.8867,-4.8867,-4.8867,-4.8867,-4.8867,-4.8993,-4.8862,-4.885,-4.9709,-5.3799,-5.8762,-6.2837,-6.2869,-6.2837,-6.2713,-6.2759,-6.2822,-6.2822,-6.2822,-6.2822,-6.2822,-6.2822,-6.2822,-6.286,-6.2754,-6.2834,-6.3961,-6.7626,-7.1971,-7.3296,-6.8702,-6.8149,-6.9804,-7.4457,-7.497,-7.4839,-7.4832,-7.4892,-7.4843,-7.4843,-7.4843,-7.4843,-7.4843,-7.4862,-7.4941,-7.4941,-7.4929,-7.4869,-7.4869,-7.4869,-7.4902,-7.4898,-7.4948,-7.8339,-1.6049,-1.6083,-1.6083,-1.6083,-1.6096,-1.6103,-1.609,-1.6096,-1.7098,-2.0432,0.0,-2.6083,-2.7564,0.0,-3.1517,-3.2078,0.0,-3.2412,-3.2959,-3.304,-3.3133,-3.3387,-3.3414,-3.3414,-3.3414,-3.3414,-3.3414,-3.3414,-3.3414,-3.3414,-3.3414,-3.3414,-3.3414,-3.3414,-3.3414,-3.3414,-3.3414,-3.3414,-3.3414,-3.3414,-3.3414,-3.3414,-3.3414,-3.336,-3.3345,-3.3429,0.0,0.0,-3.6178,-4.5201,-4.8858,-4.893,-4.8857,-4.8867,-4.8867,-4.8867,-4.8867,-4.8867,-4.8867,-4.8973,-4.8895,-4.8895,-4.8895,-4.896,-4.8972,-4.9826,-5.2351,-6.0504,-6.2781,-6.2869,-6.2834,-6.2822,-6.2822,-6.2822,-6.2822,-6.2822,-6.2822,-6.2822,-6.2822,-6.2822,-6.2722,-6.2855,-6.2787,-6.3727,-6.6855,-7.3907,-7.4831,-7.4875,-7.4911,-7.495,-7.4916,-7.4945,-7.4839,-7.4992,-7.5369,-7.5468,-7.5476,-7.5476,-7.5476,-7.5476,-7.5476,-7.5378,-7.5309,-7.4962,-7.4832,-7.4821,-7.4929,-7.4916,-7.4855,-7.4875,-7.5806,-7.9161,-1.6076,-1.6083,-1.6083,-1.6083,-1.6178,-1.6239,-1.611,-1.6178,0.0,0.0,0.0,-2.5023,-2.7384,-3.0063,0.0,-3.2412,0.0,0.0,0.0,0.0,-3.336,0.0,0.0,0.0,0.0,0.0,0.0,0.0,0.0,0.0,-3.3414,-3.3414,-3.3414,-3.3414,-3.3414,-3.3414,-3.3414,-3.3414,-3.3414,-3.3414,-3.3414,-3.3414,-3.34,-3.3476,-3.3483,-3.3849,0.0,0.0,-4.6348,-4.8177,-4.8814,-4.8984,-4.8887,-4.8867,-4.8867,-4.8867,-4.8867,-4.8867,-4.8867,-4.8842,-4.8912,-4.8912,-4.8912,-4.8952,-4.8959,-5.4233,-6.0698,-6.2419,-6.2887,-6.2834,-6.2873,-6.2822,-6.2822,-6.2822,-6.2822,-6.2822,-6.2822,-6.2822,-6.2822,-6.2822,-6.2814,-6.2838,-6.2816,-6.8421,-7.3299,-7.4747,-7.4979,-7.4892,-7.4952,-7.4892,-7.4952,-7.4912,-7.4852,-7.5777,-7.7976,-7.8157,-7.8157,-7.8157,-7.8157,-7.8157,-7.8157,-7.8127,-7.7074,-7.4979,-7.4891,-7.4912,-7.4952,-7.4976,-7.4942,-7.5065,-8.0408,-8.3548,-1.6083,-1.6083,-1.6103,-1.6185,-1.6259,-1.6293,-1.6218,0.0,0.0,0.0,0.0,-2.6795,-2.9338,0.0,0.0,0.0,0.0,0.0,0.0,0.0,0.0,0.0,0.0,0.0,0.0,0.0,0.0,0.0,0.0,0.0,-3.3414,-3.3414,-3.3414,-3.3414,-3.3414,-3.3414,-3.3414,-3.3414,-3.3414,-3.3414,-3.3399,-3.3305,-3.3489,-3.3489,-3.6297,-4.1766,-4.6771,0.0,-4.8866,-4.8866,-4.8896,-4.8867,-4.8867,-4.8867,-4.8867,-4.8867,-4.8816,-4.8867,-4.8867,-4.8952,-4.9752,-5.463,-5.617,-5.6174,-5.6106,-5.9252,-6.2756,-6.2862,-6.2795,-6.2822,-6.2822,-6.2822,-6.2822,-6.2822,-6.2822,-6.2822,-6.2822,-6.2745,-6.2872,-6.2872,-6.2844,-6.4155,-6.8339,-7.2311,-7.4916,-7.4839,-7.4892,-7.4851,-7.4873,-7.6025,-7.6373,-7.5031,-7.6085,-7.7404,-7.8699,-7.8768,-7.8829,-7.8829,-7.8829,-7.8829,-7.8829,-7.885,-7.8145,-7.6972,-7.6963,-7.6984,-7.7004,-7.5533,-7.6653,-8.0017,-8.3192,-8.4631,-1.6076,-1.6103,-1.6157,-1.6279,-1.6361,-1.6591,-1.712,-1.8714,0.0,0.0,-2.6409,-2.856,-3.1284,0.0,0.0,0.0,0.0,0.0,0.0,0.0,0.0,0.0,0.0,0.0,0.0,0.0,0.0,0.0,0.0,0.0,-3.3414,-3.3414,-3.3414,-3.3414,-3.3414,-3.3414,-3.3414,-3.3414,-3.3374,-3.3493,-3.3381,-3.4507,-3.6652,-3.6817,-4.1174,-4.8877,-4.8969,0.0,0.0,-4.8867,-4.8867,-4.8867,-4.8867,-4.8867,-4.8848,-4.8875,-4.8847,-4.9132,-5.115,-5.1857,-5.3082,-6.0435,-6.2763,-6.2811,-6.283,-6.2776,-6.2795,-6.2834,-6.2822,-6.2822,-6.2822,-6.2822,-6.2822,-6.2822,-6.2822,-6.2772,-6.2709,-6.2879,-6.3258,-6.5081,-6.544,-6.7414,-7.3762,-7.4916,-7.4928,-7.4851,-7.4929,-7.4941,-7.4962,-7.7204,-7.7976,-7.5922,-7.7592,-7.8859,-7.8776,-7.8813,-7.8789,-7.8789,-7.8789,-7.8789,-7.8789,-7.8723,-7.8776,-7.8776,-7.885,-7.8861,-7.8838,-7.6782,-7.9096,-8.549,-8.4903,-8.4634,-1.6042,-1.6185,-1.6293,-1.6307,-1.651,-1.7242,-1.9348,0.0,0.0,-2.6509,-2.7588,-2.856,-3.1284,0.0,0.0,0.0,0.0,0.0,0.0,0.0,0.0,0.0,0.0,0.0,0.0,0.0,0.0,0.0,0.0,0.0,0.0,-3.3414,-3.3414,-3.3414,-3.3414,-3.3414,-3.3414,-3.3414,-3.3439,-3.3314,-3.3443,-3.841,-4.7461,-4.7533,-4.7951,-4.8858,0.0,0.0,0.0,-4.8867,-4.8867,-4.8867,-4.8867,-4.8867,-4.8973,-4.887,-4.8952,-5.003,-5.8526,-6.1442,-6.1643,-6.2588,-6.2735,-6.2806,-6.2845,-6.2784,-6.2759,-6.2847,-6.2822,-6.2822,-6.2822,-6.2822,-6.2822,-6.2822,-6.2822,-6.2734,-6.2808,-6.2841,-6.5055,-7.2339,-7.3728,-7.3994,-7.4747,-7.492,-7.4851,-7.4899,-7.4832,-7.4962,-7.495,-7.7233,-7.8656,-7.8489,-7.8716,-7.8776,-7.8729,-7.8789,-7.8789,-7.8789,-7.8789,-7.8789,-7.8789,-7.8759,-7.8759,-7.8759,-7.8729,-7.878,-7.882,-7.858,-8.194,-8.863,-8.585,-8.4606,-1.6151,-1.6266,-1.6354,-1.653,-1.6592,-1.7165,-1.9532,0.0,-2.3632,-2.6873,-2.8833,-3.0496,-3.1474,0.0,0.0,0.0,0.0,0.0,0.0,0.0,0.0,0.0,0.0,0.0,0.0,0.0,0.0,0.0,0.0,0.0,0.0,-3.3414,-3.3414,-3.3414,-3.3414,-3.3493,-3.3462,-3.3462,-3.3456,-3.3477,-3.9724,-4.4881,-4.8995,-4.8853,-4.8974,-4.8974,0.0,0.0,0.0,-4.8867,-4.8867,-4.8808,-4.8946,-4.8969,-4.887,-4.8888,-5.2495,-5.778,-6.1569,-6.2806,-6.2804,-6.2804,-6.2804,-6.2754,-6.2759,-6.2822,-6.2822,-6.2822,-6.2822,-6.2822,-6.2822,-6.2822,-6.2822,-6.2822,-6.2855,-6.2802,-6.2867,-6.6676,-7.1023,-7.4284,-7.4886,-7.4912,-7.4912,-7.4862,-7.4869,-7.4869,-7.4862,-7.5458,-7.7074,-7.8145,-7.8776,-7.8759,-7.8843,-7.8813,-7.8789,-7.8789,-7.8789,-7.8789,-7.8789,-7.8789,-7.8789,-7.8789,-7.8789,-7.8789,-7.8811,-7.8841,-7.8808,-8.3035,-8.6403,-8.9098,-8.7846,-8.7279,-1.6357,-1.6307,-1.6435,-1.6686,-1.7277,-1.8345,0.0,0.0,-2.5766,-2.8056,-3.0037,-3.157,-3.165,-3.1664,0.0,0.0,0.0,-3.2011,-3.2091,-3.2278,-3.2519,0.0,0.0,0.0,0.0,0.0,0.0,0.0,0.0,0.0,0.0,-3.3414,-3.3414,-3.3414,-3.3493,-3.3305,-3.3429,-3.6442,-3.7954,-3.8115,-4.5426,-4.8988,-4.8833,-4.8838,-4.8867,-4.8867,0.0,0.0,0.0,-4.8816,-4.8921,-4.8842,-4.8872,-5.0641,-5.3024,-5.2996,-5.7158,-6.2806,-6.2751,-6.2804,-6.2822,-6.2822,-6.2822,-6.2822,-6.2822,-6.2822,-6.2822,-6.2822,-6.2822,-6.2822,-6.2822,-6.2822,-6.2747,-6.2795,-6.2828,-6.3545,-6.5876,-7.0854,-7.4861,-7.4852,-7.4932,-7.4869,-7.4869,-7.4869,-7.4869,-7.4869,-7.4922,-7.5786,-7.8478,-7.8738,-7.8866,-7.8759,-7.8789,-7.8789,-7.8789,-7.8789,-7.8789,-7.8789,-7.8789,-7.8789,-7.8789,-7.8789,-7.8753,-7.885,-7.8872,-7.981,-8.1867,-8.6699,-8.9094,-8.9098,-8.9128,-8.9135,-1.6588,-1.6293,-1.6558,-1.6714,-1.8571,-2.1113,0.0,0.0,-2.8272,-3.07,-3.1223,-3.1316,-3.161,-3.1664,0.0,0.0,0.0,0.0,-3.2064,0.0,0.0,0.0,0.0,0.0,0.0,0.0,0.0,0.0,0.0,0.0,0.0,-3.3414,-3.3414,-3.3414,-3.3435,-3.3429,-3.3429,-4.3569,-4.8805,-4.8669,-4.8877,-4.8982,-4.8867,-4.8867,-4.8867,0.0,0.0,0.0,0.0,-4.885,-4.8912,-4.8852,-4.8838,-5.4586,-6.2731,-6.2592,-6.2661,-6.2732,-6.2795,-6.2822,-6.2822,-6.2822,-6.2822,-6.2822,-6.2822,-6.2822,-6.2822,-6.2822,-6.2822,-6.2822,-6.2822,-6.2822,-6.2734,-6.2889,-6.279,-6.492,-7.3096,-7.4805,-7.494,-7.4941,-7.4869,-7.4869,-7.4869,-7.4869,-7.4869,-7.4869,-7.4932,-7.5855,-7.8509,-7.8746,-7.8789,-7.8789,-7.8789,-7.8789,-7.8789,-7.8789,-7.8789,-7.8789,-7.8789,-7.8789,-7.8789,-7.8789,-7.882,-7.875,-7.8856,-8.2224,-8.9054,-8.9087,-8.9115,-8.9106,-8.9072,-8.9082,-1.8503,-1.8521,-1.9034,-2.0785,-2.1919,-2.2916,-2.5321,0.0,-2.7733,-3.0123,-3.0942,-3.1249,-3.1343,-3.153,0.0,0.0,0.0,0.0,0.0,0.0,0.0,0.0,0.0,0.0,0.0,0.0,0.0,0.0,0.0,0.0,0.0,-3.5153,-3.6129,-3.6129,-3.4394,-3.5132,-3.8751,-4.5399,-4.8877,-4.8916,-4.8916,-4.8838,-4.8867,-4.8867,0.0,0.0,0.0,0.0,0.0,-4.8812,-5.269,-5.8411,-5.8492,-6.019,-6.2787,-6.2837,-6.287,-6.2845,-6.2759,-6.2822,-6.2822,-6.2822,-6.2822,-6.2822,-6.2822,-6.2822,-6.2822,-6.2822,-6.2822,-6.2822,-6.2822,-6.2805,-6.2859,-6.2867,-6.7061,-7.1699,-7.4342,-7.4846,-7.4843,-7.4929,-7.4869,-7.4869,-7.4869,-7.4869,-7.4958,-7.4862,-7.4941,-7.5914,-7.8468,-7.8866,-7.8789,-7.8789,-7.8789,-7.8789,-7.8789,-7.8789,-7.8789,-7.8789,-7.8789,-7.8789,-7.8789,-7.8861,-7.8811,-7.8856,-8.3417,-8.6888,-8.9087,-8.9148,-8.907,-8.9072,-8.9072,-8.9038,0.0,-2.0228,-2.1284,-2.3033,-2.4094,0.0,0.0,0.0,-2.8678,-3.0016,-3.0648,-3.0929,-3.1036,0.0,0.0,0.0,0.0,0.0,0.0,0.0,0.0,0.0,0.0,0.0,0.0,0.0,0.0,0.0,0.0,0.0,0.0,0.0,-3.8246,-4.0174,-3.8311,-3.8478,-4.1201,-4.641,-4.8994,-4.8867,-4.8867,-4.8867,-4.8867,-4.8867,0.0,0.0,0.0,0.0,0.0,-5.2747,-5.764,-6.2836,-6.2707,-6.2745,-6.2837,-6.2859,-6.2822,-6.2822,-6.2822,-6.2822,-6.2822,-6.2822,-6.2822,-6.2822,-6.2822,-6.2822,-6.2822,-6.2822,-6.2822,-6.2747,-6.2855,-6.2777,-6.3545,-6.6676,-7.1262,-7.4861,-7.4905,-7.4902,-7.4869,-7.4869,-7.4869,-7.4869,-7.4869,-7.4869,-7.4851,-7.4873,-7.5757,-7.7023,-7.8536,-7.8783,-7.8789,-7.8789,-7.8789,-7.8789,-7.8789,-7.8789,-7.8789,-7.8789,-7.8789,-7.8723,-7.8841,-7.8841,-8.0007,-8.2612,-8.6888,-8.9127,-8.9048,-8.907,-8.9072,-8.9072,-8.9072,-8.9072,0.0,0.0,0.0,0.0,0.0,0.0,0.0,0.0,0.0,0.0,0.0,0.0,0.0,0.0,0.0,0.0,0.0,0.0,0.0,0.0,0.0,0.0,0.0,0.0,0.0,0.0,0.0,0.0,0.0,0.0,0.0,0.0,-3.9981,-4.4796,-4.4446,-4.3257,-4.1834,-4.6485,-4.8867,-4.8867,-4.8867,-4.8867,-4.8867,-4.8867,0.0,0.0,0.0,0.0,0.0,-5.9218,-6.2806,-6.285,-6.2795,-6.2822,-6.2822,-6.2822,-6.2822,-6.2822,-6.2822,-6.2822,-6.2822,-6.2822,-6.2822,-6.2822,-6.2822,-6.2822,-6.2822,-6.2747,-6.2722,-6.282,-6.2787,-6.3285,-6.5515,-7.3096,-7.489,-7.4881,-7.4941,-7.4869,-7.4869,-7.4869,-7.4869,-7.4869,-7.4869,-7.4869,-7.4851,-7.4873,-7.7124,-7.8811,-7.8798,-7.8783,-7.8789,-7.8789,-7.8789,-7.8789,-7.8789,-7.8789,-7.8789,-7.8789,-7.8789,-7.882,-7.875,-7.9342,-8.2545,-8.9021,-8.9141,-8.9048,-8.9072,-8.9072,-8.9072,-8.9072,-8.9072,-8.9072,-2.532,0.0,-2.596,-2.7879,-2.878,-2.9274,0.0,0.0,0.0,0.0,0.0,0.0,0.0,0.0,0.0,0.0,0.0,0.0,0.0,0.0,0.0,0.0,0.0,0.0,0.0,0.0,0.0,0.0,0.0,0.0,0.0,0.0,-4.3832,-4.4984,-4.6691,-4.7398,-4.7117,-4.8216,-4.8867,-4.8867,-4.8867,-4.8867,-4.8867,-4.8867,0.0,0.0,0.0,0.0,-5.9631,-6.1983,-6.282,-6.277,-6.2734,-6.2822,-6.2822,-6.2822,-6.2822,-6.2822,-6.2822,-6.2822,-6.2822,-6.2822,-6.2822,-6.2822,-6.2822,-6.2822,-6.2834,-6.2879,-6.2834,-6.2761,-6.2839,-6.7475,-7.2514,-7.44,-7.4928,-7.4892,-7.4929,-7.4869,-7.4869,-7.4869,-7.4869,-7.4869,-7.4869,-7.4869,-7.4851,-7.4873,-7.7124,-7.8811,-7.8798,-7.8783,-7.8789,-7.8789,-7.8789,-7.8789,-7.8789,-7.8789,-7.8789,-7.8789,-7.8789,-7.882,-7.875,-8.3878,-8.7464,-8.9087,-8.9081,-8.9117,-8.9072,-8.9072,-8.9072,-8.9072,-8.9072,-8.9072,-2.8104,-2.7883,-2.8256,-2.9541,-2.9913,-2.9913,-2.9913,0.0,0.0,0.0,0.0,0.0,0.0,0.0,0.0,0.0,0.0,0.0,0.0,0.0,0.0,0.0,0.0,0.0,0.0,0.0,0.0,0.0,0.0,0.0,0.0,0.0,-4.5567,-4.6728,-4.8088,-4.8867,-4.8867,-4.8867,-4.8867,-4.8867,-4.8867,-4.8867,-4.9052,-5.1128,0.0,0.0,0.0,0.0,-6.2806,-6.2795,-6.273,-6.2822,-6.2822,-6.2822,-6.2822,-6.2822,-6.2822,-6.2822,-6.2822,-6.2822,-6.2822,-6.2822,-6.2822,-6.2747,-6.278,-6.2788,-6.2847,-6.2787,-6.5524,-6.828,-6.8318,-7.1535,-7.4831,-7.4957,-7.4843,-7.4869,-7.4869,-7.4869,-7.4869,-7.4869,-7.4869,-7.4869,-7.4869,-7.4869,-7.4851,-7.4873,-7.6105,-7.7434,-7.8708,-7.8783,-7.8789,-7.8789,-7.8789,-7.8789,-7.8789,-7.8789,-7.8836,-7.8861,-7.8831,-7.8735,-7.874,-8.5401,-8.9089,-8.9065,-8.915,-8.9072,-8.9072,-8.9072,-8.9072,-8.9072,-8.9072,-8.9072,-2.9753,-2.998,-3.0034,-2.994,-2.9913,-2.9913,-2.9913,0.0,0.0,0.0,0.0,0.0,0.0,0.0,0.0,0.0,0.0,0.0,0.0,0.0,0.0,0.0,0.0,0.0,0.0,0.0,0.0,0.0,0.0,0.0,0.0,0.0,0.0,-4.8848,-4.8867,-4.8867,-4.8867,-4.8867,-4.8867,-4.8867,-4.9663,-4.9887,-5.0091,-5.4101,-5.4072,0.0,0.0,0.0,-6.2776,-6.277,-6.2822,-6.2822,-6.2822,-6.2822,-6.2822,-6.2822,-6.2822,-6.2822,-6.2822,-6.2822,-6.2822,-6.2822,-6.2722,-6.277,-6.2731,-6.3727,-6.4712,-6.4712,-6.9661,-7.486,-7.4864,-7.4886,-7.4934,-7.4941,-7.4869,-7.4869,-7.4869,-7.4869,-7.4869,-7.4869,-7.4869,-7.4869,-7.4869,-7.4869,-7.4958,-7.4952,-7.4971,-7.5773,-7.8386,-7.8753,-7.8789,-7.8789,-7.8789,-7.8789,-7.8789,-7.8789,-7.879,-7.8808,-7.9755,-8.0369,-8.0417,-8.5986,-8.9098,-8.9106,-8.9072,-8.9072,-8.9072,-8.9072,-8.9072,-8.9072,-8.9072,-8.9072,-2.9753,-3.0274,-3.0541,-3.0047,-2.9913,-2.9913,-2.9913,0.0,0.0,0.0,0.0,0.0,0.0,0.0,0.0,0.0,0.0,0.0,0.0,0.0,0.0,0.0,0.0,0.0,0.0,0.0,0.0,0.0,0.0,0.0,0.0,0.0,0.0,-4.8867,-4.8867,-4.8867,-4.8867,-4.8867,-4.8867,-4.8867,-5.2995,-5.4878,-5.4856,-5.5578,-5.7653,0.0,0.0,-5.9237,-6.2834,-6.2873,-6.2822,-6.2822,-6.2822,-6.2822,-6.2822,-6.2822,-6.2822,-6.2822,-6.2822,-6.2822,-6.2822,-6.2822,-6.2754,-6.2838,-6.2841,-6.7653,-7.3096,-7.3096,-7.3908,-7.4949,-7.4962,-7.497,-7.4941,-7.4899,-7.4869,-7.4869,-7.4869,-7.4869,-7.4869,-7.4869,-7.4869,-7.4869,-7.4869,-7.4869,-7.4899,-7.4929,-7.4823,-7.5855,-7.8428,-7.8776,-7.8789,-7.8789,-7.8789,-7.8789,-7.8789,-7.8789,-7.885,-7.8798,-8.4346,-8.7563,-8.7546,-8.8496,-8.9128,-8.9072,-8.9072,-8.9072,-8.9072,-8.9072,-8.9072,-8.9072,-8.9072,-8.9072,-2.9566,-2.9993,-3.0327,-3.0381,-3.0635,-3.0862,-3.0862,0.0,0.0,0.0,0.0,0.0,0.0,0.0,0.0,0.0,0.0,0.0,0.0,0.0,0.0,0.0,0.0,0.0,0.0,0.0,0.0,0.0,0.0,0.0,0.0,0.0,0.0,0.0,-4.8867,-4.8867,-4.8867,-5.0094,-5.1025,-5.1511,-5.441,-5.7223,-5.9561,-5.8334,-5.9588,-6.2612,0.0,-6.0899,-6.2822,-6.2822,-6.2822,-6.2822,-6.2822,-6.2822,-6.2822,-6.2822,-6.2822,-6.2822,-6.2822,-6.2822,-6.2747,-6.2839,-6.2834,-6.3571,-6.8037,-7.1903,-7.4831,-7.4869,-7.4861,-7.4912,-7.4851,-7.4869,-7.4869,-7.4869,-7.4869,-7.4869,-7.4869,-7.4869,-7.4869,-7.4869,-7.4869,-7.4869,-7.4869,-7.4869,-7.4869,-7.4869,-7.4952,-7.5816,-7.8509,-7.8768,-7.8783,-7.8789,-7.8789,-7.8789,-7.8789,-7.876,-8.0446,-8.4187,-8.7385,-8.9133,-8.9081,-8.9117,-8.9072,-8.9072,-8.9072,-8.9072,-8.9072,-8.9072,-8.9072,-8.9072,-8.9072,-8.9072,-2.9406,-2.9793,-3.0234,-3.0675,-3.1022,-3.133,-3.161,0.0,0.0,0.0,0.0,0.0,0.0,0.0,0.0,0.0,0.0,0.0,0.0,0.0,0.0,0.0,0.0,0.0,0.0,0.0,0.0,0.0,0.0,0.0,0.0,0.0,0.0,0.0,-4.8867,-4.9216,-4.9748,-5.1729,-5.2872,-5.3336,-5.5667,-5.8457,-6.1879,-6.0773,-6.106,-6.2869,-6.277,-6.2822,-6.2822,-6.2822,-6.2822,-6.2822,-6.2822,-6.2822,-6.2822,-6.2822,-6.2822,-6.3011,-6.3839,-6.3635,-6.2805,-6.2764,-6.4088,-6.6855,-7.3096,-7.4945,-7.4875,-7.4941,-7.4869,-7.4869,-7.4869,-7.4869,-7.4869,-7.4869,-7.4869,-7.4869,-7.4869,-7.4869,-7.4869,-7.4869,-7.4869,-7.4869,-7.4869,-7.4869,-7.4869,-7.4869,-7.4862,-7.5687,-7.7625,-7.8407,-7.8776,-7.8813,-7.8759,-7.8813,-7.8829,-8.0295,-8.343,-8.8725,-8.9115,-8.9072,-8.9072,-8.9072,-8.9072,-8.9072,-8.9072,-8.9072,-8.9072,-8.9072,-8.9072,-8.9072,-8.9072,-8.9072,-2.9406,-3.01,-3.0742,-3.0782,-3.0408,0.0,-3.1423,-3.1249,0.0,0.0,0.0,0.0,0.0,0.0,0.0,0.0,0.0,0.0,0.0,0.0,0.0,0.0,0.0,0.0,0.0,0.0,0.0,0.0,0.0,0.0,0.0,0.0,0.0,0.0,0.0,-4.9911,-5.2207,-5.2935,-5.3114,-5.2566,-5.6941,-5.9256,-5.9666,-6.1647,-6.2684,-6.2759,-6.2847,-6.2822,-6.2822,-6.2822,-6.2822,-6.2822,-6.2822,-6.2822,-6.2822,-6.2822,-6.2822,-6.3412,-6.7217,-6.6028,-6.2739,-6.2809,-6.7838,-7.4139,-7.4747,-7.4869,-7.4821,-7.4899,-7.4869,-7.4869,-7.4869,-7.4869,-7.4869,-7.4869,-7.4869,-7.4869,-7.4869,-7.4869,-7.4869,-7.4869,-7.4869,-7.4869,-7.4869,-7.4869,-7.4869,-7.4869,-7.4862,-7.4962,-7.522,-7.7344,-7.8829,-7.8859,-7.8783,-7.8768,-7.8796,-8.4719,-8.8529,-8.9133,-8.9144,-8.9072,-8.9072,-8.9072,-8.9072,-8.9072,-8.9072,-8.9072,-8.9072,-8.9072,-8.9072,-8.9072,-8.9072,-8.9072,-2.9179,-2.998,-3.0795,-3.0795,-3.0621,0.0,0.0,-3.2038,0.0,0.0,0.0,0.0,0.0,0.0,0.0,0.0,0.0,0.0,0.0,0.0,0.0,0.0,0.0,0.0,0.0,0.0,0.0,0.0,0.0,0.0,0.0,0.0,0.0,0.0,-5.0276,-5.1507,-5.2387,-5.5597,-5.6987,-5.6723,-6.0,-6.1398,-6.1432,-6.247,-6.2822,-6.2822,-6.2822,-6.2822,-6.2822,-6.2822,-6.2822,-6.2822,-6.2822,-6.2822,-6.2822,-6.2822,-6.2822,-6.3199,-6.6503,-6.88,-7.0383,-7.0388,-7.246,-7.4831,-7.492,-7.4892,-7.4869,-7.4869,-7.4869,-7.4869,-7.4869,-7.4869,-7.4869,-7.4869,-7.4869,-7.4869,-7.4869,-7.4869,-7.4869,-7.4869,-7.4869,-7.4869,-7.4869,-7.4869,-7.4869,-7.4869,-7.4821,-7.4832,-7.4873,-7.5727,-7.6963,-7.8678,-7.8831,-7.8766,-7.8777,-8.5113,-8.91,-8.9062,-8.9083,-8.9072,-8.9072,-8.9072,-8.9072,-8.9072,-8.9072,-8.9072,-8.9072,-8.9072,-8.9072,-8.9072,-8.9072,-8.9072,-2.8898,-2.9633,-3.0421,0.0,0.0,0.0,-3.2278,-3.2398,-3.2372,0.0,0.0,0.0,0.0,0.0,0.0,0.0,0.0,0.0,0.0,0.0,0.0,0.0,0.0,0.0,0.0,0.0,0.0,0.0,0.0,0.0,0.0,0.0,0.0,0.0,-5.2207,-5.3771,-5.4632,-5.7754,-5.9667,-6.0362,-6.1998,-6.2854,-6.2822,-6.2822,-6.2822,-6.2822,-6.2822,-6.2822,-6.2822,-6.2822,-6.2822,-6.2822,-6.2822,-6.2822,-6.2822,-6.3584,-6.372,-6.4203,-6.7303,-7.063,-7.3776,-7.4603,-7.4905,-7.4928,-7.4941,-7.4869,-7.4869,-7.4869,-7.4869,-7.4869,-7.4869,-7.4869,-7.4869,-7.4869,-7.4869,-7.4869,-7.4869,-7.4869,-7.4869,-7.4869,-7.4869,-7.4869,-7.4869,-7.4869,-7.4869,-7.4869,-7.4869,-7.4958,-7.4862,-7.4843,-7.5946,-7.8498,-7.8796,-7.9716,-8.1887,-8.6357,-8.9098,-8.914,-8.9072,-8.9072,-8.9072,-8.9072,-8.9072,-8.9072,-8.9072,-8.9072,-8.9072,-8.9072,-8.9072,-8.9072,-8.9072,-8.9038,-2.8604,0.0,0.0,0.0,0.0,0.0,0.0,-3.2091,-3.2011,0.0,0.0,0.0,0.0,0.0,0.0,0.0,0.0,0.0,0.0,0.0,0.0,0.0,0.0,0.0,0.0,0.0,0.0,0.0,0.0,0.0,0.0,0.0,0.0,0.0,-5.4654,-5.7091,-5.9307,-5.9307,-6.0528,-6.2822,-6.2822,-6.2822,-6.2822,-6.2822,-6.2822,-6.2822,-6.2822,-6.2822,-6.2822,-6.2822,-6.2822,-6.2822,-6.2822,-6.2822,-6.3123,-6.5082,-6.5844,-6.6441,-7.0492,-7.1482,-7.1395,-7.4001,-7.4869,-7.4869,-7.4869,-7.4869,-7.4869,-7.4869,-7.4869,-7.4869,-7.4869,-7.4869,-7.4869,-7.4869,-7.4869,-7.4869,-7.4869,-7.4869,-7.4869,-7.4869,-7.4869,-7.4869,-7.4869,-7.4869,-7.4869,-7.4869,-7.4869,-7.4869,-7.4869,-7.4832,-7.5893,-7.8543,-7.8801,-8.1621,-8.846,-8.9054,-8.9064,-8.914,-8.9072,-8.9072,-8.9072,-8.9072,-8.9072,-8.9072,-8.9072,-8.9072,-8.9072,-8.9072,-8.9072,-8.9072,-8.9072,-8.9082,-2.8911,0.0,0.0,0.0,0.0,0.0,0.0,-3.2412,0.0,0.0,0.0,0.0,0.0,0.0,0.0,0.0,0.0,0.0,0.0,0.0,0.0,0.0,0.0,0.0,0.0,0.0,0.0,0.0,0.0,0.0,0.0,0.0,0.0,0.0,-5.7068,-5.863,-5.9307,-6.0886,-6.2117,-6.2822,-6.2822,-6.2822,-6.2822,-6.2822,-6.2822,-6.2822,-6.2822,-6.2822,-6.2822,-6.2822,-6.2822,-6.2985,-6.4338,-6.4949,-6.5082,-6.7215,-6.798,-6.8435,-7.0959,-7.0851,-7.0136,-7.3685,-7.4869,-7.4869,-7.4869,-7.4869,-7.4869,-7.4869,-7.4869,-7.4869,-7.4869,-7.4869,-7.4869,-7.4869,-7.4869,-7.4869,-7.4869,-7.4869,-7.4869,-7.4869,-7.4869,-7.4869,-7.4869,-7.4869,-7.4869,-7.4869,-7.4869,-7.4842,-7.4861,-7.488,-7.5246,-7.6019,-8.2068,-8.6919,-8.8941,-8.913,-8.9049,-8.9106,-8.9072,-8.9072,-8.9072,-8.9072,-8.9072,-8.9072,-8.9072,-8.9072,-8.9072,-8.9072,-8.9116,-8.9126,-8.9126,-8.9135,0.0,0.0,0.0,0.0,0.0,0.0,0.0,0.0,0.0,0.0,0.0,0.0,0.0,0.0,0.0,0.0,0.0,0.0,0.0,0.0,0.0,0.0,0.0,0.0,0.0,0.0,0.0,0.0,0.0,0.0,0.0,0.0,0.0,0.0,-5.9499,-6.0719,-6.0719,-6.2117,-6.2822,-6.2822,-6.2822,-6.2822,-6.2822,-6.2822,-6.2822,-6.2822,-6.2822,-6.2822,-6.2822,-6.2822,-6.3286,-6.4042,-6.5398,-6.6312,-6.7215,-6.9337,-7.0079,-7.0374,-7.2456,-7.2332,-7.1615,-7.405,-7.4869,-7.4869,-7.4869,-7.4869,-7.4869,-7.4869,-7.4869,-7.4869,-7.4869,-7.4869,-7.4869,-7.4869,-7.4869,-7.4869,-7.4869,-7.4869,-7.4869,-7.4869,-7.4869,-7.4869,-7.4869,-7.4869,-7.4869,-7.4869,-7.4887,-7.488,-7.4867,-7.7206,-7.8691,-7.8786,-8.3887,-8.7345,-8.7343,-8.8453,-8.9101,-8.9092,-8.9092,-8.9092,-8.9092,-8.9116,-8.9072,-8.9072,-8.9072,-8.9038,-8.9082,-8.9082,-8.9126,-8.9033,-8.7897,-8.7279,0.0,0.0,0.0,0.0,0.0,0.0,0.0,0.0,0.0,0.0,0.0,0.0,0.0,0.0,0.0,0.0,0.0,0.0,0.0,0.0,0.0,0.0,0.0,0.0,0.0,0.0,0.0,0.0,0.0,0.0,0.0,0.0,0.0,0.0,-6.1763,-6.2822,-6.2822,-6.2822,-6.2822,0.0,-6.2822,-6.2822,-6.2822,-6.2822,-6.2822,-6.2822,-6.2822,-6.2822,-6.2822,-6.2822,-6.4042,-6.5844,-6.6,-6.7368,-6.9337,-7.1423,-7.2171,-7.2456,-7.4258,-7.4869,-7.4869,-7.4869,-7.4869,-7.4869,-7.4869,-7.4869,-7.4869,-7.4869,-7.4869,-7.4869,-7.4869,-7.4869,-7.4869,-7.4869,-7.4869,-7.4869,-7.4869,-7.4869,-7.4869,-7.4869,-7.4869,-7.4869,-7.4869,-7.4869,-7.4839,-7.4856,-7.4922,-7.5065,-7.5764,-8.0895,-8.4642,-8.4573,-8.4621,-8.4631,-8.4564,-8.7152,-8.8667,-8.8701,-8.8701,-8.8701,-8.8701,-8.899,-8.915,-8.915,-8.915,-8.9082,-8.9135,-8.8821,-8.8727,-8.8633,-8.5911,-8.4614,0.0,0.0,0.0,0.0,0.0,0.0,0.0,0.0,0.0,0.0,0.0,0.0,0.0,0.0,0.0,0.0,0.0,0.0,0.0,0.0,0.0,0.0,0.0,0.0,0.0,0.0,0.0,0.0,0.0,0.0,0.0,0.0,0.0,-6.1952,-6.2495,-6.2822,-6.2822,-6.2822,-6.2822,0.0,-6.2822,-6.2822,-6.2822,-6.2822,-6.2822,-6.2822,-6.2822,-6.2822,-6.2822,-6.2822,-6.4042,-6.6,-6.7522,-6.9486,-7.1568,-7.3503,-7.4258,-7.4258,-7.4731,-7.4869,-7.4869,-7.4869,-7.4869,-7.4869,-7.4869,-7.4869,-7.4869,-7.4869,-7.4869,-7.4869,-7.4869,-7.4869,-7.4869,-7.4869,-7.4869,-7.4869,-7.4869,-7.4869,-7.4869,-7.4869,-7.4869,-7.4869,-7.4869,-7.4869,-7.4842,-7.4871,-7.4928,-7.668,-8.1804,-8.3779,-8.457,-8.4573,-8.4581,-8.4547,-8.4622,-8.5169,-8.554,-8.5566,-8.5599,-8.5599,-8.5599,-8.7795,-8.9109,-8.9109,-8.9109,-8.9109,-8.9041,-8.673,-8.5532,-8.5547,-8.4858,-8.4629,0.0,0.0,0.0,0.0,0.0,0.0,0.0,0.0,0.0,0.0,0.0,0.0,0.0,0.0,0.0,0.0,0.0,0.0,0.0,0.0,0.0,0.0,0.0,0.0,0.0,0.0,0.0,0.0,0.0,0.0,0.0,-6.0362,-6.1598,-6.2822,-6.2822,-6.2822,-6.2822,-6.2822,-6.2822,-6.2822,-6.2822,-6.2822,-6.2822,-6.2822,-6.2822,-6.2822,-6.2822,-6.3286,-6.4177,-6.4177,-6.6,-6.886,-6.9931,-7.1568,-7.3503,-7.4564,-7.4869,-7.4869,-7.4869,-7.4869,-7.4869,-7.4869,-7.4869,-7.4869,-7.4869,-7.4869,-7.4869,-7.4869,-7.4869,-7.4869,-7.4869,-7.4869,-7.4869,-7.4869,-7.4869,-7.4869,-7.4869,-7.4869,-7.4869,-7.4869,-7.4869,-7.4869,-7.4869,-7.4869,-7.4932,-7.4868,-7.7524,-8.0713,-8.4215,-8.459,-8.4544,-8.4635,-8.464,-8.4567,-8.4635,-8.4669,-8.4595,-8.4588,-8.4588,-8.4588,-8.4588,-8.6169,-8.6989,-8.6941,-8.6941,-8.6907,-8.6914,-8.5405,-8.4622,-8.4669,-8.4669,-8.4601,0.0,0.0,0.0,0.0,0.0,0.0,0.0,0.0,0.0,0.0,0.0,0.0,0.0,0.0,0.0,0.0,0.0,0.0,0.0,0.0,0.0,0.0,0.0,0.0,0.0,0.0,0.0,0.0,0.0,0.0,-5.9835,-6.1763,-6.2822,-6.2822,-6.2822,-6.2822,-6.2822,-6.2822,-6.2822,-6.2822,-6.2822,-6.2822,-6.2822,-6.2822,-6.2985,-6.3286,-6.3286,-6.4497,-6.6312,-6.6312,-6.8559,-7.1856,-7.1856,-7.3052,-7.4869,-7.4869,-7.4869,-7.4869,-7.4869,-7.4869,-7.4869,-7.4869,-7.4869,-7.4869,-7.4869,-7.4869,-7.4869,-7.4869,-7.4869,-7.4869,-7.4869,-7.4869,-7.4869,-7.4869,-7.4869,-7.4869,-7.4869,-7.4869,-7.4869,-7.4869,-7.4869,-7.4869,-7.4869,-7.4869,-7.4886,-7.4902,-7.952,-8.2905,-8.2965,-8.3912,-8.4601,-8.4601,-8.464,-8.464,-8.464,-8.464,-8.464,-8.464,-8.464,-8.464,-8.464,-8.464,-8.4561,-8.4539,-8.4539,-8.4581,-8.4629,-8.4629,-8.4561,-8.464,-8.464,-8.464,0.0,0.0,0.0,0.0,0.0,0.0,0.0,0.0,0.0,0.0,0.0,0.0,0.0,0.0,0.0,0.0,0.0,0.0,0.0,0.0,0.0,0.0,0.0,0.0,0.0,0.0,0.0,0.0,0.0,0.0,-6.2281,-6.2659,-6.2822,-6.2822,-6.2822,-6.2822,-6.2822,-6.2822,-6.2822,-6.2822,-6.2822,-6.2822,-6.2822,-6.2822,-6.372,-6.5398,-6.5398,-6.6623,-6.8435,-6.8435,-6.9783,-7.1856,-7.1856,-7.3052,-7.4869,-7.4869,-7.4869,-7.4869,-7.4869,-7.4869,-7.4869,-7.4869,-7.4869,-7.4869,-7.4869,-7.4869,-7.4869,-7.4869,-7.4869,-7.4869,-7.4869,-7.4869,-7.4869,-7.4869,-7.4869,-7.4869,-7.4869,-7.4869,-7.4869,-7.4869,-7.4869,-7.4869,-7.4869,-7.4869,-7.4885,-7.4873,-7.5681,-7.6148,-7.619,-8.1142,-8.4561,-8.464,-8.464,-8.464,-8.464,-8.464,-8.464,-8.464,-8.464,-8.464,-8.464,-8.464,-8.464,-8.4601,-8.4601,-8.4567,-8.4567,-8.4567,-8.464,-8.464,-8.464,-8.464,0.0,0.0,0.0,0.0,0.0,0.0,0.0,0.0,0.0,0.0,0.0,0.0,0.0,0.0,0.0,0.0,0.0,0.0,0.0,0.0,0.0,0.0,0.0,0.0,0.0,0.0,0.0,0.0,0.0,-6.1763,-6.2659,-6.2822,-6.2822,-6.2822,-6.2822,-6.2822,-6.2822,-6.2822,-6.2822,-6.2822,-6.2822,-6.2822,-6.2822,-6.4042,-6.4949,-6.5844,-6.5844,-6.7648,-7.0521,-7.0521,-7.1712,-7.3533,-7.3533,-7.412,-7.4869,-7.4869,-7.4869,-7.4869,-7.4869,-7.4869,-7.4869,-7.4869,-7.4869,-7.4869,-7.4869,-7.4869,-7.4869,-7.4869,-7.4869,-7.4869,-7.4869,-7.4869,-7.4869,-7.4869,-7.4869,-7.4869,-7.4869,-7.4869,-7.4869,-7.4869,-7.4869,-7.4932,-7.4838,-7.485,-7.4829,-7.4872,-7.8014,-8.0334,-8.0274,-8.2866,-8.4598,-8.4567,-8.464,-8.464,-8.464,-8.464,-8.464,-8.464,-8.464,-8.464,-8.464,-8.464,-8.464,-8.464,-8.464,-8.464,-8.464,-8.464,-8.464,-8.464,-8.464,-8.464,0.0,0.0,0.0,0.0,0.0,0.0,0.0,0.0,0.0,0.0,0.0,0.0,0.0,0.0,0.0,0.0,0.0,0.0,0.0,0.0,0.0,0.0,0.0,0.0,0.0,0.0,0.0,0.0,0.0,-6.2822,-6.2822,-6.2822,-6.2822,-6.2822,-6.2822,-6.2822,-6.2822,-6.2822,-6.2822,-6.2822,-6.3286,-6.3584,-6.3584,-6.5687,-6.6906,-6.7341,-6.7341,-6.9309,-7.2599,-7.2599,-7.3503,-7.4869,-7.4869,-7.4869,-7.4869,-7.4869,-7.4869,-7.4869,-7.4869,-7.4869,-7.4869,-7.4869,-7.4869,-7.4869,-7.4869,-7.4869,-7.4869,-7.4869,-7.4869,-7.4869,-7.4869,-7.4869,-7.4869,-7.4869,-7.4869,-7.4869,-7.4869,-7.4869,-7.4869,-7.4869,-7.4869,-7.4872,-7.4963,-7.6308,-7.7365,-7.7394,-8.1432,-8.4616,-8.4598,-8.4577,-8.4612,-8.4601,-8.464,-8.464,-8.464,-8.464,-8.464,-8.464,-8.464,-8.464,-8.464,-8.464,-8.464,-8.464,-8.464,-8.464,-8.464,-8.464,-8.464,-8.464,-8.464,-8.464,0.0,0.0,0.0,0.0,0.0,0.0,0.0,0.0,0.0,0.0,0.0,0.0,0.0,0.0,0.0,0.0,0.0,0.0,0.0,0.0,0.0,0.0,0.0,0.0,0.0,0.0,0.0,0.0,0.0,-6.2822,-6.2822,-6.2822,-6.2822,-6.2822,-6.2822,-6.2822,-6.2822,-6.2822,-6.2822,-6.2822,-6.479,-6.5687,-6.5687,-6.7827,-6.9783,-7.1568,-7.1568,-7.277,-7.4731,-7.4731,-7.4869,-7.4869,-7.4869,-7.4869,-7.4869,-7.4869,-7.4869,-7.4869,-7.4869,-7.4869,-7.4869,-7.4869,-7.4869,-7.4869,-7.4869,-7.4869,-7.4869,-7.4869,-7.4869,-7.4869,-7.4869,-7.4869,-7.4869,-7.4869,-7.4869,-7.4869,-7.4869,-7.4869,-7.4869,-7.4869,-7.4869,-7.4869,-7.4946,-7.9973,-8.4059,-8.4121,-8.4386,-8.4564,-8.4629,-8.4601,-8.4567,-8.464,-8.464,-8.464,-8.464,-8.464,-8.464,-8.464,-8.464,-8.464,-8.464,-8.464,-8.464,-8.464,-8.464,-8.464,-8.464,-8.464,-8.464,-8.464,-8.464,-8.464,-3.5948,0.0,0.0,0.0,0.0,0.0,0.0,0.0,0.0,0.0,0.0,0.0,0.0,0.0,0.0,0.0,0.0,0.0,0.0,0.0,0.0,0.0,0.0,0.0,0.0,0.0,0.0,0.0,0.0,0.0,-6.2822,-6.2822,-6.2822,-6.2822,-6.2822,-6.2822,-6.2822,-6.2822,-6.2822,-6.2822,-6.479,-6.5844,-6.5844,-6.9309,-7.125,-7.1999,-7.3222,-7.4258,-7.4869,-7.4869,-7.4869,-7.4869,-7.4869,-7.4869,-7.4869,-7.4869,-7.4869,-7.4869,-7.4869,-7.4869,-7.4869,-7.4869,-7.4869,-7.4869,-7.4869,-7.4869,-7.4869,-7.4869,-7.4869,-7.4869,-7.4869,-7.4869,-7.4869,-7.4869,-7.4869,-7.4869,-7.4869,-7.4869,-7.4869,-7.4869,-7.4946,-7.4881,-7.4922,-7.6864,-7.9806,-8.3985,-8.4655,-8.4614,-8.4567,-8.464,-8.464,-8.464,-8.464,-8.464,-8.464,-8.464,-8.464,-8.464,-8.464,-8.464,-8.464,-8.464,-8.464,-8.464,-8.464,-8.464,-8.464,-8.464,-8.464,-8.464,-8.464,-8.464,-3.6899,-3.9305,0.0,0.0,0.0,0.0,0.0,0.0,0.0,0.0,0.0,0.0,0.0,0.0,0.0,0.0,0.0,0.0,0.0,0.0,0.0,0.0,0.0,0.0,0.0,0.0,0.0,0.0,0.0,0.0,-6.2822,-6.2822,-6.2822,-6.2822,-6.2822,-6.2822,-6.2822,-6.2822,-6.3123,-6.3882,-6.5844,-6.7215,-6.7953,-7.1394,-7.2911,-7.2911,-7.4258,-7.4869,-7.4869,-7.4869,-7.4869,-7.4869,-7.4869,-7.4869,-7.4869,-7.4869,-7.4869,-7.4869,-7.4869,-7.4869,-7.4869,-7.4869,-7.4869,-7.4869,-7.4869,-7.4869,-7.4869,-7.4869,-7.4869,-7.4869,-7.4869,-7.4869,-7.4869,-7.4869,-7.4869,-7.4916,-7.4932,-7.4872,-7.4886,-7.4932,-7.4902,-7.561,-7.7769,-7.8142,-7.9593,-8.3985,-8.4629,-8.464,-8.464,-8.464,-8.464,-8.464,-8.464,-8.464,-8.464,-8.464,-8.464,-8.464,-8.464,-8.464,-8.464,-8.464,-8.464,-8.464,-8.464,-8.464,-8.464,-8.464,-8.464,-8.464,-8.464,-8.464,0.0,0.0,0.0,0.0,0.0,0.0,0.0,0.0,0.0,0.0,0.0,0.0,0.0,0.0,0.0,0.0,0.0,0.0,0.0,0.0,0.0,0.0,0.0,0.0,0.0,0.0,0.0,0.0,0.0,-6.2822,-6.2822,-6.2822,-6.2822,-6.2822,-6.2822,-6.2822,-6.2822,-6.2822,-6.3882,-6.5844,-6.798,-6.9931,-7.1999,-7.3981,-7.4869,-7.4869,-7.4869,-7.4869,-7.4869,-7.4869,-7.4869,-7.4869,-7.4869,-7.4869,-7.4869,-7.4869,-7.4869,-7.4869,-7.4869,-7.4869,-7.4869,-7.4869,-7.4869,-7.4869,-7.4869,-7.4869,-7.4869,-7.4869,-7.4869,-7.4869,-7.4869,-7.4869,-7.4869,-7.4869,-7.4839,-7.4917,-7.4859,-7.5062,-7.5113,-7.4959,-7.5034,-7.7178,-8.3577,-8.457,-8.457,-8.457,-8.4598,-8.464,-8.464,-8.464,-8.464,-8.464,-8.464,-8.464,-8.464,-8.464,-8.464,-8.464,-8.464,-8.464,-8.464,-8.464,-8.464,-8.464,-8.464,-8.464,-8.464,-8.464,-8.464,-8.464,-8.464,-8.464,-3.9225,0.0,0.0,0.0,0.0,0.0,0.0,0.0,0.0,0.0,0.0,0.0,0.0,0.0,0.0,0.0,0.0,0.0,0.0,0.0,0.0,0.0,0.0,0.0,0.0,0.0,0.0,0.0,-6.2822,-6.2822,-6.2822,-6.2822,-6.2822,-6.2822,-6.2822,-6.2822,-6.2822,-6.2822,-6.3882,-6.5844,-6.798,-6.9931,-7.1999,-7.3981,-7.4869,-7.4869,-7.4869,-7.4869,-7.4869,-7.4869,-7.4869,-7.4869,-7.4869,-7.4869,-7.4869,-7.4869,-7.4869,-7.4869,-7.4869,-7.4869,-7.4869,-7.4869,-7.4869,-7.4869,-7.4869,-7.4869,-7.4869,-7.4869,-7.4869,-7.4869,-7.4869,-7.4869,-7.4869,-7.4869,-7.4915,-7.4881,-7.4966,-7.8625,-8.0491,-7.587,-7.8755,-8.2518,-8.4324,-8.4623,-8.4614,-8.4614,-8.4595,-8.464,-8.464,-8.464,-8.464,-8.464,-8.464,-8.464,-8.464,-8.464,-8.464,-8.464,-8.464,-8.464,-8.464,-8.464,-8.464,-8.464,-8.464,-8.464,-8.464,-8.464,-8.464,-8.464,-8.464,-8.464,-4.1453,-4.2678,-4.3711,0.0,0.0,0.0,0.0,-4.5937,0.0,0.0,0.0,0.0,0.0,0.0,0.0,0.0,0.0,0.0,0.0,0.0,0.0,0.0,0.0,0.0,0.0,0.0,0.0,-6.2822,-6.2822,-6.2822,-6.2822,-6.2822,-6.2822,-6.2822,-6.2822,-6.2822,-6.2822,-6.3584,-6.5108,-6.7061,-6.9187,-7.1278,-7.3222,-7.4426,-7.4869,-7.4869,-7.4869,-7.4869,-7.4869,-7.4869,-7.4869,-7.4869,-7.4869,-7.4869,-7.4869,-7.4869,-7.4869,-7.4869,-7.4869,-7.4869,-7.4869,-7.4869,-7.4869,-7.4869,-7.4869,-7.4869,-7.4869,-7.4869,-7.4869,-7.4869,-7.4869,-7.4869,-7.5112,-7.5728,-7.5409,-7.5261,-7.6712,-8.0988,-8.3453,-7.9634,-8.2032,-8.4584,-8.4601,-8.4581,-8.464,-8.464,-8.464,-8.464,-8.464,-8.464,-8.464,-8.464,-8.464,-8.464,-8.464,-8.464,-8.464,-8.464,-8.464,-8.464,-8.464,-8.464,-8.464,-8.464,-8.464,-8.464,-8.464,-8.464,-8.464,-8.464,-8.464,-8.464,-4.3214,-4.3711,-4.3711,0.0,0.0,0.0,-4.5664,-4.6016,-4.6465,0.0,0.0,0.0,0.0,0.0,0.0,0.0,0.0,0.0,0.0,0.0,0.0,0.0,0.0,0.0,0.0,-6.2822,-6.2822,-6.2822,-6.2822,-6.2822,-6.2822,-6.2822,-6.2822,-6.2822,-6.2822,-6.2822,-6.2822,-6.479,-6.6906,-6.8888,-7.0959,-7.2911,-7.4869,-7.4869,-7.4869,-7.4869,-7.4869,-7.4869,-7.4869,-7.4869,-7.4869,-7.4869,-7.4869,-7.4869,-7.4869,-7.4869,-7.4869,-7.4869,-7.4869,-7.4869,-7.4869,-7.4869,-7.4869,-7.4869,-7.4869,-7.4869,-7.4869,-7.4869,-7.4869,-7.5006,-7.5112,-7.5278,-7.5624,-7.7098,-7.6608,-7.6808,-7.9704,-8.2623,-8.4551,-8.4551,-8.4551,-8.4589,-8.4561,-8.464,-8.464,-8.464,-8.464,-8.464,-8.464,-8.464,-8.464,-8.464,-8.464,-8.464,-8.464,-8.464,-8.464,-8.464,-8.464,-8.464,-8.464,-8.464,-8.464,-8.464,-8.464,-8.464,-8.464,-8.464,-8.464,-8.464,-8.464,-8.464,0.0,0.0,0.0,0.0,0.0,0.0,-4.4141,-4.4219,-4.4512,0.0,0.0,0.0,0.0,0.0,0.0,0.0,0.0,0.0,0.0,0.0,0.0,0.0,0.0,0.0,0.0,-6.2822,-6.2822,-6.2822,-6.2822,-6.2822,-6.2822,-6.2822,-6.2822,-6.2822,-6.2822,-6.2822,-6.2822,-6.479,-6.6906,-6.8888,-7.0959,-7.2911,-7.4869,-7.4869,-7.4869,-7.4869,-7.4869,-7.4869,-7.4869,-7.4869,-7.4869,-7.4869,-7.4869,-7.4869,-7.4869,-7.4869,-7.4869,-7.4869,-7.4869,-7.4869,-7.4869,-7.4869,-7.4869,-7.4869,-7.4869,-7.4869,-7.4869,-7.4869,-7.4869,-7.5248,-7.6436,-7.7147,-7.7507,-7.7872,-8.032,-8.2837,-8.3482,-8.42,-8.4588,-8.4588,-8.4588,-8.4629,-8.4567,-8.464,-8.464,-8.464,-8.464,-8.464,-8.464,-8.464,-8.464,-8.464,-8.464,-8.464,-8.464,-8.464,-8.464,-8.464,-8.464,-8.464,-8.464,-8.464,-8.464,-8.464,-8.464,-8.464,-8.464,-8.464,-8.464,-8.464,-8.464,-8.464,0.0,0.0,0.0,-4.3711,0.0,0.0,0.0,-4.4355,-4.4609,0.0,0.0,0.0,0.0,0.0,0.0,0.0,0.0,0.0,0.0,0.0,0.0,0.0,0.0,0.0,0.0,-6.2822,-6.2822,-6.2822,-6.2822,-6.2822,-6.2822,-6.2822,-6.2822,-6.2822,-6.2822,-6.3286,-6.4338,-6.6312,-6.8435,-7.0374,-7.2456,-7.3951,-7.4869,-7.4869,-7.4869,-7.4869,-7.4869,-7.4869,-7.4869,-7.4869,-7.4869,-7.4869,-7.4869,-7.4869,-7.4869,-7.4869,-7.4869,-7.4869,-7.4869,-7.4869,-7.4869,-7.4869,-7.4869,-7.4869,-7.4869,-7.4869,-7.5142,-7.5832,-7.6099,-7.6467,-7.8186,-7.8817,-7.916,-7.9957,-8.1211,-8.2623,-8.4266,-8.4547,-8.464,-8.464,-8.464,-8.464,-8.464,-8.464,-8.464,-8.464,-8.464,-8.464,-8.464,-8.464,-8.464,-8.464,-8.464,-8.464,-8.464,-8.464,-8.464,-8.464,-8.464,-8.464,-8.464,-8.464,-8.464,-8.464,-8.464,-8.464,-8.464,-8.464,-8.464,-8.464,-8.464,-8.464,0.0,0.0,0.0,0.0,0.0,-4.3887,0.0,0.0,0.0,0.0,0.0,0.0,0.0,0.0,0.0,0.0,0.0,0.0,0.0,0.0,0.0,0.0,0.0,0.0,0.0,-6.2496,-6.2596,-6.2822,-6.2621,-6.2596,-6.2822,-6.2822,-6.2822,-6.2822,-6.3123,-6.4177,-6.5844,-6.8284,-7.0227,-7.1856,-7.3951,-7.4869,-7.4869,-7.4869,-7.4869,-7.4869,-7.4869,-7.4869,-7.4869,-7.4869,-7.4869,-7.4869,-7.4869,-7.4869,-7.4869,-7.4869,-7.4869,-7.4869,-7.4869,-7.4869,-7.4869,-7.4869,-7.4869,-7.5006,-7.5248,-7.5354,-7.5728,-7.7321,-7.7804,-7.8155,-7.9803,-8.0256,-8.055,-8.2198,-8.1652,-8.148,-8.4049,-8.464,-8.464,-8.464,-8.464,-8.464,-8.464,-8.464,-8.464,-8.464,-8.464,-8.464,-8.464,-8.464,-8.464,-8.464,-8.464,-8.464,-8.464,-8.464,-8.464,-8.464,-8.464,-8.464,-8.464,-8.464,-8.464,-8.464,-8.464,-8.464,-8.464,-8.464,-8.464,-8.464,-8.464,-8.464,0.0,0.0,0.0,0.0,-4.3711,0.0,0.0,0.0,0.0,0.0,0.0,0.0,0.0,0.0,0.0,0.0,0.0,0.0,0.0,0.0,0.0,0.0,0.0,0.0,0.0,0.0,-6.1768,-6.2747,-6.1918,-6.1793,-6.2772,-6.2822,-6.2822,-6.2822,-6.4497,-6.5529,-6.5844,-6.9607,-7.1712,-7.1856,-7.3951,-7.4869,-7.4869,-7.4869,-7.4869,-7.4869,-7.4869,-7.4869,-7.4869,-7.4869,-7.4869,-7.4869,-7.4869,-7.4869,-7.4869,-7.4869,-7.4869,-7.4869,-7.4869,-7.4869,-7.4869,-7.4869,-7.4869,-7.5112,-7.6568,-7.7061,-7.7419,-7.9065,-7.9559,-7.9925,-8.1505,-8.1591,-8.1688,-8.3826,-8.4184,-8.4116,-8.45,-8.464,-8.464,-8.464,-8.464,-8.464,-8.464,-8.464,-8.464,-8.464,-8.464,-8.464,-8.464,-8.464,-8.464,-8.464,-8.464,-8.464,-8.464,-8.464,-8.464,-8.464,-8.464,-8.464,-8.464,-8.464,-8.464,-8.464,-8.464,-8.464,-8.464,-8.464,-8.464,-8.464,-8.464,-8.464,0.0,0.0,0.0,0.0,0.0,0.0,-4.3828,0.0,-4.3711,0.0,0.0,0.0,0.0,0.0,0.0,0.0,0.0,0.0,0.0,0.0,0.0,0.0,0.0,0.0,0.0,0.0,0.0,0.0,0.0,-6.1667,-6.2772,-6.2822,-6.2822,-6.2822,-6.479,-6.6312,-6.7522,-7.0521,-7.2456,-7.3672,-7.4564,-7.4869,-7.4869,-7.4869,-7.4869,-7.4869,-7.4869,-7.4869,-7.4869,-7.4869,-7.4869,-7.4869,-7.4869,-7.4869,-7.4869,-7.4869,-7.4869,-7.4869,-7.4869,-7.4869,-7.4869,-7.4869,-7.4869,-7.5248,-7.68,-7.729,-7.7773,-8.0495,-8.1121,-8.1621,-8.3166,-8.343,-8.3473,-8.4359,-8.464,-8.464,-8.464,-8.464,-8.464,-8.464,-8.464,-8.464,-8.464,-8.464,-8.464,-8.464,-8.464,-8.464,-8.464,-8.464,-8.464,-8.464,-8.464,-8.464,-8.464,-8.464,-8.464,-8.464,-8.464,-8.464,-8.464,-8.464,-8.464,-8.464,-8.464,-8.464,-8.464,-8.464,-8.464,-8.464,-8.464,-8.464,-4.4375,0.0,0.0,0.0,0.0,0.0,0.0,0.0,0.0,0.0,0.0,0.0,0.0,0.0,0.0,0.0,0.0,0.0,0.0,0.0,0.0,0.0,0.0,0.0,0.0,0.0,0.0,-6.227,-6.1341,-6.1341,-6.2747,-6.2822,-6.2822,-6.2822,-6.524,-6.7368,-6.8888,-7.1423,-7.3503,-7.4869,-7.4869,-7.4869,-7.4869,-7.4869,-7.4869,-7.4869,-7.4869,-7.4869,-7.4869,-7.4869,-7.4869,-7.4869,-7.4869,-7.4869,-7.4869,-7.4869,-7.4869,-7.4869,-7.4869,-7.4869,-7.5006,-7.5354,-7.5624,-7.5966,-7.8028,-7.8659,-7.9249,-8.2083,-8.283,-8.3166,-8.4285,-8.464,-8.464,-8.464,-8.464,-8.464,-8.464,-8.464,-8.464,-8.464,-8.464,-8.464,-8.464,-8.464,-8.464,-8.464,-8.464,-8.464,-8.464,-8.464,-8.464,-8.464,-8.464,-8.464,-8.464,-8.464,-8.464,-8.464,-8.464,-8.464,-8.464,-8.464,-8.464,-8.464,-8.464,-8.464,-8.464,-8.464,-8.464,-8.464,-8.464,-8.464,0.0,0.0,0.0,-4.3926,0.0,0.0,0.0,0.0,-4.433,0.0,0.0,0.0,0.0,0.0,-5.2949,-5.31,0.0,0.0,0.0,0.0,0.0,0.0,0.0,0.0,0.0,0.0,0.0,-6.1065,-6.0186,-6.0512,-6.2722,-6.2822,-6.2822,-6.2822,-6.6623,-6.8888,-6.8888,-7.277,-7.4869,-7.4869,-7.4869,-7.4869,-7.4869,-7.4869,-7.4869,-7.4869,-7.4869,-7.4869,-7.4869,-7.4869,-7.4869,-7.4869,-7.4869,-7.4869,-7.4869,-7.4869,-7.4869,-7.4869,-7.4869,-7.4869,-7.5112,-7.67,-7.716,-7.7773,-8.1089,-8.2083,-8.2345,-8.4035,-8.45,-8.45,-8.464,-8.464,-8.464,-8.464,-8.464,-8.464,-8.464,-8.464,-8.464,-8.464,-8.464,-8.464,-8.464,-8.464,-8.464,-8.464,-8.464,-8.464,-8.464,-8.464,-8.464,-8.464,-8.464,-8.464,-8.464,-8.464,-8.464,-8.464,-8.464,-8.464,-8.464,-8.464,-8.464,-8.464,-8.464,-8.464,-8.464,-8.464,-8.464,-8.464,-8.464,-8.464,0.0,0.0,-5.1011,-4.9252,0.0,0.0,0.0,0.0,0.0,0.0,0.0,0.0,0.0,0.0,-5.5115,-5.5115,-5.5754,-5.6219,0.0,0.0,0.0,0.0,0.0,0.0,0.0,0.0,0.0,-6.1065,-6.0839,-6.1266,0.0,-6.2822,-6.2822,-6.2822,-6.6778,-6.8888,-6.8888,-7.2911,-7.4869,-7.4869,-7.4869,-7.4869,-7.4869,-7.4869,-7.4869,-7.4869,-7.4869,-7.4869,-7.4869,-7.4869,-7.4869,-7.4869,-7.4869,-7.4869,-7.4869,-7.4869,-7.4869,-7.4869,-7.4869,-7.4869,-7.5006,-7.5459,-7.6467,-7.7676,-7.9925,-8.1388,-8.2572,-8.4143,-8.464,-8.464,-8.464,-8.464,-8.464,-8.464,-8.464,-8.464,-8.464,-8.464,-8.464,-8.464,-8.464,-8.464,-8.464,-8.464,-8.464,-8.464,-8.464,-8.464,-8.464,-8.464,-8.464,-8.464,-8.464,-8.464,-8.464,-8.464,-8.464,-8.464,-8.464,-8.464,-8.464,-8.464,-8.464,-8.464,-8.464,-8.464,-8.464,-8.464,-8.464,-8.464,-8.464,-8.464,-5.138,-5.3064,0.0,-5.2687,-5.2614,0.0,-5.0882,0.0,0.0,0.0,0.0,0.0,0.0,0.0,-5.6219,-5.6219,-5.6219,-5.6219,0.0,-5.6219,0.0,0.0,0.0,0.0,0.0,0.0,-5.8956,-6.0462,-6.0588,-6.1065,0.0,0.0,-6.3123,-6.3882,-6.7088,-6.9187,-6.9931,-7.3222,-7.4869,-7.4869,-7.4869,-7.4869,-7.4869,-7.4869,-7.4869,-7.4869,-7.4869,-7.4869,-7.4869,-7.4869,-7.4869,-7.4869,-7.4869,-7.4869,-7.4869,-7.4869,-7.4869,-7.4869,-7.4869,-7.4869,-7.5142,-7.6233,-7.7321,-7.8534,-8.0885,-8.2198,-8.331,-8.4285,-8.464,-8.464,-8.464,-8.464,-8.464,-8.464,-8.464,-8.464,-8.464,-8.464,-8.464,-8.464,-8.464,-8.464,-8.464,-8.464,-8.464,-8.464,-8.464,-8.464,-8.464,-8.464,-8.464,-8.464,-8.464,-8.464,-8.464,-8.464,-8.464,-8.464,-8.464,-8.464,-8.464,-8.464,-8.464,-8.464,-8.464,-8.464,-8.464,-8.464,-8.464,-8.464,-8.464,-8.464]}]]